GFSSE_prec_cthk_000.txt.gz
RH
22 19 18 19 28 28 27 24 23 19 13 12 15 17 16 16 16 17 20 20 19 18 16 15 18 19 21 20 18 17 16 15 15 12 14 13 11 12 17 20 20 27 23
20 19 19 23 24 25 23 21 20 17 11 16 16 17 16 17 18 20 19 19 19 20 20 18 20 20 20 19 19 19 14 14 13 13 17 20 15 15 17 19 21 24 27
19 19 20 25 23 24 20 20 16 12 14 16 15 17 19 18 19 19 20 18 20 21 20 16 19 20 20 19 21 21 13 12 12 17 22 24 19 21 18 17 18 16 19
22 22 19 22 23 21 20 15 13 12 15 14 17 19 21 21 21 17 20 19 18 22 20 14 19 21 20 21 21 18 13 12 15 19 25 31 22 15 20 16 12 14 17
23 24 22 19 23 21 17 16 12 13 16 17 23 20 23 21 21 20 20 19 18 18 16 15 20 21 19 21 21 16 12 14 18 20 27 31 21 14 12 12 11 11 11
24 25 25 26 21 18 16 16 13 14 16 18 19 20 21 22 22 21 19 19 18 16 16 14 14 14 21 16 16 13 14 16 19 22 27 24 19 14 13 11 11 12 11
26 24 23 22 25 17 16 16 12 14 17 18 19 18 20 21 22 22 20 20 18 17 16 13 12 12 14 14 14 15 14 16 19 22 26 21 14 13 13 12 12 12 12
31 27 20 19 18 18 15 14 12 14 17 18 17 15 18 21 22 22 21 21 21 18 15 12 10 11 12 13 14 14 13 16 19 22 22 21 14 14 13 13 13 13 13
33 28 20 17 16 15 12 9 12 16 17 17 15 14 15 16 20 22 21 22 20 19 17 13 12 11 11 13 14 13 13 15 17 20 20 18 15 15 14 14 14 13 14
34 30 24 19 16 10 8 6 10 16 18 17 17 13 12 14 19 20 20 21 20 21 18 16 13 12 11 12 13 13 12 13 15 16 20 20 17 15 15 16 15 14 14
36 32 28 24 21 17 14 11 9 11 13 12 11 10 11 11 16 19 19 16 19 19 18 17 13 12 12 13 13 12 12 13 15 16 20 19 18 17 16 16 15 15 15
35 32 31 26 22 20 18 16 13 10 10 10 10 11 12 13 19 20 18 17 18 17 17 18 16 14 14 15 14 14 14 14 15 18 19 20 19 18 17 17 17 16 16
34 32 31 31 26 20 16 15 14 11 12 11 12 15 16 17 20 17 17 16 18 16 18 19 17 16 17 17 17 17 15 15 17 18 20 20 20 20 19 19 18 18 17
33 31 32 33 30 25 20 16 15 15 16 16 17 18 18 18 17 14 15 16 17 17 20 19 20 18 19 19 20 20 20 20 21 21 21 21 22 21 21 21 20 20 19
34 32 32 31 32 29 27 20 18 18 19 20 21 21 20 19 18 17 17 20 20 19 20 23 23 21 22 20 20 21 21 22 23 23 23 23 23 23 22 22 21 20 20
35 34 34 33 29 31 30 27 23 21 21 22 21 21 21 20 19 19 18 20 21 21 21 22 22 22 21 21 21 21 21 22 22 23 24 24 25 25 25 25 23 23 22
36 35 34 31 30 27 28 27 27 25 24 23 22 21 21 21 20 20 20 21 23 22 21 22 23 25 26 25 23 23 23 22 22 22 24 25 26 27 27 27 26 25 25
36 33 31 30 27 24 23 24 25 27 26 23 22 21 21 21 22 21 20 20 21 22 23 24 24 25 26 26 26 26 26 25 24 24 25 24 26 28 28 28 28 26 26
22 21 24 26 25 24 22 22 23 24 24 23 24 23 23 19 19 20 20 21 22 23 24 25 26 28 28 30 31 30 28 27 27 27 27 27 27 28 29 29 30 29 28
17 16 16 18 21 23 24 23 23 24 22 23 23 23 24 24 21 20 19 21 23 23 22 23 26 30 32 32 34 35 34 32 31 32 30 30 30 31 31 31 30 31 29
15 14 16 16 16 19 20 22 22 22 23 24 23 23 24 25 24 20 21 21 23 24 24 24 28 31 33 36 40 39 39 38 36 36 36 35 33 34 34 33 31 33 31
15 13 14 15 18 21 21 20 22 23 23 26 26 25 28 29 26 23 23 24 24 25 26 26 29 32 37 41 42 46 44 39 36 37 37 37 36 40 40 42 41 39 36
18 18 18 18 20 22 26 26 26 26 25 25 25 29 32 32 30 30 29 29 29 28 27 31 36 39 41 43 45 48 48 42 39 39 40 42 43 46 50 49 45 42 42
20 20 20 22 22 24 27 30 31 32 32 31 32 33 33 31 29 27 26 28 33 35 37 38 40 38 41 41 45 46 47 47 51 50 48 50 55 59 56 54 51 48 49
22 23 23 23 24 26 29 30 32 33 33 33 34 36 37 38 36 35 32 34 35 38 40 41 41 42 44 48 46 47 49 53 53 60 58 58 61 60 62 62 60 60 54
28 28 28 28 28 27 27 29 31 32 32 32 32 34 34 36 38 40 41 40 41 43 44 45 44 47 49 51 49 48 52 56 55 62 63 63 64 62 64 64 63 66 65

GFSSE_prec_cthk_003.txt.gz
RH
21 20 18 19 27 29 26 23 21 20 14 11 15 16 17 17 17 20 20 20 20 19 19 20 19 20 23 20 18 17 15 14 13 14 14 12 11 16 20 20 19 23 23
19 18 18 18 26 26 22 21 19 17 12 13 16 18 18 19 20 21 21 20 21 21 21 19 20 21 20 18 20 17 13 14 13 16 16 19 14 21 17 17 19 22 22
20 18 17 19 22 23 21 19 17 16 12 16 17 20 23 19 20 21 20 20 21 21 22 16 21 21 20 22 25 20 13 13 16 17 18 20 17 16 16 15 15 18 18
20 19 17 21 20 21 20 17 13 13 13 14 18 27 27 22 21 20 21 19 19 22 18 15 21 22 21 20 22 19 14 12 14 19 20 20 19 14 14 10 13 13 14
23 20 20 20 21 18 17 15 13 12 16 17 21 19 26 23 22 20 18 17 16 16 14 15 17 22 20 21 22 15 13 13 14 19 21 21 18 12 12 11 11 11 11
30 23 20 21 20 19 17 14 15 14 16 17 19 20 20 25 22 21 17 17 15 13 12 11 11 10 15 17 18 12 13 15 16 18 22 18 13 13 12 11 11 12 11
33 28 22 20 20 17 16 15 14 13 16 16 18 18 19 20 21 22 19 17 15 14 11 10 10 10 10 12 12 12 14 15 16 18 19 17 12 13 12 11 12 12 12
34 31 26 20 18 17 17 14 14 12 17 18 18 15 16 18 16 19 19 17 18 15 14 13 11 11 12 11 11 12 13 15 16 18 19 18 13 13 13 12 13 13 13
36 35 30 21 17 17 17 14 11 11 17 16 17 12 12 12 13 13 18 18 22 18 18 16 15 13 12 11 12 13 12 15 15 18 19 18 15 15 15 14 14 14 14
36 35 32 27 16 17 12 9 6 8 12 12 11 10 10 10 10 12 15 20 21 20 21 20 17 16 14 13 13 14 13 14 15 16 16 17 17 16 17 16 15 15 15
35 33 32 31 25 19 13 10 9 9 9 10 10 10 10 10 10 12 15 15 16 18 19 19 19 17 17 16 16 15 15 15 16 18 19 20 21 20 20 20 19 18 18
34 32 31 30 31 25 19 15 14 11 10 10 10 11 11 11 12 15 14 14 14 14 17 18 19 17 17 17 18 18 18 17 18 20 20 22 23 22 22 23 23 22 21
34 31 31 30 30 29 24 21 17 14 12 11 11 12 13 14 14 14 14 13 13 16 15 16 17 17 16 17 18 19 18 18 19 20 20 22 24 24 24 24 25 25 24
34 31 32 31 31 31 29 23 20 18 16 16 16 17 17 18 17 17 16 15 14 15 16 15 16 16 16 17 18 19 19 18 18 19 20 20 22 24 25 25 26 27 27
34 32 32 31 31 32 31 27 24 22 21 20 20 21 22 22 22 20 20 19 16 14 16 17 16 17 17 16 18 20 20 20 20 19 20 21 21 23 24 25 26 27 28
33 33 33 32 31 31 30 28 26 26 25 26 25 24 23 21 21 21 22 19 16 14 14 17 18 19 19 20 19 21 21 21 21 21 21 21 22 23 24 25 26 27 28
32 33 34 33 31 28 26 26 24 23 24 23 24 25 25 25 23 20 20 20 18 18 16 17 17 19 22 23 22 22 22 22 21 23 23 23 23 23 23 25 25 27 28
32 31 27 24 23 22 20 20 20 22 23 22 23 23 24 25 26 27 24 19 21 21 21 21 21 20 20 22 23 24 24 25 24 25 25 25 26 26 25 25 25 26 28
23 19 18 17 14 16 19 19 18 18 19 20 22 23 24 25 24 26 27 26 23 24 24 24 23 22 20 22 25 27 28 28 28 30 28 27 28 28 28 27 27 28 30
17 17 18 17 16 15 17 20 21 22 20 20 21 23 25 25 27 29 30 31 29 29 29 30 29 29 28 27 29 30 31 34 36 34 33 32 32 33 33 33 34 34 33
17 18 18 18 20 21 21 23 23 23 24 25 26 25 27 30 31 34 36 35 32 31 30 31 32 30 28 30 35 35 40 40 37 36 36 35 37 39 41 41 41 40 43
17 17 18 20 22 24 27 29 30 29 30 31 32 32 33 34 35 37 38 34 33 33 32 30 33 33 31 35 43 48 44 39 36 36 37 39 41 43 42 45 49 51 49
19 19 20 20 21 23 25 28 33 34 33 33 33 33 34 37 38 41 42 41 40 38 37 36 41 46 46 45 48 52 50 46 41 39 39 43 45 45 48 53 53 52 54
20 21 21 22 23 26 28 30 34 37 37 38 39 40 40 41 41 42 44 46 46 46 45 46 47 49 51 52 53 51 54 55 55 49 44 49 52 50 53 56 56 55 55
25 26 27 27 27 28 28 30 32 35 37 38 39 39 40 41 44 44 45 47 49 51 53 54 55 55 55 56 54 54 57 62 62 59 55 49 52 55 56 58 58 60 60
29 29 29 28 28 29 30 29 29 30 31 32 33 35 37 40 42 45 46 49 50 54 56 55 57 59 56 59 60 62 65 64 61 66 62 58 58 58 58 59 62 63 65

GFSSE_prec_cthk_006.txt.gz
RH
21 21 20 21 23 26 27 26 23 22 17 11 15 16 18 17 16 20 20 19 20 20 19 20 22 30 27 22 20 17 16 14 12 13 11 10 11 19 19 17 20 21 21
24 20 19 20 25 27 27 21 21 20 14 11 16 17 21 18 19 18 20 22 21 21 21 22 22 26 24 21 20 15 14 14 12 14 15 13 15 21 16 16 19 18 22
26 20 18 19 25 24 24 24 22 19 14 10 19 24 28 20 20 19 19 20 21 22 22 19 23 22 22 24 20 20 15 14 17 17 16 17 16 15 15 14 16 17 21
28 21 19 19 21 19 22 22 20 14 12 12 16 28 29 26 23 20 20 18 21 22 16 14 21 20 18 20 21 20 14 16 19 19 18 17 16 13 12 10 12 14 16
30 25 20 19 20 18 19 17 15 12 13 16 22 26 29 26 21 19 18 18 16 14 12 13 14 16 15 19 20 16 13 14 18 19 18 19 18 14 12 11 11 11 12
32 28 25 18 17 16 16 16 14 13 13 17 26 28 28 23 20 20 18 16 15 13 12 12 13 12 12 13 17 13 12 15 17 19 19 19 17 13 13 12 11 11 11
33 32 28 23 18 16 15 15 14 13 13 15 19 21 19 19 20 18 18 17 15 16 13 11 11 12 12 12 12 11 12 15 15 16 18 18 15 14 15 14 13 13 13
34 34 32 29 20 17 15 14 13 13 11 13 18 18 17 18 18 16 16 16 17 19 15 13 13 13 14 14 13 12 13 15 16 16 17 17 15 15 16 17 16 16 16
36 35 35 32 28 19 16 14 11 10 9 14 18 12 12 15 14 12 14 18 21 21 18 17 16 16 15 16 15 15 15 16 17 18 19 20 21 19 20 20 19 18 17
39 36 35 33 30 23 19 14 10 6 7 12 11 9 10 10 11 11 14 15 15 20 19 19 19 17 17 17 17 18 18 18 19 20 21 21 21 21 22 22 22 22 21
41 37 35 32 30 28 23 18 12 10 9 10 11 11 11 11 11 11 13 14 14 13 14 16 18 17 17 16 16 17 18 18 19 20 20 20 21 22 22 23 24 24 24
39 38 35 33 32 31 28 23 20 16 14 12 12 11 12 12 12 12 14 15 13 12 11 13 14 16 16 16 16 17 18 18 18 18 20 20 21 22 23 23 24 25 26
38 39 35 34 34 33 31 28 23 21 19 17 15 14 14 14 15 16 17 16 16 14 13 12 13 15 16 16 15 16 18 19 19 19 20 20 21 22 23 23 23 24 25
37 38 35 33 34 33 34 32 29 25 23 20 20 19 18 19 19 20 21 21 19 18 16 15 13 15 17 17 16 16 18 19 20 20 20 20 21 22 23 23 23 23 25
36 38 34 32 33 33 33 33 31 28 26 26 26 26 24 24 23 22 22 22 21 20 18 16 15 15 16 18 19 18 19 21 21 22 21 20 20 21 23 24 25 25 25
34 34 34 33 33 33 31 30 29 27 26 25 25 26 26 26 28 28 28 25 21 22 22 20 18 18 17 17 19 21 22 23 23 23 22 21 20 21 24 24 25 25 27
34 36 35 34 32 28 24 22 23 23 22 23 23 24 25 26 26 27 27 29 29 27 26 27 27 25 24 23 21 22 22 22 22 22 23 22 22 24 25 25 26 27 27
34 33 30 24 21 20 19 20 20 20 19 20 22 24 25 26 28 29 29 29 31 32 31 27 28 29 28 27 26 26 26 25 26 26 26 27 29 29 28 28 28 28 29
28 22 19 19 19 20 19 19 18 20 22 21 21 22 25 28 30 32 31 31 33 34 35 33 31 32 32 31 31 31 30 30 30 31 31 33 36 34 32 32 32 33 34
19 18 20 21 22 23 23 23 24 26 27 28 28 30 30 31 32 33 33 34 37 39 38 36 35 36 36 36 37 36 35 33 33 32 35 40 39 37 37 38 39 41 42
20 19 20 20 21 23 25 27 29 31 31 31 33 34 36 38 39 40 40 40 41 43 43 40 40 39 36 37 42 37 36 35 35 36 39 42 41 42 43 44 45 45 45
21 20 19 19 19 21 23 26 30 33 35 36 38 39 42 42 41 42 42 43 44 44 44 44 44 44 43 43 46 50 48 42 38 38 39 41 39 41 42 46 49 47 50
22 20 19 20 21 23 25 28 31 34 38 42 44 44 45 45 45 45 45 45 45 46 47 49 51 52 53 52 52 58 60 57 53 47 46 49 50 49 48 47 48 52 52
23 22 23 25 26 28 29 31 34 37 39 39 40 41 42 43 42 43 44 45 45 47 48 50 54 55 57 57 59 56 57 61 62 57 49 52 57 56 54 55 57 54 55
24 26 27 29 29 27 27 26 27 29 31 32 31 31 33 35 39 41 42 43 44 46 45 51 53 56 56 54 56 58 58 58 61 64 63 59 64 62 64 65 65 63 63
27 31 33 32 30 29 28 28 28 29 30 30 30 30 31 32 33 33 34 37 41 43 43 44 50 53 56 61 70 70 73 74 71 75 77 75 74 73 74 72 71 69 69

GFSSE_prec_cthk_009.txt.gz
RH
25 23 20 22 26 30 26 26 25 23 20 16 14 15 17 16 14 19 21 20 19 20 19 19 24 30 32 31 25 20 18 16 14 13 11 10 14 19 20 19 20 21 20
26 24 20 20 23 25 25 25 19 19 18 15 15 17 17 18 18 18 20 21 20 21 22 22 22 30 28 24 21 18 17 16 14 14 14 11 16 20 18 18 19 19 22
29 26 20 18 23 29 24 23 20 19 16 14 16 17 21 21 25 20 22 20 21 21 22 22 21 24 20 25 22 18 14 14 13 15 16 16 18 17 17 15 18 17 17
31 29 23 19 21 24 21 22 19 16 13 14 15 18 25 28 22 22 22 20 22 22 22 16 21 20 19 22 20 20 13 13 14 14 16 16 17 17 13 12 12 14 17
32 31 25 21 20 22 18 19 16 15 12 14 17 21 29 30 25 22 20 18 18 18 15 15 18 18 17 19 20 21 14 13 15 15 16 16 16 15 12 11 11 12 13
33 34 30 26 21 20 17 16 15 14 12 14 17 18 30 29 23 22 20 18 17 16 14 13 14 13 14 19 18 20 14 14 15 16 15 16 17 15 13 13 14 13 14
35 35 33 29 25 18 15 15 14 12 12 13 19 19 22 20 22 20 18 19 17 16 16 14 11 13 16 15 16 15 15 14 15 15 17 19 18 17 18 18 18 18 17
38 35 34 33 30 23 17 15 13 12 11 11 15 18 19 19 19 19 17 17 16 16 17 16 13 14 15 16 17 17 17 18 20 20 22 23 22 20 19 20 20 20 19
39 38 34 34 33 31 23 18 15 12 10 9 12 14 15 18 17 16 15 15 15 14 14 16 15 15 16 16 16 17 18 19 21 22 22 23 22 21 19 20 21 21 22
38 39 36 35 35 32 28 24 19 14 10 8 12 10 10 12 14 13 12 13 12 12 13 15 16 16 17 17 16 16 17 18 19 21 21 21 21 21 21 20 20 21 22
36 36 39 36 35 34 31 28 24 20 15 12 11 10 11 12 12 12 12 13 14 14 13 13 14 15 17 18 17 16 17 18 18 19 21 21 21 20 20 23 21 21 22
35 35 40 38 36 36 34 32 28 24 21 18 17 15 14 14 14 14 15 16 16 16 15 15 15 14 14 16 17 16 16 17 18 18 19 21 21 21 21 23 22 21 22
34 35 39 38 36 36 35 34 33 30 26 23 21 20 19 18 17 18 19 20 20 20 20 20 19 18 16 15 15 16 17 17 18 19 19 20 20 21 21 23 26 21 22
33 35 39 40 37 35 36 36 35 34 31 28 26 24 24 24 24 23 22 22 22 23 24 24 22 21 19 18 17 16 16 18 19 20 20 21 21 22 22 22 27 27 23
34 35 36 37 36 36 36 36 34 31 29 28 28 27 28 28 29 30 31 32 31 29 28 28 27 25 24 22 19 18 18 17 18 20 21 22 23 22 22 22 28 29 31
36 37 37 37 37 36 33 30 29 28 28 27 27 27 29 29 29 30 31 31 32 33 33 32 30 30 30 29 27 26 24 23 21 20 22 23 23 23 22 22 23 30 35
34 36 35 36 34 28 25 23 23 25 26 24 22 23 24 26 27 29 29 29 30 32 34 34 33 33 32 32 31 32 31 30 28 26 25 24 24 24 24 25 25 27 30
33 34 33 29 24 24 23 24 24 24 25 24 24 22 21 23 25 27 29 30 31 31 33 34 34 34 33 33 32 32 34 34 31 31 32 30 30 30 29 29 30 32 32
30 26 23 21 24 26 27 27 26 27 27 28 29 30 32 34 34 36 37 36 36 36 37 38 40 41 38 35 35 35 35 34 34 33 31 33 33 35 34 36 39 40 39
26 23 22 22 24 25 26 27 27 28 30 31 32 33 36 38 40 42 42 42 43 43 43 43 46 47 45 42 42 37 35 32 31 31 31 32 32 36 42 43 44 44 45
25 23 23 22 22 22 22 24 26 28 31 34 37 38 39 41 44 46 47 47 48 48 48 49 50 51 52 53 54 50 48 44 40 38 42 41 41 41 42 41 42 45 46
25 25 24 23 22 21 21 24 28 31 34 38 41 43 46 48 49 50 51 51 51 51 51 51 53 54 55 57 58 60 57 51 49 48 48 49 50 52 47 48 50 50 47
28 26 24 23 22 22 24 26 28 31 35 38 40 41 43 43 43 44 44 43 42 44 43 44 47 50 51 52 54 57 56 53 51 48 44 44 46 50 48 47 50 53 56
27 26 25 24 25 26 26 26 27 29 31 32 32 33 34 34 36 37 38 40 42 43 44 46 47 48 54 55 57 60 62 64 64 60 58 58 54 51 52 53 55 59 60
27 26 26 27 28 31 31 30 29 29 31 31 32 33 34 36 37 37 38 39 40 42 44 47 48 49 54 57 61 65 68 72 77 78 75 76 75 71 71 69 67 65 65
27 30 32 34 35 35 34 32 31 32 33 33 34 35 36 37 36 34 33 34 34 35 35 35 36 39 42 47 51 56 60 65 69 74 77 75 79 73 80 83 84 84 81

GFSSE_prec_cthk_012.txt.gz
RH
28 26 23 26 30 30 29 24 24 22 20 17 12 11 16 15 15 17 20 21 19 20 20 21 22 31 32 31 30 21 18 17 14 13 12 11 17 20 20 20 19 18 16
31 29 26 25 29 31 30 26 24 18 17 15 11 15 16 18 18 16 19 22 21 21 21 20 22 30 30 22 20 19 15 17 13 12 13 12 14 19 18 19 20 19 21
31 31 29 25 24 27 27 24 22 17 16 14 12 15 21 21 18 19 22 21 22 22 22 22 20 21 21 22 27 24 20 15 13 12 14 14 14 15 16 17 20 19 18
34 32 30 27 24 28 29 26 21 16 14 12 12 17 27 26 20 21 20 20 22 22 22 16 22 21 21 25 31 24 21 15 13 13 15 15 15 16 17 15 19 18 19
35 34 32 29 29 27 27 21 18 15 13 12 14 17 28 21 20 21 20 19 19 19 15 15 22 21 18 20 24 24 22 17 13 14 15 16 17 17 18 13 15 15 15
36 35 34 31 32 28 22 19 17 15 13 13 16 18 27 28 24 21 22 19 18 17 15 14 17 15 15 17 20 23 22 17 15 16 16 20 22 22 21 17 18 18 17
38 37 35 34 33 28 20 17 15 14 12 12 19 19 22 26 21 21 18 18 16 15 15 15 16 14 14 16 17 17 20 20 18 19 19 20 23 22 22 19 19 19 19
39 38 37 35 36 32 27 19 15 13 12 11 15 19 19 18 20 19 16 14 14 14 14 16 17 16 15 15 15 16 17 18 18 20 21 21 23 22 26 22 19 19 19
40 38 40 37 37 38 34 29 22 17 13 10 10 11 12 14 14 14 16 14 14 15 20 21 20 18 18 17 16 16 16 17 17 19 20 20 22 23 23 27 19 19 19
39 37 39 42 39 39 37 33 29 25 21 17 12 14 12 12 13 12 12 13 14 17 22 20 20 18 16 17 17 16 16 16 17 18 19 20 21 23 22 28 24 19 19
37 37 38 42 43 40 38 36 34 31 27 23 19 18 15 14 14 13 13 14 15 17 18 18 24 19 17 16 16 16 15 15 15 17 18 19 21 22 23 27 29 27 21
36 37 36 40 43 41 38 37 35 34 30 27 24 22 20 19 19 18 19 20 21 21 22 22 22 22 21 20 18 17 16 14 15 16 18 19 20 22 23 24 29 30 28
36 36 35 37 43 41 38 38 38 35 33 31 28 25 24 23 23 23 23 24 24 24 25 25 26 25 24 22 21 19 18 17 15 15 16 18 20 21 21 22 26 30 31
35 35 36 38 39 39 39 37 38 36 33 30 29 28 28 28 28 28 29 30 30 30 30 30 30 30 29 29 26 24 22 19 18 16 16 18 19 19 20 21 23 30 31
34 34 35 37 37 38 39 37 33 32 30 28 28 28 29 30 30 31 31 31 31 32 33 34 33 32 31 31 31 29 28 27 25 22 20 18 18 20 21 21 21 23 28
34 33 34 36 37 38 36 30 28 28 28 26 25 23 24 25 27 28 28 29 30 32 32 32 33 33 32 32 31 32 33 33 32 31 28 25 24 21 21 22 22 22 22
31 31 31 35 35 32 26 25 26 26 27 27 27 27 25 24 24 25 26 28 31 34 35 34 33 34 35 35 33 33 33 33 32 32 30 28 28 29 28 26 25 24 24
30 32 31 31 28 25 26 27 29 29 29 29 30 30 32 34 36 36 35 35 36 38 39 39 40 40 40 41 41 41 38 36 34 33 33 33 31 29 30 32 33 31 29
26 28 25 23 21 24 27 29 30 30 30 31 32 33 35 37 39 40 42 42 43 44 45 47 47 50 49 49 49 47 46 43 40 38 35 33 34 34 32 30 34 38 40
24 25 28 24 24 24 26 28 29 30 31 34 36 38 40 41 43 46 48 49 51 51 51 52 52 54 54 53 53 51 53 51 49 47 48 47 46 43 43 43 43 42 46
29 29 28 25 24 24 25 26 28 30 34 38 40 42 44 47 49 50 51 52 52 50 48 48 49 48 47 49 50 45 45 44 45 45 46 44 44 45 45 46 48 47 44
32 30 27 26 26 25 25 25 26 29 32 34 37 39 41 43 44 43 42 42 41 40 40 41 44 46 47 49 51 52 50 48 46 48 49 49 51 50 50 49 48 50 53
31 29 28 28 27 25 24 25 27 30 34 35 36 36 36 36 36 37 37 37 38 39 39 41 43 45 49 49 52 56 55 53 54 52 51 50 53 54 60 63 63 58 58
32 31 30 28 27 26 26 27 29 33 33 34 35 36 36 36 36 37 38 38 36 33 32 32 33 34 36 38 42 48 53 57 59 53 54 58 60 58 62 67 69 73 73
33 31 30 27 26 27 28 30 33 34 36 37 37 36 35 35 34 31 29 28 29 29 29 29 29 30 31 31 33 35 38 41 46 54 48 46 49 52 53 58 62 73 82
33 31 29 28 29 32 34 35 36 37 36 35 35 35 33 30 30 30 31 32 33 33 32 32 32 32 32 33 33 34 35 38 39 43 50 48 48 45 48 50 52 54 59

GFSSE_prec_cthk_015.txt.gz
RH
31 30 28 31 33 31 32 26 24 23 20 17 13 9 9 10 13 18 19 21 20 19 17 18 22 31 30 30 27 21 19 17 16 12 11 11 11 19 20 20 17 17 14
33 31 30 32 33 31 32 30 26 24 17 15 12 16 14 16 15 16 18 21 21 21 17 19 22 28 28 26 22 21 20 16 17 13 12 11 12 18 18 19 19 18 18
33 32 30 33 35 31 31 29 27 22 17 14 12 15 18 18 18 19 20 21 21 21 21 19 19 21 23 21 25 25 22 21 15 13 12 12 13 16 16 19 25 26 20
35 33 32 32 33 28 30 27 29 21 15 13 11 18 24 24 19 19 19 19 21 22 18 13 19 20 21 21 30 29 23 22 16 14 14 15 16 16 19 18 22 23 22
37 35 33 32 34 32 31 27 23 19 14 11 11 21 29 27 20 20 20 17 17 18 17 16 16 22 22 20 24 27 25 23 20 15 15 17 19 19 24 18 20 24 23
40 37 35 33 35 38 29 23 18 17 14 11 14 21 29 29 22 20 16 16 16 17 16 15 15 15 17 19 20 24 25 26 23 18 18 19 21 23 22 27 24 20 19
42 39 38 35 37 36 31 22 16 15 13 12 17 20 23 28 23 19 16 16 16 16 16 15 14 14 15 17 18 21 22 24 26 20 20 20 20 23 23 26 21 19 19
43 40 38 39 39 35 33 30 22 16 14 12 12 18 19 20 19 19 17 16 15 15 16 17 18 16 16 16 16 23 24 20 24 18 19 20 20 22 22 27 25 19 19
43 41 37 39 42 40 39 35 31 26 22 18 13 13 17 17 15 17 16 16 17 17 21 21 22 22 22 20 17 16 16 16 17 17 18 20 21 22 24 25 27 28 25
42 41 37 38 40 42 40 38 37 33 29 26 22 20 17 16 15 16 16 17 19 17 20 23 23 23 23 23 22 18 18 17 16 15 16 17 19 21 22 24 26 27 28
42 41 37 37 39 41 41 38 38 37 35 32 27 23 23 21 20 19 18 18 18 19 20 23 26 26 26 26 20 20 19 18 16 15 14 16 17 19 20 21 27 28 28
40 39 37 37 36 40 42 39 37 36 35 34 31 27 25 25 24 23 23 24 25 25 25 25 25 26 25 25 24 24 22 20 18 16 14 14 16 16 17 18 20 26 28
41 38 37 37 37 38 39 40 38 37 35 34 32 30 28 27 27 27 28 29 29 30 30 30 30 30 30 30 29 29 29 27 24 21 18 15 15 16 17 17 18 20 25
42 38 36 37 37 37 38 38 39 37 35 32 30 29 29 29 29 30 31 32 33 34 35 34 33 33 32 31 30 30 30 29 29 28 25 23 21 18 17 19 19 19 20
42 39 36 36 37 38 39 39 38 33 30 30 28 27 26 27 27 28 29 30 31 31 31 30 31 32 32 33 33 32 31 30 30 29 27 27 28 26 23 20 19 20 20
39 38 34 33 35 38 37 36 30 29 29 28 28 28 27 27 27 27 28 29 30 32 33 34 35 35 35 35 35 36 36 35 34 31 29 26 26 27 27 26 24 22 21
38 36 32 32 36 36 36 30 27 28 31 32 34 35 35 34 33 32 31 32 36 38 40 40 41 41 40 41 40 41 41 42 42 42 38 35 33 32 33 33 33 33 32
36 33 29 30 32 31 28 28 29 32 33 35 36 37 38 39 39 40 41 42 43 44 46 47 47 47 46 46 46 46 45 46 46 47 47 45 43 41 39 39 42 41 40
30 27 25 26 26 24 28 29 32 33 34 35 37 38 40 42 43 44 46 48 50 51 51 50 49 48 46 44 44 42 43 42 42 42 43 44 45 44 43 43 42 42 44
27 21 21 27 26 30 30 30 33 34 35 36 38 40 42 44 46 47 49 50 50 49 48 47 44 42 41 40 41 39 39 39 38 37 37 40 42 45 47 48 48 48 48
18 21 28 31 31 31 28 30 32 32 33 34 36 38 40 42 43 44 43 42 40 39 38 39 38 39 39 40 40 38 37 37 37 40 41 41 41 43 43 45 50 52 51
25 29 32 33 32 29 29 30 30 31 31 33 35 37 38 37 36 37 38 38 37 36 36 35 33 30 28 29 35 37 39 35 37 40 40 38 41 42 46 52 55 55 57
33 34 34 32 32 31 30 28 28 29 30 31 34 36 37 38 38 37 37 36 34 30 27 26 26 27 27 28 29 35 38 38 35 31 32 34 35 38 40 41 46 52 60
37 37 35 34 32 30 28 26 27 28 32 36 38 38 37 36 35 34 32 29 28 28 29 30 30 30 30 31 30 31 32 33 36 30 31 31 31 34 34 35 37 39 44
38 38 36 34 30 28 26 29 32 35 37 39 39 38 36 35 32 30 31 31 31 31 31 30 30 30 29 29 30 31 31 32 36 38 32 35 35 37 35 35 33 37 41
38 37 36 33 32 30 32 35 38 40 41 40 38 35 32 31 31 31 32 32 30 27 25 24 23 21 21 21 22 24 30 34 39 43 42 35 35 33 39 41 42 39 42

GFSSE_prec_cthk_021.txt.gz
RH
35 31 28 31 34 34 32 27 25 22 22 21 18 15 12 13 16 18 19 18 16 20 18 17 20 27 33 32 30 29 25 20 19 15 16 12 11 15 19 14 16 22 19
35 33 29 33 37 37 33 31 27 24 20 20 16 13 15 13 16 17 17 18 21 21 19 18 20 28 32 32 29 28 22 21 21 17 16 12 13 13 17 15 15 20 19
38 37 31 34 43 38 35 33 30 23 19 18 15 13 16 21 21 20 20 22 22 22 19 18 20 24 24 27 24 27 28 22 22 19 15 14 23 18 16 16 17 19 23
41 39 37 36 37 42 38 36 27 21 19 15 13 11 17 27 28 23 22 20 20 21 18 18 21 23 22 22 20 26 28 23 23 19 18 23 27 27 21 16 17 21 31
44 42 40 35 39 44 42 38 25 20 19 16 11 14 24 29 30 22 21 19 19 18 17 16 16 20 20 20 19 21 22 22 23 19 24 23 24 26 24 22 23 24 28
47 45 38 36 39 41 44 39 29 22 18 14 11 18 27 29 30 26 22 21 19 18 17 16 14 14 14 14 16 17 19 21 22 23 24 24 22 22 25 22 23 24 25
49 47 40 38 39 39 49 43 36 29 19 13 13 19 25 29 31 30 22 21 19 18 16 15 14 16 16 14 13 12 14 17 19 20 19 25 22 24 25 21 25 26 22
49 49 45 41 41 41 43 41 38 34 29 22 16 17 18 24 27 26 20 19 18 16 16 14 19 20 20 19 18 16 16 14 13 16 19 18 21 18 17 18 23 24 25
49 48 47 43 42 42 41 42 42 39 35 32 27 23 26 22 22 21 17 16 14 14 16 14 16 20 20 20 20 17 17 16 16 15 18 21 21 19 16 17 18 25 24
48 47 47 48 46 45 42 42 45 44 40 38 36 34 29 25 23 22 21 19 18 17 18 18 20 21 22 22 22 22 21 21 20 21 22 21 21 16 15 17 18 19 26
46 47 49 49 48 45 47 46 44 44 44 41 36 35 33 32 36 34 32 26 26 26 27 28 27 28 28 27 28 30 30 27 28 29 28 27 25 20 16 15 16 17 18
47 48 49 49 49 46 46 45 45 46 45 45 45 44 40 38 37 34 30 28 28 29 30 31 31 32 31 32 35 34 33 32 32 30 28 27 26 25 23 19 15 14 15
52 50 49 49 49 47 46 45 47 46 48 45 45 41 37 35 34 33 32 31 28 29 29 30 31 32 33 34 34 35 34 32 32 31 30 30 27 26 26 24 23 20 16
51 51 50 50 50 48 47 45 47 48 48 46 42 37 35 35 35 34 34 34 34 34 35 36 37 37 36 36 36 36 37 38 38 37 36 35 34 33 34 34 31 29 26
50 51 51 51 50 49 47 45 46 50 49 48 39 36 36 35 35 38 37 36 36 36 36 36 36 36 38 40 41 41 42 43 44 44 42 41 41 41 41 43 44 43 39
49 50 49 49 48 47 47 45 48 50 51 47 39 38 38 38 38 38 39 39 39 40 42 45 46 48 49 48 50 50 49 48 48 47 46 44 42 41 40 41 42 43 44
45 44 44 44 45 45 45 50 50 50 49 44 41 42 42 42 43 44 46 48 48 48 48 50 52 53 52 52 50 47 45 45 44 43 41 40 41 42 40 38 39 41 43
39 39 37 37 36 38 40 45 48 48 47 46 44 43 44 47 47 48 48 48 49 50 53 53 50 46 43 40 38 38 36 35 34 32 31 34 39 38 38 40 40 39 40
36 35 32 34 35 35 38 39 42 43 47 49 48 45 46 48 47 47 47 48 50 49 46 42 38 37 37 36 35 33 31 30 30 29 31 35 38 40 41 39 38 40 40
36 34 34 33 34 38 40 38 38 46 51 51 48 47 48 46 44 44 43 41 38 37 36 35 36 36 34 32 29 28 27 26 25 30 33 34 38 42 40 33 38 42 42
34 33 34 34 35 37 36 36 41 46 46 45 45 44 42 37 36 35 34 34 34 36 38 37 35 31 27 27 26 25 24 23 26 28 29 34 33 30 25 28 31 37 45
33 31 31 32 33 32 33 38 42 43 42 38 36 34 31 30 31 35 38 40 40 39 35 29 26 24 24 24 23 22 22 20 23 21 19 19 20 24 26 27 30 33 33
31 30 28 27 25 34 36 39 39 37 37 35 32 30 33 37 41 42 41 37 33 28 26 22 20 19 20 19 21 21 23 23 20 20 19 23 25 21 24 24 23 21 23
30 28 26 28 30 35 39 40 39 36 34 31 33 36 39 42 42 40 36 31 28 25 21 20 19 18 19 20 19 20 20 22 26 25 23 19 19 18 16 17 17 18 20
32 28 30 33 35 38 38 36 34 33 33 35 37 41 45 42 38 33 30 28 24 22 21 19 18 18 18 21 20 20 20 21 22 21 21 21 20 19 19 21 23 20 21
34 32 35 37 39 38 37 36 35 36 38 41 45 44 41 35 30 27 26 24 22 20 20 20 20 19 19 19 19 19 22 25 24 22 20 18 19 19 21 18 19 19 29

GFSSE_prec_cthk_024.txt.gz
RH
34 30 29 32 35 38 35 31 28 23 22 20 18 17 14 13 14 16 16 17 17 19 20 19 22 25 33 33 31 29 23 20 19 17 14 14 12 12 16 15 13 19 19
34 31 29 34 36 37 37 34 32 28 23 19 17 14 13 13 13 14 15 16 22 20 20 20 22 28 33 34 30 27 21 20 20 19 15 14 14 17 14 16 15 19 20
37 34 32 35 40 40 38 35 33 26 21 18 16 13 16 16 17 18 17 19 19 20 18 19 22 23 26 27 22 23 23 21 21 20 16 17 21 20 19 17 17 20 21
39 37 34 38 42 42 40 39 32 24 21 19 14 12 17 21 21 20 18 17 16 16 16 16 20 22 25 25 23 22 24 23 22 18 17 19 22 25 23 22 19 22 27
41 42 41 40 39 44 41 42 37 24 22 18 13 15 21 26 28 21 20 18 17 16 16 15 15 18 20 22 20 19 21 20 22 16 19 22 20 23 25 25 21 19 24
44 45 44 40 41 41 38 38 34 29 23 17 13 18 21 26 29 24 23 21 19 17 15 15 14 13 14 14 13 13 16 14 14 13 15 21 22 19 23 24 23 20 20
48 49 44 39 42 42 38 38 36 34 30 23 16 19 19 24 28 29 22 20 19 18 15 12 12 13 13 12 13 13 12 11 10 10 10 13 18 20 18 23 18 19 20
48 48 44 40 42 44 42 40 40 40 36 31 28 28 25 22 22 25 18 16 13 11 11 11 11 13 13 13 13 14 13 13 14 13 13 13 17 18 17 14 15 16 23
51 48 46 43 43 46 43 40 39 39 39 37 34 32 34 32 29 27 23 17 15 13 13 14 15 15 17 18 19 19 19 19 19 18 16 16 15 20 19 15 15 16 18
49 49 48 45 44 46 42 38 38 36 40 40 38 36 34 33 33 32 29 25 24 24 24 25 25 25 25 25 24 25 26 25 25 24 23 23 23 22 20 17 16 16 17
45 49 47 48 50 49 48 44 43 39 35 36 38 38 37 33 35 36 33 30 28 28 27 27 28 29 29 30 32 34 34 33 32 32 31 30 29 27 25 24 22 19 16
48 49 49 48 50 51 52 47 43 39 41 40 42 42 41 36 34 35 33 29 28 27 28 28 29 29 29 29 29 30 29 29 29 29 29 30 29 29 30 29 28 26 24
51 50 49 49 49 49 52 49 45 43 41 43 44 45 38 35 32 33 34 34 32 30 30 31 31 32 33 33 33 34 34 33 35 36 38 37 38 38 37 37 37 36 34
53 51 52 50 51 50 52 53 50 49 44 45 47 44 36 35 35 34 36 36 35 34 33 34 35 36 38 40 41 42 41 43 44 45 44 45 45 45 45 44 44 44 44
52 50 50 51 50 52 54 55 52 53 48 48 50 47 39 38 37 37 38 38 38 39 41 43 45 46 47 47 46 50 51 50 49 51 49 46 45 45 45 45 46 46 45
50 50 50 51 50 53 56 56 55 54 53 50 51 48 44 42 41 40 41 45 50 49 48 48 48 47 47 49 49 47 43 40 39 39 39 38 36 36 36 40 41 41 41
45 46 45 48 49 48 53 54 53 54 53 52 50 48 47 47 46 45 48 51 50 49 48 48 48 48 45 39 35 34 36 37 34 33 32 31 30 32 39 41 39 37 37
39 40 42 42 42 44 47 51 52 54 50 49 49 49 51 49 46 47 49 50 49 48 48 48 43 38 35 35 35 36 35 32 29 27 26 26 31 35 37 38 40 44 41
35 37 38 37 35 36 42 48 49 50 50 46 44 48 51 50 49 48 47 45 41 40 37 34 33 34 35 34 33 30 26 24 21 21 26 30 29 32 34 40 37 35 33
34 35 36 35 35 37 39 44 46 47 44 41 47 53 52 48 46 43 37 32 30 32 35 37 37 36 33 28 24 20 18 17 19 24 22 24 26 27 29 33 32 30 25
36 37 37 35 35 36 38 39 40 40 40 46 49 47 43 39 34 29 28 31 35 38 38 36 30 26 23 19 16 15 15 17 17 17 22 21 20 20 21 20 22 23 25
37 39 38 38 37 37 37 36 36 39 43 44 40 36 33 32 31 33 34 37 38 37 34 29 24 21 18 18 19 17 17 16 20 16 16 15 17 18 19 16 17 18 17
37 36 36 36 35 36 34 31 32 36 39 38 35 35 34 34 35 36 37 38 36 30 25 21 19 18 17 17 18 19 21 21 18 18 17 18 19 15 16 15 13 12 12
34 33 34 33 33 30 31 33 36 37 37 36 36 35 36 38 38 37 36 31 26 23 21 20 18 18 18 18 18 19 19 20 23 23 21 16 14 13 12 13 12 14 17
34 34 34 34 33 33 36 38 37 37 36 36 37 39 39 41 40 35 28 25 23 22 21 20 20 20 20 20 20 20 20 19 18 20 20 18 16 14 14 14 15 13 15
35 35 35 35 35 35 36 37 38 37 38 40 40 42 43 41 34 29 28 28 25 22 21 22 22 22 22 21 21 20 19 21 19 18 19 17 16 15 17 18 19 21 15

GFSSE_prec_cthk_027.txt.gz
RH
36 32 30 32 34 38 35 32 28 24 22 20 17 16 15 15 17 18 16 14 17 18 16 18 19 26 33 33 32 30 23 20 18 16 14 16 13 13 14 13 13 16 19
37 34 31 34 35 37 40 37 29 25 23 18 16 13 12 13 12 13 14 15 18 19 14 19 19 23 31 29 27 23 22 21 21 17 15 15 15 18 18 16 17 18 21
38 34 33 36 36 41 41 39 31 26 21 19 15 13 17 16 15 16 17 17 18 18 15 16 18 19 23 24 24 21 20 21 22 18 14 17 20 20 22 20 19 19 21
39 35 35 38 40 39 38 39 31 25 21 18 16 13 17 20 19 18 18 15 14 14 14 13 16 17 18 21 21 20 19 20 17 15 13 15 17 20 22 23 22 19 21
39 39 37 41 43 42 37 38 33 30 24 18 14 17 19 24 26 19 20 19 16 15 14 13 14 15 16 18 18 17 15 16 12 11 13 14 16 20 22 23 22 21 20
41 41 40 42 45 43 39 38 37 33 31 25 17 19 20 23 26 22 19 17 16 15 13 12 13 13 13 13 12 11 11 12 10 10 10 12 16 16 18 20 19 20 19
40 43 44 44 44 44 43 40 39 36 36 32 30 29 25 21 22 22 19 16 15 13 11 11 11 11 11 12 11 11 11 12 12 12 12 12 14 17 19 20 21 19 17
41 42 45 44 44 44 45 43 39 38 37 36 35 35 35 35 31 28 25 20 15 13 12 13 13 13 14 14 15 15 16 16 16 17 17 16 16 16 20 23 20 16 17
41 42 45 46 45 45 46 45 40 38 37 37 38 37 35 36 36 37 34 27 23 22 22 22 22 22 22 22 22 22 22 23 24 24 24 23 23 22 22 28 22 17 16
40 38 48 46 46 44 45 44 41 37 35 36 37 37 37 35 33 31 30 30 30 29 28 28 28 29 30 31 32 33 35 35 35 35 35 35 34 32 31 34 31 27 23
40 35 48 49 47 45 46 46 47 43 36 33 33 35 37 34 33 33 30 29 29 29 30 31 31 31 31 31 32 32 32 32 31 32 32 33 32 31 31 32 31 30 29
39 41 45 51 48 46 49 49 49 46 41 37 37 39 40 36 33 34 33 31 31 32 31 31 32 32 32 33 33 35 35 36 36 37 36 36 36 37 39 38 38 38 38
43 46 46 48 47 47 49 51 50 50 45 41 40 42 41 37 35 34 34 34 34 33 33 32 32 33 34 36 39 40 42 43 43 43 43 43 45 45 46 45 46 46 45
48 53 54 52 47 48 48 50 50 51 49 46 44 43 42 39 39 38 37 35 34 34 36 39 41 43 44 44 44 45 45 46 47 46 44 45 42 43 45 45 44 47 45
48 53 55 52 50 48 50 49 52 53 54 53 50 49 46 40 40 41 39 38 39 41 43 45 46 46 44 42 42 42 39 37 37 37 39 39 40 42 42 41 43 41 47
46 53 54 51 48 48 51 53 55 57 56 55 53 52 48 45 44 45 46 44 46 47 48 46 45 45 44 44 41 36 32 30 32 32 33 34 34 32 29 31 33 43 44
48 52 53 49 47 49 53 55 56 58 59 55 53 50 49 48 47 49 50 49 50 48 47 47 45 42 37 30 31 32 32 33 33 30 27 25 23 24 28 33 35 37 42
46 50 48 45 45 48 50 53 54 57 57 53 50 50 48 47 48 51 51 51 51 50 46 38 31 29 31 33 33 32 29 25 22 20 18 18 21 25 29 32 33 30 38
36 40 40 40 41 45 47 48 49 52 51 51 51 50 48 50 54 54 51 49 43 34 29 30 31 33 33 31 26 22 19 16 15 16 18 21 23 24 25 27 29 30 32
28 34 36 36 36 39 40 47 47 47 46 48 48 48 53 55 54 46 37 33 32 31 33 33 34 32 28 24 21 18 16 16 16 17 17 18 20 17 19 20 21 24 26
29 31 36 37 37 39 40 42 44 44 47 47 50 52 50 43 36 34 35 34 34 34 33 32 30 25 21 18 18 17 16 16 15 17 17 16 16 15 16 16 16 15 15
33 34 34 39 40 40 40 41 43 44 42 42 44 41 37 36 37 37 35 35 34 31 28 26 22 20 19 18 18 17 17 16 18 16 17 16 15 16 15 13 12 11 11
37 39 41 43 42 39 39 40 39 36 36 37 36 37 39 39 37 36 35 34 32 29 25 21 20 19 18 18 18 20 21 21 18 18 16 17 18 15 14 13 12 11 12
38 41 44 44 41 40 38 36 33 33 35 36 38 40 40 39 38 39 38 34 28 24 21 20 20 20 20 21 21 21 21 21 21 21 19 15 15 15 13 12 13 13 16
35 38 39 38 39 36 35 36 35 36 37 39 41 41 42 42 42 40 36 29 25 22 21 21 22 22 22 22 22 21 19 19 19 22 20 17 16 15 13 14 12 15 15
33 35 36 37 37 37 39 41 38 39 41 42 42 43 42 40 40 38 33 27 23 22 23 23 23 23 23 22 21 20 21 21 20 19 18 17 18 17 17 16 16 17 16

GFSSE_prec_cthk_030.txt.gz
RH
41 35 32 33 35 37 33 29 26 22 20 19 17 16 16 17 20 20 18 14 16 16 18 17 15 29 33 33 31 32 23 21 18 17 15 14 15 14 14 15 15 16 18
40 35 33 35 36 35 37 31 27 22 19 16 14 12 12 13 15 14 13 15 17 14 14 17 17 25 29 26 26 23 20 21 17 15 14 14 14 18 18 19 17 18 21
40 37 35 38 38 38 37 34 28 23 18 17 15 12 14 14 15 16 17 16 18 14 13 15 19 19 22 22 23 22 20 17 16 17 15 15 16 18 20 21 20 19 20
36 35 36 40 40 41 40 36 32 28 22 18 16 16 20 18 17 17 15 14 14 14 13 13 16 18 21 21 23 23 21 18 17 16 15 14 16 17 20 22 23 22 20
36 35 37 41 43 44 42 38 34 33 28 25 20 18 21 23 21 17 17 16 15 15 13 13 14 16 17 18 19 19 18 16 15 14 12 12 14 16 21 22 23 23 20
39 38 39 44 44 46 45 41 37 36 33 31 29 33 28 24 22 21 17 15 15 15 14 13 13 13 13 14 14 13 12 12 12 12 11 11 11 14 17 21 21 22 21
39 39 40 44 46 49 47 43 40 36 34 33 33 36 38 38 32 26 22 17 14 11 11 12 12 13 13 14 14 14 15 15 16 16 16 16 15 16 17 21 22 22 22
40 40 42 44 47 51 47 43 44 40 36 34 34 38 39 38 38 38 35 29 21 18 17 17 18 19 19 20 20 20 21 21 22 23 23 22 21 20 21 24 25 25 23
41 42 40 40 44 49 48 44 45 43 37 35 34 36 38 39 37 35 34 31 29 28 28 28 27 27 27 28 28 30 30 32 32 33 33 33 33 32 31 30 34 34 33
44 43 40 38 42 48 47 44 44 43 40 35 33 33 34 34 33 32 31 30 30 30 30 31 32 32 32 32 32 33 33 33 33 34 34 36 36 36 36 36 36 38 36
43 43 40 38 46 49 47 44 46 47 45 37 32 31 35 33 32 33 32 31 30 30 31 31 32 32 33 33 34 34 34 35 35 36 36 37 36 36 34 34 36 36 35
38 42 41 41 44 51 49 46 49 49 47 43 38 37 39 38 35 34 34 33 33 33 33 32 32 32 32 33 35 38 39 40 41 42 41 42 42 42 41 43 46 43 43
38 41 43 47 48 50 48 47 49 50 49 48 44 43 41 39 37 36 36 36 35 34 34 35 36 39 42 43 43 43 42 43 42 40 40 39 38 39 46 46 48 51 52
36 42 45 52 54 53 51 50 51 52 53 50 49 48 47 43 40 38 39 40 40 40 40 42 43 44 43 45 44 40 38 38 39 39 38 38 40 41 41 40 40 41 45
32 39 46 58 57 56 52 51 52 53 52 53 54 53 49 46 44 44 44 45 46 47 48 46 46 46 46 46 44 42 42 40 36 33 32 33 34 35 37 37 35 34 33
30 36 46 59 58 56 53 51 53 56 54 57 56 53 50 50 48 48 47 47 49 52 49 47 48 47 46 41 35 34 31 32 32 33 32 30 28 26 25 25 27 27 29
31 36 41 58 60 58 54 54 57 60 59 60 56 52 49 50 51 50 46 48 52 53 51 49 47 43 37 31 30 31 31 29 27 25 23 21 20 19 20 24 27 31 32
29 35 43 54 58 56 53 58 59 59 60 56 55 50 51 52 51 53 55 55 54 51 45 39 34 31 30 30 29 27 24 22 20 18 17 18 20 23 26 27 27 27 28
28 33 43 52 54 52 52 56 58 58 58 57 53 52 50 52 53 57 57 53 43 37 35 34 31 31 30 27 23 21 20 19 18 19 21 23 23 22 20 18 19 22 23
25 28 37 45 48 48 50 52 56 59 58 53 51 51 51 53 56 54 41 36 37 36 33 31 30 26 21 19 19 20 19 18 19 17 17 19 18 18 18 17 18 17 17
27 25 27 30 36 41 45 48 56 54 51 50 52 50 52 50 40 38 38 39 37 32 31 29 24 19 18 18 19 19 18 18 17 19 18 17 16 16 16 17 15 13 13
32 29 28 29 33 39 43 48 52 52 52 53 51 46 39 37 38 39 39 37 35 34 30 22 18 19 20 20 19 19 18 18 19 19 18 17 16 16 16 16 14 14 13
34 31 32 35 38 40 45 49 50 53 53 48 40 35 37 40 41 41 40 40 37 30 22 22 21 21 20 20 20 21 20 22 19 19 17 18 18 17 16 15 14 13 12
39 35 35 38 43 47 47 48 46 46 43 38 35 38 40 42 43 43 41 38 30 24 22 22 22 22 21 21 20 21 21 21 21 20 20 19 18 17 15 14 13 12 11
42 35 38 40 43 44 44 41 41 39 39 40 41 42 43 44 44 42 38 33 27 24 23 23 23 22 21 22 21 20 20 21 21 24 22 19 16 14 12 11 10 9 9
48 43 39 40 42 42 39 37 38 40 42 45 45 45 46 46 44 41 37 33 27 25 24 24 23 22 21 20 20 22 22 23 22 21 19 17 16 13 12 9 8 9 11

GFSSE_prec_cthk_033.txt.gz
RH
41 39 36 35 36 36 35 28 27 25 24 23 20 18 17 18 20 21 19 17 13 9 17 16 14 27 30 31 31 27 22 20 19 20 18 16 16 15 14 15 16 18 18
41 38 37 38 38 35 31 29 25 22 19 17 15 12 11 12 15 16 14 11 12 12 15 19 18 29 31 31 28 24 24 19 19 20 19 15 15 15 16 17 18 20 22
42 39 38 39 39 38 35 31 28 25 20 17 16 14 13 12 11 12 16 16 15 13 13 16 19 23 24 24 25 25 24 21 20 20 18 15 15 17 18 20 20 20 22
39 35 36 40 41 40 38 35 33 30 27 23 18 19 22 21 19 14 13 13 14 15 14 13 17 20 22 23 22 23 23 21 19 18 17 16 16 17 17 20 22 23 22
35 35 36 40 43 43 40 39 37 34 31 29 27 30 27 27 22 18 17 15 16 15 14 13 13 16 18 19 20 20 19 17 15 15 14 13 13 14 15 20 31 24 24
38 36 39 42 44 44 44 43 41 37 33 31 32 36 37 39 35 26 18 15 14 12 12 12 13 13 13 13 14 14 14 14 14 14 13 13 13 13 16 17 20 20 21
40 37 37 42 45 47 46 46 44 41 36 32 31 38 40 40 44 37 31 25 19 15 14 13 13 14 15 15 16 16 18 19 20 21 21 21 19 17 17 20 24 23 23
41 38 37 41 45 48 49 49 45 44 40 34 33 36 39 42 47 39 36 34 30 27 25 24 24 23 23 23 23 24 25 27 29 29 29 29 28 27 27 26 26 29 27
44 42 41 41 42 48 51 50 47 45 44 38 33 33 36 38 41 39 36 32 31 31 31 31 32 31 32 32 33 33 34 35 35 36 36 36 37 37 37 37 37 36 36
45 46 46 44 40 44 49 50 49 46 45 42 36 31 32 35 34 33 30 30 30 30 30 30 32 32 33 34 34 34 35 36 36 36 36 37 37 37 36 35 35 34 36
46 46 46 44 41 40 48 52 51 49 49 46 40 35 34 33 33 36 34 34 32 34 33 33 34 34 35 35 35 36 37 38 40 41 41 42 41 41 41 41 41 41 42
40 41 44 43 42 42 45 54 52 54 52 49 46 43 41 39 38 37 35 36 37 37 36 35 35 36 37 40 41 44 44 43 43 42 43 42 42 41 41 41 48 52 50
36 38 42 46 47 49 49 51 55 54 51 52 51 50 47 45 43 40 37 38 40 39 40 40 41 42 44 43 43 43 44 42 41 40 39 37 37 36 35 35 39 42 44
37 39 41 47 50 56 56 56 58 55 55 54 56 55 53 50 48 45 42 41 43 43 45 46 48 46 46 46 46 44 41 42 41 39 38 35 34 34 35 37 38 38 37
31 35 39 46 50 57 62 60 61 58 58 59 59 59 56 55 52 49 46 45 46 43 47 51 51 49 47 45 43 40 39 37 34 31 30 31 31 30 30 29 28 28 28
27 30 34 41 50 58 65 62 62 61 62 62 58 58 58 56 53 51 50 49 48 46 50 52 50 47 45 42 39 37 33 29 28 27 26 26 25 24 24 23 23 24 25
30 26 32 36 45 57 65 64 64 63 64 61 59 61 59 56 52 52 51 50 47 51 52 50 46 41 39 35 33 31 29 26 23 22 20 20 19 20 20 21 22 25 28
37 24 28 34 44 53 65 67 67 63 65 64 63 59 60 57 53 52 52 52 52 51 46 42 37 36 35 32 28 25 22 19 18 19 20 21 21 23 23 24 24 24 24
39 31 27 34 44 52 61 67 67 63 65 64 64 61 58 57 54 53 52 52 43 38 37 37 36 32 28 24 21 18 17 17 18 19 21 23 23 22 21 19 20 20 18
39 38 29 32 40 51 60 62 65 63 63 64 63 61 59 56 52 53 46 37 37 38 36 34 32 28 22 18 16 16 17 19 20 21 20 19 20 18 17 17 18 19 19
39 40 33 32 37 43 54 56 58 62 64 66 61 59 55 53 49 35 35 38 38 37 36 32 26 20 17 17 18 20 20 20 19 19 20 19 18 18 18 17 16 16 16
41 42 37 31 32 36 41 49 55 60 61 60 57 53 57 45 34 37 40 40 41 39 32 24 19 18 19 20 21 21 20 19 19 20 18 19 18 18 18 18 17 17 16
40 43 39 33 32 33 37 46 53 56 59 61 57 55 46 36 39 42 43 44 40 33 25 19 18 20 22 23 22 22 20 20 20 20 20 20 20 20 20 19 18 16 14
41 45 42 36 36 38 41 44 48 53 56 58 55 45 40 43 45 45 46 43 36 29 23 20 22 24 24 22 21 20 22 23 23 22 21 21 20 19 16 14 12 11 9
44 47 47 43 43 42 47 51 53 55 56 51 42 41 45 48 48 48 46 40 35 28 23 23 25 25 23 21 22 23 23 24 24 26 24 21 16 13 11 10 9 8 8
45 51 51 48 45 47 48 48 48 47 44 40 41 45 49 51 50 48 45 43 36 29 26 26 25 23 24 26 25 25 25 24 25 24 22 18 16 12 10 9 9 9 9

GFSSE_prec_cthk_036.txt.gz
RH
40 40 40 39 36 33 30 29 26 25 24 24 24 23 22 21 21 21 21 20 16 12 14 13 11 19 27 30 30 25 22 21 19 19 19 18 17 17 16 15 16 17 18
40 38 40 40 39 36 33 27 25 22 19 18 18 17 16 18 18 16 14 12 9 11 18 18 21 30 31 31 32 25 23 20 18 19 18 18 17 17 15 15 17 17 22
43 39 40 42 41 37 35 32 27 24 22 18 16 15 15 15 15 12 13 17 14 13 14 19 20 25 26 28 25 24 21 20 19 19 18 17 17 18 18 18 19 19 20
43 39 37 42 41 40 38 36 33 30 27 26 24 20 23 20 16 14 13 14 14 14 13 15 19 22 24 24 23 20 21 20 18 17 18 16 15 15 15 17 19 23 23
42 36 36 40 41 43 42 39 38 35 33 30 30 34 35 31 23 18 16 14 14 13 12 13 14 17 18 18 18 18 18 16 15 15 14 13 12 12 14 15 23 29 24
46 40 37 41 44 44 45 43 42 40 38 32 31 37 40 44 40 33 25 20 16 13 11 11 11 12 13 13 14 14 14 14 15 16 16 17 16 14 14 16 17 21 20
42 39 39 41 44 45 47 46 46 44 42 35 32 36 40 46 46 38 36 33 28 25 22 20 19 18 19 19 19 20 21 21 24 25 25 24 23 23 21 21 21 25 24
41 40 41 41 42 45 48 48 48 47 44 40 33 35 39 42 47 44 39 35 31 30 30 31 31 31 30 30 31 31 31 32 34 34 34 34 34 33 32 32 31 30 32
44 45 45 43 43 44 47 50 51 51 47 42 38 35 36 41 47 40 37 33 31 31 31 31 31 32 33 34 35 35 35 35 36 36 36 37 37 36 36 36 35 34 33
47 48 47 45 45 44 45 48 52 53 51 45 43 38 35 37 40 39 34 32 34 33 32 33 34 34 35 35 36 36 37 37 37 38 38 40 40 39 41 40 40 40 38
47 48 48 47 46 44 44 45 51 53 55 50 46 44 39 35 35 36 36 37 36 37 37 37 36 36 37 36 37 38 40 42 43 43 43 43 43 43 45 49 54 56 55
45 46 47 47 47 44 43 46 47 55 58 55 49 48 47 42 42 42 39 38 38 39 41 41 41 41 43 42 42 42 42 43 44 44 42 40 38 37 37 35 36 41 47
42 42 42 45 46 47 47 48 49 52 59 55 53 54 54 51 48 45 43 42 41 42 44 43 45 47 49 47 46 44 43 42 42 42 40 39 38 35 34 35 37 36 38
39 40 41 43 47 51 52 54 54 56 58 59 57 56 59 57 54 50 48 46 45 46 49 48 46 50 50 49 48 44 40 38 37 37 34 31 29 29 30 29 29 29 30
32 37 42 44 46 51 55 59 62 64 63 62 62 60 61 61 59 56 53 50 48 50 50 50 49 50 49 46 43 43 41 37 34 30 28 26 25 25 25 24 25 24 24
37 31 34 38 42 48 53 62 69 70 69 67 66 62 59 61 59 57 55 53 52 52 51 50 52 50 45 42 40 36 33 31 29 25 23 22 20 20 20 21 22 21 21
37 39 32 32 37 42 50 58 70 74 73 73 68 67 64 63 62 58 54 52 53 52 51 50 44 44 39 36 35 33 29 25 22 21 19 18 18 19 21 22 23 24 25
38 36 40 30 30 38 48 57 66 78 76 76 70 68 66 63 61 59 55 54 53 49 44 41 38 38 36 34 29 24 20 19 18 18 17 18 21 23 24 24 23 22 21
37 33 38 38 28 33 46 58 65 75 77 75 71 68 68 62 59 59 55 53 46 37 36 37 38 37 33 27 21 17 16 16 16 17 20 21 22 21 21 20 18 17 18
37 34 35 39 32 32 46 56 64 72 75 75 72 69 70 67 60 60 54 40 33 35 36 38 37 31 24 18 17 16 17 18 20 22 22 21 20 20 19 18 18 18 18
39 37 36 40 39 32 40 51 63 72 74 70 72 73 64 66 59 56 39 34 37 39 41 37 30 23 18 17 17 18 19 20 20 20 20 20 20 19 20 20 19 19 18
42 39 37 41 43 37 39 47 56 67 71 68 73 72 62 62 58 43 38 38 41 42 38 33 25 20 18 18 19 20 21 20 21 21 19 19 21 22 21 20 20 20 19
43 41 39 42 42 41 41 46 52 58 65 66 65 66 63 59 47 41 43 44 45 42 37 30 23 20 20 20 20 21 21 21 20 20 21 22 22 22 21 21 20 17 15
43 43 42 43 42 41 40 43 47 53 59 61 60 67 61 51 42 44 45 48 47 43 36 30 25 21 21 22 22 22 23 24 24 22 23 23 22 21 20 17 15 13 11
44 44 45 45 44 43 43 46 48 53 58 59 61 61 53 44 45 47 49 50 48 44 40 33 25 23 23 24 24 25 26 26 25 26 25 23 21 18 15 13 11 11 11
46 48 46 48 46 45 46 50 52 57 61 61 60 53 46 46 49 52 52 51 48 46 44 34 27 26 26 27 27 27 27 27 28 27 26 23 21 17 13 12 11 11 11

GFSSE_prec_cthk_042.txt.gz
RH
33 39 39 38 38 33 30 28 30 32 32 31 30 30 29 28 27 26 26 24 23 21 21 16 13 13 22 27 29 27 23 20 17 15 16 16 16 16 17 16 15 19 15
35 40 41 40 38 35 31 30 29 29 28 29 28 29 29 28 24 21 21 18 13 15 20 20 30 23 41 43 31 27 22 21 19 16 15 14 15 16 16 15 15 19 15
40 45 45 42 39 35 33 29 29 27 24 23 21 22 28 30 23 19 16 14 12 13 19 24 31 41 42 36 31 27 25 22 20 17 16 21 18 16 16 15 15 15 14
48 47 48 44 40 36 34 31 30 28 27 25 25 24 21 22 20 16 15 14 14 13 16 23 29 31 32 29 26 26 22 19 17 15 21 21 19 14 13 13 15 17 19
47 52 50 46 43 38 35 33 34 33 30 28 28 30 28 25 22 18 17 16 14 13 13 19 23 25 27 26 24 22 19 16 15 16 18 15 14 15 12 13 17 21 28
55 56 51 51 47 43 39 37 36 36 34 32 34 36 33 31 32 28 27 23 19 17 15 14 16 18 18 17 15 13 14 15 19 25 26 26 21 21 20 18 19 20 21
54 56 52 52 52 46 40 40 40 39 38 35 36 38 38 37 36 35 35 30 27 27 27 26 26 26 26 26 28 31 33 30 34 37 38 36 34 32 31 30 29 29 28
51 53 55 55 50 45 42 40 39 40 40 38 38 39 39 40 45 38 36 32 28 28 29 30 31 31 31 32 32 33 34 34 37 39 37 36 35 34 34 33 33 33 32
51 51 58 59 55 47 45 43 40 40 41 41 40 44 43 41 44 45 38 34 30 29 29 29 30 31 32 33 33 34 35 36 36 38 37 39 39 39 40 40 44 48 50
49 52 58 59 57 52 50 47 45 43 43 43 41 44 47 45 46 43 39 35 34 33 32 33 34 35 36 36 37 37 38 38 41 41 42 41 41 41 45 46 46 46 50
49 51 54 57 58 58 58 53 52 48 45 45 44 45 47 50 48 46 40 35 35 36 37 38 38 39 40 41 42 42 43 46 47 46 45 41 42 40 40 39 37 37 39
48 50 53 57 60 61 59 58 56 53 48 50 46 45 52 54 51 48 44 42 41 41 40 41 41 42 43 46 47 45 46 46 45 42 41 39 39 39 38 39 35 32 32
48 51 49 55 56 60 61 60 57 56 54 55 52 50 53 50 50 52 51 49 47 46 46 44 46 47 48 47 45 44 43 41 41 41 38 37 34 34 32 31 29 27 27
47 48 46 50 52 57 58 59 58 55 55 56 54 52 55 59 56 58 56 54 53 52 50 50 50 47 50 46 44 41 42 42 41 38 34 31 31 30 28 25 23 22 22
48 47 45 46 49 51 52 54 54 56 56 58 56 58 63 63 65 63 59 59 58 57 54 52 51 50 47 43 40 41 41 39 36 34 31 28 24 22 21 20 20 19 19
49 47 44 40 43 46 48 48 51 57 58 60 61 65 68 67 68 66 62 61 60 58 57 56 52 44 41 39 35 36 36 34 31 28 24 20 18 17 17 17 17 18 19
48 48 45 41 38 41 43 48 52 58 58 59 61 71 75 71 70 67 66 62 59 60 58 52 44 42 37 33 33 34 32 28 24 21 18 17 17 17 18 19 21 22 22
47 49 48 46 43 38 39 44 50 54 55 58 59 66 78 76 74 70 70 66 63 60 54 45 39 36 35 34 31 27 24 21 20 18 17 18 20 21 20 20 20 20 20
41 45 48 48 45 44 42 47 49 51 52 56 60 63 76 79 76 74 74 68 63 60 46 39 38 40 33 29 26 24 22 20 19 18 19 20 20 20 20 20 21 21 19
37 39 44 48 49 46 44 51 50 51 51 51 58 66 74 80 81 77 81 75 64 54 41 41 43 39 34 30 27 24 21 20 18 18 21 21 19 19 19 20 20 19 19
34 35 39 42 49 48 43 49 51 54 53 47 57 65 76 83 85 82 84 74 62 45 44 46 44 42 39 35 30 25 21 19 18 20 21 20 20 20 20 20 19 19 20
33 33 36 38 43 48 47 46 49 49 52 53 57 68 80 84 86 83 82 69 53 46 48 49 47 45 42 38 32 27 24 23 24 23 21 21 21 21 21 21 22 22 21
31 32 34 36 39 43 48 50 48 48 53 55 56 64 77 88 91 86 79 63 49 49 51 52 50 47 43 37 31 27 26 27 25 24 24 24 23 24 25 25 23 23 22
30 32 32 34 37 39 45 48 48 49 53 59 61 62 75 84 90 83 68 56 50 51 54 54 52 50 46 38 32 29 27 26 27 26 27 27 29 29 28 26 25 23 22
30 31 31 32 35 37 43 49 53 56 60 63 67 73 75 77 78 65 66 52 52 54 56 56 55 54 49 40 36 32 28 27 28 29 29 30 30 30 29 28 27 24 23
28 33 34 32 35 37 40 47 55 60 60 64 70 73 77 78 75 68 57 52 54 57 58 58 59 55 47 41 39 32 30 30 31 31 30 30 29 27 26 26 25 24 22

GFSSE_prec_cthk_045.txt.gz
RH
35 33 36 35 36 35 30 28 29 30 29 29 29 29 29 28 27 27 26 25 24 22 21 18 14 14 25 35 26 28 23 21 17 15 14 14 15 15 16 16 16 23 19
38 35 38 37 35 34 32 30 30 31 30 28 28 28 27 25 24 21 20 17 14 14 18 20 23 13 38 41 33 29 21 21 19 17 15 16 16 15 16 17 16 20 17
43 41 41 40 39 36 30 30 30 29 27 26 25 25 29 26 24 19 14 11 10 12 17 27 31 37 44 43 36 28 23 20 17 15 16 23 24 18 16 15 15 15 15
47 49 46 43 41 38 33 29 28 27 26 26 24 25 27 26 22 16 14 13 12 12 17 28 32 42 42 40 31 25 23 19 15 15 22 21 20 18 13 12 13 16 19
47 47 48 44 43 43 36 31 30 30 29 29 29 28 27 26 23 20 18 16 14 13 14 23 27 31 33 31 24 22 18 14 15 20 22 22 18 20 15 14 15 21 22
52 58 50 48 49 50 42 38 34 32 31 32 35 32 30 32 30 30 27 25 21 18 16 21 23 23 21 22 18 13 13 15 20 30 28 28 28 26 27 24 24 25 27
58 60 52 48 51 49 44 41 35 34 32 33 38 39 35 34 32 34 33 30 28 27 25 25 25 25 25 25 26 27 29 30 34 43 43 40 37 33 33 32 32 31 31
56 58 50 50 50 48 46 41 38 36 35 34 39 42 41 37 37 35 35 31 28 28 28 29 29 29 30 30 31 31 32 33 36 41 39 39 37 34 34 33 35 38 40
58 57 55 53 52 54 52 47 39 38 36 35 39 44 45 44 45 40 38 35 31 30 29 29 29 30 31 33 34 34 34 34 34 41 39 43 39 38 39 41 45 44 45
53 56 59 56 56 57 55 52 45 43 40 37 39 44 46 47 49 51 41 35 33 33 33 34 34 35 35 36 37 37 38 40 42 46 45 43 40 40 39 38 38 39 40
58 57 57 58 56 57 56 54 50 48 46 42 38 42 46 51 54 51 45 39 36 35 36 36 37 38 39 41 40 40 41 47 46 47 46 42 40 40 40 39 38 38 36
55 55 56 58 59 57 60 59 56 54 49 47 41 38 44 51 55 59 49 45 44 42 41 41 41 41 43 49 47 43 45 44 42 40 38 36 36 36 35 33 32 31 31
52 53 54 57 59 60 58 60 59 63 57 53 50 49 48 50 48 48 52 51 50 49 50 47 47 51 47 47 47 44 41 38 37 40 37 35 33 32 31 31 30 28 27
50 50 50 56 58 59 60 58 63 63 59 56 54 51 52 53 53 54 58 58 56 56 59 59 55 50 49 49 44 40 38 37 37 37 35 34 32 30 28 25 23 21 21
47 50 51 52 56 53 55 60 63 64 60 58 58 56 54 59 61 60 61 63 64 62 60 56 54 52 50 43 39 37 34 31 33 34 31 29 26 23 20 18 17 16 15
45 48 51 53 54 51 51 50 56 62 60 58 61 59 59 64 70 68 67 67 64 62 60 58 55 52 45 41 36 34 32 29 29 27 25 23 21 19 17 16 16 17 19
40 48 50 52 54 51 48 46 50 58 58 56 61 60 63 64 68 71 67 66 64 63 59 58 53 47 42 37 35 33 26 25 24 23 21 23 20 19 18 18 20 20 19
38 40 44 45 50 52 50 48 46 53 58 58 63 63 62 61 61 78 73 71 68 66 62 55 48 42 40 37 34 29 23 22 21 22 22 22 21 21 19 19 19 19 18
40 39 40 42 46 50 52 51 49 53 54 55 62 62 59 59 59 66 78 77 73 69 66 50 44 43 41 38 35 30 26 23 23 23 24 21 20 19 19 19 18 18 18
37 38 39 39 45 48 52 54 55 56 55 55 61 58 58 55 59 64 75 81 79 75 67 49 46 45 43 42 39 34 31 27 26 25 24 21 20 19 20 18 18 18 18
32 35 36 37 40 45 49 54 55 58 58 66 70 67 63 58 59 67 74 83 85 76 60 51 49 47 47 45 41 36 33 30 27 26 24 23 23 22 21 20 20 20 20
29 34 35 37 37 39 44 49 57 60 55 58 61 65 67 67 72 79 86 87 86 71 57 53 51 50 49 47 42 40 37 33 33 28 27 24 24 24 24 23 22 23 23
27 29 33 37 37 37 41 47 55 52 54 55 58 59 64 67 76 81 90 92 87 71 58 56 54 53 50 50 48 43 40 38 34 29 26 26 25 26 25 26 26 24 23
26 29 29 34 39 40 42 43 44 43 48 50 56 61 67 73 70 77 84 85 79 65 57 57 56 55 54 53 50 47 42 38 33 29 28 28 29 29 29 28 28 25 23
27 29 33 33 36 40 42 42 42 44 47 51 56 60 67 71 79 82 78 77 75 55 53 55 56 56 56 55 51 46 43 39 35 33 32 32 31 30 29 28 26 26 25
27 29 34 37 36 38 40 40 43 46 43 49 58 62 69 74 79 83 75 78 73 56 54 56 58 59 57 54 50 48 43 38 36 34 33 33 31 30 27 26 26 24 25

GFSSE_prec_cthk_048.txt.gz
RH
40 30 34 35 35 33 30 29 28 31 29 29 29 28 28 28 26 25 25 24 24 22 21 21 17 17 28 33 27 24 23 20 17 15 13 14 14 13 14 15 16 22 22
40 35 35 35 36 34 32 29 30 30 30 29 29 28 27 26 26 23 18 18 16 13 16 20 13 13 33 40 33 24 22 20 16 15 14 18 18 16 15 15 16 16 17
41 37 38 36 37 36 33 29 29 30 30 29 28 29 27 26 24 19 14 11 9 10 15 22 21 25 41 40 34 29 22 19 15 15 20 20 20 19 16 15 14 15 14
43 42 41 39 37 35 32 32 29 28 28 27 27 28 30 29 24 17 14 12 11 11 18 25 28 32 40 41 33 27 19 17 14 18 18 19 20 20 15 13 12 14 17
44 43 41 39 38 37 35 34 30 28 25 26 27 31 31 30 23 22 19 15 13 13 18 22 29 30 34 32 28 20 16 14 20 22 23 23 20 20 18 16 17 18 20
46 45 43 44 46 40 37 36 34 30 26 27 29 29 28 26 26 26 26 24 23 21 19 23 22 25 27 23 21 15 15 18 26 33 36 34 32 31 30 30 30 30 31
49 50 49 48 48 43 41 40 37 32 28 30 30 32 33 31 31 31 29 26 26 26 26 29 28 28 28 26 26 28 30 33 38 39 40 36 36 34 33 34 33 35 38
51 53 51 51 50 44 44 43 41 36 30 32 34 37 40 38 35 33 31 28 27 27 27 27 28 28 28 29 30 30 31 33 37 43 41 38 37 35 36 37 38 40 39
52 49 48 45 46 44 44 44 45 41 34 32 36 39 41 43 43 39 36 31 31 31 31 30 29 30 31 32 33 33 34 35 39 43 38 43 38 36 35 36 38 40 40
54 48 48 46 47 46 44 45 46 45 39 33 35 37 41 45 47 47 42 37 33 32 32 34 34 34 35 36 37 38 39 41 44 45 45 45 42 39 38 36 35 34 34
53 51 47 48 48 48 47 46 47 47 44 40 37 37 39 43 47 50 48 44 41 39 37 36 36 37 39 41 42 42 44 45 45 43 40 38 36 35 34 34 34 33 32
53 54 53 47 48 47 48 50 49 50 48 45 42 40 40 44 48 47 49 46 47 46 45 43 43 43 44 47 46 44 44 43 41 35 33 32 33 32 31 30 30 30 29
47 50 53 53 48 49 49 53 51 52 51 49 49 44 44 47 48 48 49 46 48 49 51 50 51 48 49 49 48 46 41 39 36 34 32 32 33 32 31 30 27 25 24
43 46 49 51 52 51 54 53 54 53 54 54 53 53 50 49 48 47 50 53 53 55 58 57 54 54 52 50 47 42 39 37 33 32 29 30 30 29 27 24 22 19 17
48 42 44 49 52 53 52 51 54 54 56 58 57 55 54 51 50 53 56 57 57 60 62 60 57 54 52 48 43 38 35 33 30 28 25 25 25 24 22 20 19 17 16
42 48 42 45 49 51 51 52 55 56 54 58 59 58 56 54 57 58 60 62 64 63 64 64 59 56 49 43 39 37 35 31 27 23 21 22 22 21 20 19 20 19 18
39 46 44 41 46 48 49 51 54 57 56 56 58 57 56 57 61 62 60 63 66 65 64 64 63 56 45 40 39 37 33 29 26 22 20 21 21 22 21 20 21 20 18
32 38 44 42 41 47 49 47 51 55 54 53 56 58 58 60 63 60 59 58 62 75 67 64 60 52 45 43 42 38 34 30 28 25 23 23 22 22 22 22 20 18 17
31 32 36 39 38 42 48 45 48 50 54 55 56 57 57 60 61 59 58 58 59 67 74 70 57 52 51 45 43 40 37 35 31 28 27 27 26 25 23 21 19 18 18
29 33 36 39 37 37 47 46 47 49 53 57 57 58 55 57 58 55 54 53 57 63 71 73 58 55 54 50 46 42 39 36 33 30 29 28 26 25 24 22 21 20 20
28 32 36 35 37 38 40 44 44 50 59 61 62 62 61 64 66 68 66 60 60 64 70 66 60 58 55 54 49 44 41 41 39 36 33 31 30 28 26 23 22 22 21
25 28 31 36 35 35 36 39 45 52 54 58 62 63 63 65 69 71 69 72 77 76 80 70 62 60 58 56 53 49 46 44 44 43 38 35 33 29 26 24 24 24 24
25 26 29 33 37 39 37 43 47 49 51 53 59 62 62 65 65 68 74 78 81 82 78 74 70 66 61 59 56 52 47 46 44 42 39 37 34 30 28 28 27 26 25
22 26 28 33 36 41 42 44 44 45 47 48 52 56 60 64 68 73 76 83 83 75 69 67 58 57 58 57 56 54 49 46 43 43 40 36 32 31 30 29 29 27 26
24 25 26 29 34 37 40 44 45 45 46 47 51 53 56 64 70 75 75 79 81 79 73 67 57 59 58 56 53 51 50 47 44 44 41 35 33 31 29 29 28 27 26
21 25 28 31 33 39 42 43 44 42 44 47 49 53 55 61 71 76 80 82 81 80 74 69 61 58 57 57 55 54 49 46 44 42 39 35 33 33 31 28 26 26 27

GFSSE_prec_cthk_054.txt.gz
RH
45 40 39 36 30 29 29 28 28 30 31 29 29 29 30 29 28 26 24 22 20 19 20 21 22 26 25 25 25 18 17 15 14 13 12 12 12 12 13 13 14 15 18
45 44 43 39 34 32 31 30 30 29 29 29 28 28 26 24 23 21 19 17 15 15 13 13 17 23 28 29 21 18 14 12 12 12 14 15 14 14 14 15 15 15 15
49 46 45 44 39 36 34 34 34 30 29 27 28 28 26 24 21 17 14 13 14 19 14 12 13 27 37 30 23 23 15 13 14 15 15 14 16 14 14 14 15 14 14
45 45 45 44 39 38 35 36 35 34 31 31 31 29 26 25 23 19 15 13 12 18 20 13 23 30 30 27 27 24 15 14 16 18 18 17 17 17 14 13 14 15 18
45 42 43 43 39 37 37 38 37 34 33 33 33 28 26 26 22 21 20 20 20 24 24 20 30 29 28 27 25 22 13 18 19 20 19 19 21 24 27 26 28 28 29
44 42 41 40 40 36 37 39 40 33 32 32 30 28 28 24 22 22 21 21 23 28 30 33 34 34 31 26 22 15 17 23 27 30 33 34 34 33 32 33 32 37 37
41 41 40 40 39 37 37 38 37 32 33 32 31 31 28 26 26 24 22 21 21 26 27 30 35 35 34 27 25 27 30 36 35 34 35 34 35 39 40 39 38 38 39
41 42 38 39 39 37 37 36 34 32 33 33 32 31 29 28 29 28 26 25 24 24 27 26 24 24 23 25 28 29 33 35 36 35 37 38 41 41 39 38 38 39 39
41 40 42 42 40 39 38 36 35 35 34 33 35 33 32 32 32 31 30 30 31 29 26 26 27 29 30 31 32 33 35 38 38 38 42 43 41 40 38 37 36 37 39
47 48 49 49 43 41 38 37 38 36 36 35 35 36 38 38 36 34 32 33 35 35 35 33 33 32 33 34 35 38 39 40 40 41 41 41 41 37 33 32 34 35 37
43 50 52 51 50 43 41 41 41 38 37 37 37 40 42 43 42 38 34 34 36 37 39 39 39 40 39 38 39 40 40 42 43 43 41 40 38 36 33 32 32 32 32
38 44 51 51 47 43 42 42 42 40 38 38 38 42 43 44 45 44 39 35 37 39 41 43 44 44 46 44 44 45 45 44 43 41 41 38 37 35 33 31 30 32 31
36 41 43 44 43 44 44 42 43 41 39 38 39 41 43 45 47 47 44 40 40 42 43 44 47 48 49 50 49 49 49 44 43 42 41 38 35 32 33 28 27 27 27
34 34 35 40 43 46 47 44 44 41 40 41 41 41 43 43 47 48 48 44 43 45 47 49 50 51 51 51 51 51 48 44 43 41 39 34 30 29 28 25 23 22 24
32 33 33 36 38 40 43 43 43 44 44 45 45 42 45 45 45 49 52 49 47 49 51 51 54 56 56 55 53 48 46 44 41 37 34 31 28 27 27 25 21 21 23
35 33 34 36 37 37 38 40 40 41 41 43 43 43 44 47 48 49 51 51 51 51 53 56 56 57 58 58 55 48 45 44 40 36 34 31 30 30 29 26 24 21 23
36 40 39 40 41 38 36 39 40 39 41 42 45 47 48 47 49 52 51 51 51 52 56 57 56 54 52 51 55 55 48 45 44 39 36 34 33 34 31 29 27 25 23
32 35 42 45 46 47 42 42 43 43 42 43 44 47 47 49 51 52 50 52 53 54 54 55 55 52 50 44 44 56 52 50 47 44 41 39 37 36 34 33 31 28 26
29 31 34 41 44 46 47 53 47 43 46 43 44 46 47 51 54 53 54 55 54 53 53 54 55 57 50 41 41 42 44 49 53 48 47 45 43 41 39 38 36 33 31
30 31 32 35 42 48 51 49 54 52 49 48 52 53 52 49 53 56 58 59 58 59 62 64 66 65 54 50 52 54 56 54 50 54 53 51 49 48 44 41 39 36 34
24 28 30 32 35 39 50 58 58 58 58 55 52 54 51 49 53 59 61 61 64 67 68 69 70 70 64 61 63 63 62 66 62 59 58 55 55 52 49 45 42 39 36
19 20 21 26 33 33 38 42 43 49 53 57 56 60 61 53 55 62 63 62 65 69 71 74 75 77 72 67 65 63 64 61 60 61 56 53 50 48 46 44 42 40 37
24 24 24 23 26 32 34 45 48 54 54 57 58 63 61 58 59 65 66 64 68 72 73 76 79 80 75 70 69 68 66 62 59 58 56 52 49 48 47 45 42 39 38
19 21 22 23 24 28 31 33 43 47 46 47 54 56 56 58 59 65 67 70 76 74 72 76 80 79 79 76 71 68 67 62 60 57 53 50 50 48 44 42 40 38 37
17 18 21 23 24 27 28 31 37 43 49 46 48 53 57 63 70 76 74 74 72 73 73 76 82 81 82 79 75 70 66 66 61 58 56 52 51 51 49 46 43 40 37
16 18 21 22 25 28 30 31 33 38 49 51 52 54 55 60 67 75 76 74 75 74 73 76 79 78 81 77 78 69 67 62 60 59 58 58 56 55 53 50 46 43 38

GFSSE_prec_cthk_057.txt.gz
RH
45 44 41 38 33 29 28 29 29 30 31 31 32 32 33 32 30 29 27 24 22 22 22 22 23 23 22 24 23 19 18 16 15 14 13 12 12 12 13 14 15 17 17
45 46 45 42 37 32 30 31 31 30 31 30 31 32 30 28 25 23 20 19 18 16 17 19 24 27 28 27 18 18 13 12 11 12 13 14 14 13 14 14 15 16 15
46 46 48 45 43 39 34 34 34 33 33 28 27 27 27 26 24 21 18 14 16 17 20 16 25 30 37 29 23 20 13 12 13 14 14 15 15 14 14 14 14 14 14
45 44 46 46 43 42 40 40 38 33 32 30 28 27 25 24 23 20 17 15 17 21 21 17 24 36 37 28 27 22 14 14 15 17 16 18 18 17 14 14 15 19 22
46 42 42 44 44 41 38 39 39 39 34 33 31 28 26 25 23 20 20 19 28 28 26 28 38 32 29 29 27 21 15 19 19 19 20 20 22 26 31 30 31 30 30
43 41 41 42 39 38 36 38 40 41 42 41 36 29 29 26 22 22 21 21 25 30 32 38 38 36 37 31 26 18 22 26 29 30 33 34 34 34 34 34 37 41 43
43 41 41 38 37 36 37 38 37 37 36 38 33 31 30 27 26 25 23 22 24 27 30 32 34 36 36 32 26 28 33 35 34 33 33 33 38 40 40 39 37 37 38
40 41 42 39 37 37 38 37 35 33 32 33 33 33 31 29 28 29 28 26 26 28 29 30 31 29 25 24 27 28 32 33 34 34 34 35 40 38 37 36 35 36 36
41 40 40 38 37 37 37 38 37 34 35 34 33 34 32 33 30 28 30 30 30 31 32 30 27 27 29 31 32 34 35 36 37 38 38 38 40 37 36 33 33 38 38
38 41 40 38 39 39 39 40 37 37 37 37 34 34 35 36 35 31 29 31 32 33 34 35 35 36 36 36 36 36 38 40 40 40 41 40 40 39 35 32 34 34 33
38 41 43 47 48 44 42 42 40 38 37 36 38 36 37 38 38 36 34 33 32 34 35 37 39 40 40 41 41 42 44 45 46 45 44 42 41 37 35 33 33 32 30
35 40 45 50 53 51 45 43 41 39 39 37 37 39 40 42 44 42 40 37 36 37 39 40 41 43 45 45 45 48 48 48 47 45 44 43 42 40 37 32 31 29 28
32 35 40 49 53 50 46 41 40 41 40 39 39 41 43 45 45 46 46 41 40 40 40 42 45 47 48 49 50 50 50 49 47 46 45 44 42 40 36 29 27 26 25
32 33 37 40 43 45 43 42 45 43 42 40 37 40 43 45 47 46 46 46 46 45 44 45 46 48 50 51 53 55 53 48 45 45 44 40 37 35 33 30 27 27 26
31 31 33 37 35 38 41 43 45 43 43 42 39 38 41 44 46 49 47 48 48 49 49 50 52 51 52 52 52 52 49 48 46 43 39 37 35 34 33 31 29 29 26
35 35 34 35 36 38 39 42 42 42 42 41 40 39 39 40 44 50 51 52 51 52 52 53 56 57 57 55 52 46 44 49 50 45 42 39 37 35 34 33 31 31 29
39 38 38 37 39 38 38 41 42 42 44 41 41 42 42 42 46 48 52 55 56 55 53 54 56 57 57 54 51 41 37 41 51 50 45 44 40 39 37 35 35 34 33
38 39 40 39 41 39 41 45 45 45 45 44 45 43 44 44 46 49 52 53 54 57 57 56 55 55 55 54 55 43 40 39 37 40 42 46 47 44 43 42 41 39 37
32 34 33 33 39 43 47 49 54 55 51 47 48 45 44 46 48 50 53 55 56 59 58 57 56 58 62 61 55 47 48 49 49 48 49 48 46 50 50 48 46 44 42
31 34 35 32 31 34 42 49 56 57 59 55 51 48 46 48 51 54 55 56 56 60 60 61 65 66 66 61 53 55 55 56 56 53 55 56 57 57 56 54 52 49 47
23 27 34 35 32 32 33 43 53 56 59 60 60 54 48 53 57 58 57 57 58 61 63 65 67 69 71 69 60 61 61 58 57 58 59 59 58 58 52 50 48 45 44
18 19 27 33 35 34 32 33 39 45 52 60 65 67 65 60 62 64 61 62 62 65 67 66 67 70 73 73 66 62 61 61 61 61 59 60 58 56 53 50 46 45 44
20 19 21 25 31 35 34 34 36 42 49 50 53 60 62 63 66 68 70 70 66 68 70 73 78 76 76 75 71 67 65 66 64 64 62 60 60 57 54 52 50 46 43
21 24 25 25 25 26 29 31 33 34 38 49 66 63 61 58 61 65 69 74 76 77 77 83 87 84 79 77 74 73 70 69 65 62 63 62 58 56 56 53 52 51 49
16 15 20 23 24 26 25 26 26 31 35 38 43 55 59 56 58 63 65 71 74 79 84 87 87 88 84 80 79 75 70 68 69 62 62 60 58 58 58 57 55 53 49
15 16 17 18 20 23 24 25 26 29 34 44 48 60 64 65 60 58 62 69 77 85 87 88 88 90 83 78 78 72 73 71 68 63 64 65 61 62 60 58 56 54 50

GFSSE_prec_cthk_060.txt.gz
RH
40 43 43 40 35 29 28 29 31 30 30 31 34 34 34 34 33 32 31 30 26 22 21 23 23 23 22 23 20 19 19 18 17 16 15 13 12 12 13 14 15 16 16
41 48 47 43 43 37 33 33 35 33 33 31 31 32 32 32 32 30 28 24 22 20 20 22 26 25 25 19 19 15 13 12 13 12 13 13 13 13 13 14 14 14 14
45 47 47 46 46 42 37 37 36 35 34 35 31 30 30 29 27 25 21 18 17 18 20 21 36 29 29 25 21 17 13 13 14 14 15 15 14 14 14 14 14 14 15
44 46 46 45 45 43 40 40 40 41 37 36 32 30 28 27 25 22 19 17 18 22 21 22 32 41 36 26 26 21 13 15 16 16 17 17 17 17 16 17 22 26 28
44 44 46 44 44 44 40 39 39 41 41 38 35 31 28 26 24 20 19 20 28 26 22 29 42 43 34 29 26 19 14 16 17 18 19 21 25 32 31 32 34 33 32
41 43 46 46 43 44 40 39 41 42 41 39 39 32 28 28 24 23 22 22 30 28 32 39 41 36 38 36 31 24 27 31 33 33 34 35 36 38 39 40 39 43 46
43 41 43 44 42 42 42 39 41 41 40 40 37 33 30 27 26 25 26 25 29 29 33 37 35 35 37 34 25 26 31 33 33 34 34 36 40 42 41 40 37 38 38
41 42 42 43 40 39 40 42 42 38 36 40 33 32 32 30 28 26 27 28 30 32 33 35 35 35 33 26 27 30 34 35 36 35 35 37 41 40 38 36 36 35 34
39 40 42 40 38 38 37 39 39 36 33 35 32 33 33 32 31 29 27 28 31 33 34 35 35 32 29 31 32 33 37 38 39 40 39 40 42 38 36 35 39 38 35
36 38 42 41 39 37 37 38 38 37 34 34 33 33 33 34 34 33 32 30 31 32 33 33 34 36 38 38 38 39 40 41 42 43 43 41 41 39 37 36 35 36 33
35 37 40 42 40 38 38 39 40 38 35 36 35 34 35 36 36 34 35 35 34 34 34 36 38 39 40 41 42 43 44 46 46 46 44 44 42 40 39 36 35 33 31
34 37 41 42 45 46 44 43 43 41 37 39 38 36 38 39 41 38 37 37 39 38 37 38 41 43 44 45 46 48 50 49 48 47 45 43 42 42 38 35 33 31 28
34 35 36 42 46 49 52 51 45 42 39 39 41 41 39 42 45 46 43 40 41 42 42 41 42 43 45 46 48 48 49 50 48 45 42 43 42 43 36 33 31 30 29
33 34 35 38 42 49 53 50 45 41 40 43 42 42 40 43 46 49 48 44 42 45 45 46 47 48 50 50 49 49 48 47 43 42 40 37 35 37 35 33 32 31 29
31 33 34 37 38 43 47 46 45 42 44 46 42 42 41 42 45 46 49 49 47 47 48 49 50 52 54 54 54 52 48 41 38 38 39 37 38 37 36 34 33 32 30
33 32 34 34 35 40 42 39 41 43 45 44 42 40 38 38 40 42 47 50 48 47 50 52 52 54 56 57 56 53 48 40 37 36 37 40 44 40 37 38 36 34 34
38 35 33 33 37 39 40 41 44 43 44 42 42 41 38 38 39 40 45 49 49 49 53 53 53 56 57 55 55 53 49 42 41 38 37 35 34 36 39 42 42 41 40
35 36 37 37 37 39 40 42 45 44 45 43 42 46 45 44 43 41 45 50 52 54 55 57 57 58 57 56 55 58 51 46 45 45 43 43 43 46 46 44 45 46 45
28 31 36 39 37 39 42 42 46 49 51 51 51 51 50 49 48 43 47 52 55 54 57 58 57 59 59 61 61 59 51 48 49 51 52 51 48 49 50 51 51 50 50
27 28 30 32 33 32 35 42 48 54 55 56 63 59 58 52 52 50 51 55 56 55 56 58 59 60 62 63 63 61 53 54 55 55 53 52 52 53 51 52 53 50 47
25 26 29 30 31 32 33 31 37 44 49 55 58 60 60 60 58 59 59 62 62 61 59 61 62 64 65 65 65 63 56 57 58 57 56 56 56 55 54 54 52 52 49
20 21 24 28 30 32 32 31 31 34 42 50 57 63 64 67 69 67 67 73 74 70 65 65 66 69 68 68 69 70 62 60 61 61 62 61 61 61 58 55 55 52 50
20 22 23 23 24 27 30 31 32 34 35 40 44 48 49 68 70 78 76 76 77 75 73 73 75 81 83 84 83 79 68 66 65 64 63 64 62 61 58 56 53 51 51
20 23 24 24 22 22 23 27 30 32 33 34 37 41 48 54 55 63 71 77 77 76 76 76 80 85 90 92 92 90 78 72 70 66 62 62 64 61 61 59 56 55 54
17 17 19 24 26 26 24 24 27 30 33 35 37 40 44 51 63 69 64 67 71 74 76 78 83 85 87 92 92 93 88 80 74 66 62 65 65 59 57 61 60 57 55
17 17 18 18 20 23 26 27 27 27 28 29 30 31 36 41 44 52 61 68 69 72 70 75 80 85 89 92 92 89 87 84 78 69 61 65 64 67 65 64 59 57 58

GFSSE_prec_cthk_063.txt.gz
RH
36 38 40 39 35 32 29 30 28 30 31 32 32 34 34 32 31 32 32 30 28 25 21 24 22 21 21 21 20 19 19 18 17 16 15 13 12 12 13 14 15 15 15
36 42 45 43 39 37 34 31 33 34 34 32 31 33 33 32 31 29 28 26 23 21 22 27 24 23 22 20 18 14 13 13 13 12 11 12 13 12 13 14 15 14 13
41 43 46 45 43 42 40 38 40 35 33 34 33 33 32 31 30 28 24 21 18 18 20 38 36 29 24 21 19 13 12 12 13 13 14 14 14 14 14 15 15 16 19
42 43 45 44 42 41 42 39 37 38 38 35 34 32 32 30 28 25 22 20 19 23 21 37 43 40 29 23 21 14 13 14 15 16 18 17 17 18 20 24 28 28 28
43 43 45 45 43 42 42 37 36 38 39 38 34 30 28 28 26 24 21 21 23 26 26 39 46 46 32 26 21 14 14 16 17 18 20 24 28 32 35 39 38 36 37
44 44 45 43 44 44 43 39 37 38 37 37 36 33 28 26 24 23 23 32 28 24 31 37 40 41 36 33 30 24 28 31 31 32 33 36 39 44 48 42 40 47 47
44 43 44 42 43 43 42 39 40 40 37 37 35 30 29 26 24 25 25 33 32 31 34 38 38 32 33 32 24 25 30 30 32 32 34 38 40 40 40 38 36 38 39
45 43 44 44 42 43 42 43 43 42 39 39 35 33 31 28 26 24 24 26 31 34 37 38 36 35 33 29 26 29 32 33 34 34 35 38 41 38 37 34 36 36 35
44 43 44 41 40 39 40 43 44 45 40 40 38 34 32 30 30 28 26 27 30 33 36 38 37 37 33 31 31 32 34 35 36 38 38 38 39 37 35 37 38 37 36
38 42 42 42 39 39 37 38 41 41 39 40 41 35 34 32 32 31 30 30 30 31 32 34 33 32 33 36 38 40 40 41 42 42 42 40 39 37 37 36 36 34 34
34 36 40 43 41 39 38 38 39 39 40 36 41 36 35 34 34 32 32 32 33 33 32 33 34 37 38 39 40 42 44 46 46 46 44 44 41 41 39 36 35 32 31
38 37 39 41 41 40 39 38 39 41 41 41 38 38 37 36 36 36 35 35 35 35 37 36 37 38 40 41 43 45 47 48 48 46 44 42 42 41 37 34 33 31 31
38 39 38 42 44 46 47 44 43 45 46 41 39 38 39 39 39 40 39 39 39 39 38 40 42 42 43 43 43 44 45 45 45 43 41 41 41 40 33 31 30 30 30
35 38 38 39 42 47 51 50 49 48 47 43 39 39 41 40 40 42 42 41 40 42 42 41 42 45 47 47 46 48 48 46 42 37 37 36 37 39 34 33 32 31 31
36 33 33 37 38 40 45 50 52 51 47 44 39 40 42 42 41 42 44 45 42 44 44 44 45 46 47 48 50 51 50 47 40 35 33 32 32 35 37 37 36 34 34
40 34 35 35 36 39 39 43 48 52 50 47 43 43 42 41 41 41 42 46 44 45 45 45 48 49 48 49 51 51 50 46 43 38 36 35 35 35 35 36 37 38 38
36 37 33 36 36 36 35 39 42 43 44 44 44 45 43 42 40 38 40 44 47 47 46 49 51 51 51 53 53 51 50 47 43 41 40 38 38 37 38 38 41 43 43
32 32 34 36 38 35 32 38 44 47 47 44 46 46 43 43 46 43 41 45 48 49 48 52 53 55 54 54 53 52 54 51 43 42 43 43 43 45 45 43 45 46 48
30 30 30 34 36 35 35 40 41 44 47 49 49 48 47 47 50 50 48 48 50 51 52 54 55 55 56 56 56 56 57 52 45 45 46 47 46 46 46 48 49 48 49
26 25 25 27 31 35 37 42 45 42 44 47 47 48 54 57 58 59 57 52 53 54 55 56 59 59 59 59 60 62 60 54 48 49 52 51 48 47 49 51 50 50 50
23 24 23 24 26 30 34 34 34 35 38 43 47 56 59 62 66 67 68 60 56 59 61 62 64 65 64 64 64 67 65 58 53 53 55 53 52 52 53 53 53 53 51
19 21 22 23 24 26 30 32 32 32 35 39 45 53 54 61 67 70 71 70 66 66 69 70 72 73 71 71 71 74 70 69 67 64 60 57 57 55 54 56 55 53 52
17 17 19 20 21 22 25 29 31 33 35 34 31 36 45 53 61 69 70 77 75 74 74 76 76 78 76 78 80 81 80 78 77 74 70 63 62 59 53 55 58 55 55
18 18 18 20 21 22 23 23 25 28 32 33 34 34 38 45 51 56 60 66 77 78 80 80 80 80 81 84 87 87 89 84 81 80 76 73 69 64 60 58 61 58 56
19 18 18 20 24 26 27 25 23 24 26 28 31 34 36 38 41 47 50 60 65 68 76 79 79 78 81 84 87 90 90 88 86 84 83 81 80 68 65 61 61 62 64
19 18 18 19 19 22 25 27 27 27 27 27 29 30 33 36 39 45 52 60 65 73 74 69 73 79 82 85 87 88 89 92 93 88 83 80 79 75 69 64 63 71 70

GFSSE_prec_cthk_066.txt.gz
RH
33 34 35 35 34 33 31 31 31 31 31 32 33 33 33 34 32 32 30 28 27 24 21 22 20 20 20 21 21 21 20 19 19 18 15 13 11 11 12 14 17 20 23
35 38 39 40 38 35 31 31 33 33 32 31 33 31 33 33 32 30 28 27 24 22 26 25 21 21 20 20 17 15 14 15 15 13 11 11 11 12 13 14 14 14 16
42 44 43 43 39 38 38 36 35 35 37 35 35 33 33 32 31 28 26 23 21 20 32 38 34 27 21 18 16 11 11 12 12 12 13 17 13 13 14 15 15 18 22
48 48 45 44 41 44 43 39 37 38 36 35 34 34 33 32 30 26 24 21 19 22 34 44 42 34 24 21 18 11 12 13 14 15 21 21 21 19 22 25 28 28 29
49 47 47 44 43 43 42 39 36 34 34 36 35 32 29 29 28 25 22 20 22 24 33 47 48 42 31 25 20 14 15 15 16 20 25 29 34 35 43 40 39 42 43
49 48 46 43 43 42 42 41 38 34 34 34 34 28 26 28 26 22 21 26 26 24 37 47 46 44 36 31 27 25 28 29 30 34 36 37 41 48 47 37 45 47 46
50 49 47 45 43 43 43 41 40 37 35 34 32 29 26 25 22 23 25 31 28 33 37 39 39 37 32 31 24 26 29 29 34 35 39 41 42 41 38 37 35 37 37
53 50 47 45 45 44 44 43 43 41 37 37 35 32 27 26 24 23 26 33 33 36 39 41 40 34 33 31 26 31 33 33 36 38 39 42 39 38 36 34 34 35 35
49 50 49 46 44 45 46 45 45 44 41 38 38 34 31 28 28 26 24 27 32 36 38 39 39 38 37 31 31 34 35 36 40 41 43 46 38 36 38 38 36 35 35
46 52 52 49 45 45 45 44 45 46 45 41 40 39 33 30 29 28 29 30 31 34 36 37 36 35 32 33 34 37 38 40 44 45 46 44 39 39 39 37 36 33 33
39 48 51 51 48 45 45 45 45 45 43 45 43 41 37 33 31 31 31 31 32 35 35 35 33 33 36 37 38 39 41 46 47 47 47 41 40 40 38 34 32 30 30
39 38 44 48 47 45 44 45 46 45 45 46 45 41 45 40 38 36 32 33 34 35 35 35 35 35 36 38 38 40 44 46 47 46 45 41 40 38 34 31 29 29 28
40 38 36 39 46 46 46 44 46 47 46 47 50 49 45 44 37 35 35 36 36 36 36 36 37 39 42 43 41 43 43 44 43 41 38 38 39 36 33 29 28 28 28
33 36 39 39 42 47 51 48 49 46 45 48 52 49 45 44 44 43 41 39 39 38 42 44 45 44 42 43 45 46 46 46 45 40 36 32 34 35 34 31 32 32 31
33 33 38 39 40 46 52 52 52 50 46 45 46 46 42 43 46 46 45 41 40 42 43 45 47 45 47 46 46 47 48 47 44 39 37 33 33 34 34 33 33 35 36
37 35 37 34 35 39 44 45 47 51 51 49 48 46 40 42 45 46 46 44 41 39 42 46 49 46 48 49 47 49 50 47 43 38 39 38 36 36 35 34 34 34 34
39 40 41 41 39 38 39 40 41 45 51 52 54 51 44 42 44 45 45 44 42 42 42 45 47 47 50 51 51 52 51 48 43 40 38 43 38 37 36 38 41 41 41
35 37 39 37 37 39 38 37 37 38 43 46 51 54 50 47 46 43 42 45 45 45 45 45 45 47 51 53 53 53 52 50 49 44 40 38 38 42 41 42 42 42 43
32 32 34 36 32 32 36 38 38 35 37 41 47 50 51 51 50 48 45 45 47 48 49 48 48 49 53 55 54 54 54 53 55 46 44 43 41 43 45 43 42 44 46
30 31 30 30 29 30 34 36 34 33 34 39 43 47 50 52 54 51 51 52 54 54 53 53 52 51 55 58 60 58 58 58 56 52 49 50 50 48 47 45 45 47 48
23 24 26 26 26 29 29 31 35 32 30 32 37 46 46 50 52 57 60 62 63 63 63 60 60 58 59 65 67 65 63 62 61 58 54 55 57 56 53 51 51 50 50
20 23 25 26 25 24 30 26 28 32 33 32 35 41 45 46 54 56 64 65 65 69 71 67 67 67 67 72 75 73 68 66 67 66 63 62 63 65 62 58 55 53 50
15 17 19 20 22 23 24 29 31 32 32 32 32 33 40 43 49 54 60 67 69 72 71 71 74 74 74 77 80 81 77 71 72 74 73 71 70 72 73 68 61 60 58
15 15 15 16 17 18 20 25 29 28 29 29 32 34 36 40 42 45 52 57 62 67 71 75 79 81 82 80 84 83 80 77 77 76 75 74 74 74 75 75 74 70 66
17 17 18 18 19 20 21 23 28 31 31 28 30 33 35 37 40 43 45 55 57 60 60 61 70 80 81 84 84 84 83 84 84 85 80 79 78 79 80 79 79 74 71
19 18 18 18 18 20 22 24 27 34 36 36 34 31 30 32 36 39 44 48 55 58 59 61 64 71 76 82 84 82 84 85 83 85 86 80 84 81 80 80 80 79 78

GFSSE_prec_cthk_069.txt.gz
RH
34 30 31 33 33 32 31 32 34 32 33 33 36 33 31 31 30 28 27 27 27 24 21 20 19 19 18 20 22 23 22 21 19 17 15 12 10 11 12 13 19 20 25
35 31 34 37 36 35 32 34 35 34 34 34 33 33 31 31 30 30 28 28 27 21 28 24 19 19 18 17 16 15 14 15 14 13 11 10 11 11 12 13 14 14 20
37 37 35 40 39 40 38 40 38 38 37 34 34 34 33 32 31 30 29 26 23 24 41 37 29 21 18 17 12 10 10 11 12 13 17 18 13 14 15 15 16 19 22
43 43 40 41 40 42 44 39 35 36 36 35 35 34 33 33 32 30 24 22 20 25 46 45 38 30 22 20 13 11 12 13 15 21 28 26 23 22 23 26 28 30 31
51 46 45 41 41 43 42 42 38 34 33 33 34 33 32 33 30 25 22 19 20 22 41 48 44 35 30 24 16 16 16 17 22 28 32 35 39 44 43 39 42 44 42
54 54 45 41 45 44 43 41 40 33 32 32 32 32 28 28 26 22 21 21 25 23 39 46 42 38 34 28 23 25 27 30 35 42 40 42 46 48 45 38 47 44 41
54 52 47 45 46 46 42 43 41 37 34 33 32 28 23 23 21 21 25 25 26 31 39 39 38 35 29 28 22 27 27 31 38 41 41 41 42 41 39 37 35 35 36
55 53 48 45 45 48 44 45 47 40 37 35 34 28 25 23 22 21 27 27 31 32 37 37 37 35 31 29 24 30 31 33 41 42 43 42 38 38 38 32 32 33 34
57 52 51 47 45 49 49 45 48 44 40 37 36 34 26 25 25 24 26 31 32 31 33 35 36 34 34 30 30 33 34 36 42 42 44 41 35 36 36 34 31 31 32
55 56 54 51 47 47 46 46 45 44 44 41 38 37 30 26 26 26 26 28 33 34 35 36 35 34 33 30 31 34 36 38 46 44 46 41 37 38 36 33 30 28 28
50 54 53 52 50 53 54 46 45 45 45 45 42 39 33 29 29 28 29 30 34 33 35 34 33 32 31 34 36 39 40 47 49 49 47 39 37 37 34 30 26 25 26
41 49 53 54 53 52 53 50 46 46 46 45 45 41 40 39 36 34 32 31 31 34 35 34 33 32 34 35 35 36 39 46 47 45 42 37 36 35 34 29 26 24 25
42 42 45 51 52 51 50 49 46 52 45 45 46 43 44 44 42 37 33 32 32 34 34 33 34 35 39 44 42 42 45 49 47 44 39 34 33 32 31 29 27 26 27
40 42 40 44 47 51 51 44 47 48 47 47 48 47 47 47 45 40 40 35 37 35 39 38 41 43 44 44 44 44 46 48 47 46 40 35 33 30 30 29 28 29 29
39 39 40 42 42 47 49 50 51 49 49 47 47 46 47 48 47 44 41 42 42 40 41 41 43 47 47 46 45 45 46 47 46 45 38 35 34 32 32 32 30 30 30
41 42 39 39 41 43 49 52 52 49 49 50 49 49 47 46 47 48 47 45 45 43 41 40 42 43 46 47 45 47 46 46 46 44 38 36 35 34 33 33 31 31 32
41 42 41 41 39 38 41 45 47 45 45 47 49 51 51 49 51 51 49 46 47 46 44 41 41 42 45 45 45 47 49 48 47 45 40 41 41 36 35 35 35 36 38
45 47 46 43 40 38 40 44 43 42 40 41 42 47 50 52 56 58 54 50 49 48 45 45 43 44 45 45 45 49 51 49 47 46 44 44 45 43 41 38 39 40 39
35 39 43 42 38 33 34 38 42 40 39 38 40 43 45 50 53 54 55 54 53 51 48 46 48 48 49 46 47 50 54 52 51 50 49 44 45 48 47 47 44 43 41
32 32 31 33 38 38 37 33 34 37 40 40 40 39 40 43 49 53 58 58 57 56 52 52 53 54 54 52 52 51 55 56 57 54 55 49 49 49 48 53 53 50 47
24 27 29 29 30 35 39 33 32 33 40 40 41 39 40 41 45 50 55 59 59 59 58 60 64 65 66 63 59 57 60 62 63 63 61 57 54 54 54 56 57 58 56
17 19 23 28 30 31 33 34 30 30 31 34 34 35 36 37 39 41 49 55 58 61 64 65 71 70 72 71 67 68 67 67 69 72 71 67 64 63 61 61 60 62 64
16 16 17 20 24 27 29 32 32 33 34 30 28 29 32 37 40 39 42 49 59 64 67 70 72 74 74 74 75 75 76 74 74 75 78 77 72 72 71 69 67 67 68
16 16 15 16 17 20 23 26 29 31 31 31 31 30 32 35 38 47 52 50 54 63 66 69 73 73 77 75 79 79 80 80 80 79 80 78 80 77 76 73 74 71 73
17 16 16 16 16 17 17 18 21 25 31 33 32 33 34 37 36 40 52 58 58 60 64 69 73 76 74 77 75 78 87 88 86 84 81 83 81 82 80 80 78 77 79
20 19 18 18 18 18 20 21 22 25 30 34 35 35 37 38 38 37 41 46 50 55 61 59 68 78 78 78 75 77 80 86 87 89 93 89 88 87 89 84 85 82 79

GFSSE_prec_cthk_072.txt.gz
RH
37 27 28 30 30 28 29 31 32 32 34 33 33 31 29 29 29 27 26 26 25 18 20 19 18 18 17 19 20 21 22 21 18 16 13 10 10 11 13 16 17 24 28
34 28 31 35 35 33 32 31 31 32 32 33 33 32 31 30 29 27 27 28 23 23 25 20 18 17 16 16 15 14 14 14 13 13 11 10 11 12 13 15 14 19 22
33 29 32 37 39 38 38 36 36 37 37 36 35 34 32 31 30 29 26 25 22 40 37 31 22 18 16 12 10 10 10 12 15 17 16 16 15 16 16 17 18 21 22
34 32 34 39 41 41 41 39 36 37 38 34 34 34 32 30 30 28 23 20 21 38 46 40 32 24 20 14 11 12 12 16 20 23 24 23 26 25 26 30 34 35 36
38 35 38 40 43 41 41 38 36 35 34 33 32 32 31 30 27 24 20 18 18 33 44 43 38 30 25 18 16 16 18 22 25 26 33 38 44 45 40 43 44 42 38
44 44 40 40 42 43 42 40 42 35 31 30 30 30 28 26 24 20 19 19 18 31 41 40 38 31 28 23 22 25 29 33 36 38 38 43 45 46 40 41 40 39 36
46 46 43 40 44 44 43 43 41 38 33 31 30 22 21 22 18 19 22 23 25 31 37 38 36 32 27 23 23 24 28 32 38 38 38 40 43 41 39 35 32 30 32
50 51 45 44 47 46 44 44 43 40 36 33 30 22 20 20 19 22 24 26 27 33 34 35 34 34 30 27 26 28 31 34 39 39 40 38 36 37 34 31 30 30 31
53 53 48 45 47 49 45 46 43 42 39 36 32 26 23 21 21 22 26 29 28 30 33 33 33 32 31 27 28 31 33 36 41 40 42 38 35 37 34 32 30 29 29
55 55 49 46 45 49 49 45 44 44 42 39 36 32 26 24 24 23 24 28 31 30 31 32 33 31 30 27 29 32 34 39 39 42 42 38 34 35 32 31 28 26 25
53 54 53 51 45 47 44 45 45 44 44 43 39 37 30 26 26 25 26 28 33 31 29 32 32 30 28 29 31 33 36 40 46 46 40 39 33 33 33 29 26 24 23
49 53 51 48 44 42 43 44 44 44 44 44 44 40 33 31 30 29 28 27 29 31 32 33 32 30 30 32 33 33 37 40 44 40 39 35 31 30 29 27 25 24 24
44 46 49 49 50 49 47 46 43 40 43 43 44 42 39 39 38 36 34 29 29 29 32 33 32 32 34 36 37 37 42 44 44 42 41 36 32 30 27 26 25 25 26
40 40 44 46 48 49 49 46 42 42 44 45 45 44 41 42 41 38 36 34 31 30 32 32 33 33 35 40 41 41 43 45 44 41 42 38 33 31 30 28 27 26 27
39 38 41 43 44 43 45 43 42 46 45 44 44 44 45 45 42 41 38 39 37 34 34 35 36 38 39 39 41 43 44 44 45 41 40 38 33 31 32 31 30 28 28
40 36 39 41 39 43 44 40 44 48 48 48 46 45 46 45 44 45 44 44 43 43 40 40 38 39 39 39 41 42 43 43 45 44 41 40 35 34 35 33 33 30 31
42 42 37 38 38 39 39 46 49 49 46 47 45 46 45 44 42 43 44 44 48 50 46 45 43 41 41 40 41 42 42 43 47 46 42 40 38 38 37 37 38 37 36
41 42 39 36 38 38 39 42 46 42 42 42 43 42 41 41 42 46 46 46 50 52 52 51 48 46 43 43 44 43 43 44 46 48 45 41 41 40 39 40 41 40 42
43 48 49 42 38 38 41 43 45 47 46 43 40 36 35 35 39 43 45 48 51 53 55 55 54 53 49 46 47 47 48 48 49 50 51 49 44 43 43 45 44 43 48
33 37 45 52 52 44 42 40 40 39 39 42 40 38 38 37 38 38 39 43 48 49 51 55 57 57 57 55 54 56 57 55 55 55 54 56 55 50 47 48 48 49 51
28 31 35 37 42 46 42 37 36 36 40 41 41 41 40 41 38 39 39 41 43 47 50 57 58 58 60 65 66 66 66 68 66 63 64 63 64 63 56 55 55 55 57
24 24 27 32 32 31 36 39 37 37 36 38 42 38 38 39 43 43 42 42 44 51 55 53 57 62 64 69 69 74 72 72 71 73 75 73 73 73 71 66 63 62 62
23 21 20 21 24 27 30 35 35 35 34 33 32 32 36 40 40 42 46 49 51 55 52 54 60 67 72 74 75 75 76 75 76 77 79 81 81 79 80 78 72 70 70
21 19 18 17 16 16 20 23 28 28 30 28 27 29 30 29 31 40 47 48 53 53 56 64 68 66 71 76 83 83 82 80 79 77 77 80 85 83 83 84 82 79 75
20 19 18 18 18 18 18 18 19 22 27 34 33 30 29 27 26 28 36 48 49 55 56 60 68 68 69 76 75 80 85 88 89 87 84 81 84 88 87 87 89 87 83
23 20 19 19 18 17 18 19 20 20 21 26 32 35 33 33 35 37 38 39 43 51 55 60 62 68 68 70 71 73 79 87 92 90 88 88 90 90 92 90 90 91 88

GFSSE_prec_cthk_075.txt.gz
RH
44 31 28 29 28 26 29 31 32 31 32 31 31 30 28 27 26 26 25 24 18 19 16 15 16 15 15 17 19 20 21 21 17 14 11 10 10 11 13 17 22 26 28
39 33 28 30 32 31 30 30 30 30 30 31 31 31 29 29 27 26 28 26 25 27 20 17 16 15 14 14 15 15 14 13 13 11 10 10 11 12 13 13 19 20 22
34 29 31 33 36 36 34 32 30 31 34 34 34 32 30 28 28 27 25 24 35 36 29 21 18 16 12 10 11 11 13 16 16 15 17 16 16 16 17 18 20 23 24
37 31 33 37 38 39 37 32 30 31 33 33 32 31 30 29 28 26 23 21 34 38 35 30 26 20 14 12 12 14 19 21 20 19 21 27 27 29 33 38 39 38 36
39 32 34 39 40 40 39 37 33 29 30 30 30 31 30 29 25 21 18 17 30 36 35 34 28 25 16 15 16 20 23 24 26 30 37 41 43 44 43 43 40 37 42
38 34 37 41 41 41 39 38 36 33 29 29 29 29 29 26 22 18 17 17 27 35 33 34 31 27 21 20 22 28 30 30 32 34 38 42 44 43 37 37 37 35 35
41 36 38 44 43 42 41 40 38 35 33 29 25 20 20 20 17 16 17 17 26 34 35 35 32 26 22 22 24 28 30 31 37 36 37 38 39 38 34 31 28 27 29
44 41 39 42 44 42 42 42 40 36 34 32 21 20 19 18 18 18 19 19 25 29 32 31 30 28 26 25 27 31 33 33 33 34 33 35 33 31 29 27 26 26 27
48 47 41 41 44 44 43 44 41 40 37 33 25 22 21 20 20 22 24 25 27 29 29 29 30 27 26 24 28 31 32 34 34 35 34 33 31 31 29 27 26 24 24
56 54 49 46 46 46 46 44 43 42 39 37 32 28 23 22 21 23 27 27 27 29 30 29 28 27 27 27 30 31 33 35 37 37 37 36 33 32 31 28 25 23 22
57 54 51 46 48 47 47 45 44 43 43 42 39 29 27 25 24 25 25 27 28 28 30 29 28 28 27 28 29 30 33 35 35 35 36 33 30 28 28 25 23 21 21
55 54 48 47 46 45 44 43 43 42 43 43 40 33 31 28 29 28 29 32 28 27 28 29 30 29 29 31 31 32 35 37 37 38 37 36 32 29 27 24 22 21 22
51 52 52 48 45 43 42 40 41 41 41 41 41 39 38 35 35 34 32 31 33 31 29 30 30 29 30 32 33 34 37 39 39 40 38 38 34 30 27 26 25 23 23
49 48 48 49 47 45 42 41 41 39 38 40 40 42 40 39 40 40 36 35 35 35 35 33 31 30 31 33 33 35 39 41 42 43 41 38 36 31 28 28 28 27 25
54 48 45 43 41 43 44 45 44 40 40 40 40 42 42 40 41 40 39 39 39 38 39 38 35 32 33 34 35 35 37 40 42 42 44 42 38 35 31 30 31 29 28
47 49 46 44 42 41 39 38 36 36 39 41 41 43 44 42 42 41 40 39 42 41 41 45 47 43 41 40 38 38 38 39 41 41 43 45 42 38 35 34 33 32 33
40 44 48 48 45 41 40 39 38 37 38 43 44 42 44 43 43 43 41 40 43 44 43 44 47 50 50 47 45 42 42 43 43 42 43 46 44 41 39 37 36 35 36
39 38 42 46 48 45 42 39 36 38 41 43 40 40 41 42 42 40 38 38 43 45 45 45 46 49 52 52 51 50 46 45 47 47 44 46 47 46 43 40 39 39 40
40 40 40 41 40 42 43 42 42 40 42 41 43 40 38 38 37 35 36 37 39 43 44 45 44 46 50 54 56 55 53 50 50 52 53 52 49 51 51 48 45 44 43
35 38 43 44 46 48 51 49 47 44 41 39 36 38 38 40 39 38 39 39 39 40 42 43 45 47 49 54 57 58 57 57 59 61 63 65 60 58 58 57 55 55 50
31 36 36 41 42 47 50 54 53 49 46 41 38 40 43 40 40 40 40 41 43 43 44 46 48 52 54 58 60 60 60 59 61 66 71 73 74 72 70 68 68 66 65
28 28 32 36 38 39 40 44 47 45 45 44 44 42 44 41 41 42 42 40 44 46 50 49 53 57 59 64 72 75 71 69 66 68 72 77 79 77 79 81 79 78 76
30 29 28 29 33 36 35 34 35 38 38 40 40 41 42 47 47 49 47 44 45 48 49 54 58 63 70 74 74 81 80 74 76 76 77 77 80 82 82 84 86 86 86
33 33 30 27 25 25 27 28 27 26 28 28 31 35 37 39 41 43 49 48 47 44 43 49 55 67 65 72 78 79 77 78 80 81 84 85 89 90 89 87 85 85 90
30 30 27 24 22 20 19 21 21 21 21 25 27 27 27 28 30 33 34 34 34 38 43 48 52 53 59 61 64 74 78 81 84 87 88 87 90 93 95 95 92 90 90
25 23 25 23 21 20 20 20 20 22 22 22 24 28 30 32 30 28 28 32 38 41 43 45 47 49 52 57 60 63 72 80 83 87 85 87 94 94 93 95 95 95 89

GFSSE_prec_cthk_078.txt.gz
RH
39 33 31 31 28 28 30 32 34 36 35 33 30 29 27 24 24 24 22 19 20 15 15 15 16 15 16 17 19 19 20 19 16 12 10 10 11 12 17 22 25 24 22
36 34 29 30 29 30 31 32 33 32 32 31 29 28 27 28 26 29 28 26 27 19 18 17 16 15 14 15 16 17 16 13 12 10 10 11 12 12 13 18 18 19 19
37 34 29 30 32 36 35 32 31 32 33 32 30 29 28 27 27 27 29 34 34 27 19 19 16 12 11 11 12 13 13 13 14 14 15 16 16 17 17 20 25 27 26
38 32 29 31 36 39 38 32 29 31 32 30 29 28 27 26 25 24 23 35 35 33 28 23 16 12 12 13 15 16 16 16 18 21 24 26 30 36 38 40 38 35 35
35 32 31 34 38 40 40 36 32 28 28 27 27 26 27 25 22 19 19 29 34 34 30 25 22 15 15 17 20 22 22 24 29 34 37 38 46 43 42 37 34 37 42
39 34 35 37 40 41 41 41 36 32 28 27 27 27 25 23 19 16 16 24 33 32 30 27 23 17 18 20 24 25 25 26 28 33 37 39 41 35 34 33 31 30 33
41 36 39 40 43 44 42 41 39 35 32 27 23 21 17 16 16 15 16 20 29 30 29 28 26 21 21 23 26 26 28 28 31 33 35 36 37 35 31 28 24 25 27
39 36 40 43 46 45 44 42 39 37 34 27 22 19 17 16 16 16 16 20 26 28 28 26 25 24 23 24 27 29 30 30 30 32 31 33 31 28 25 24 23 23 25
43 37 41 45 47 47 45 44 40 38 33 28 25 23 20 18 19 19 18 20 26 27 28 26 26 25 23 25 28 30 31 32 33 34 33 32 31 29 28 26 24 22 22
51 41 40 46 48 47 47 45 42 40 36 30 27 25 23 22 22 22 22 24 28 29 29 27 26 25 24 25 26 27 28 30 31 31 31 29 28 26 26 23 21 20 20
57 51 46 42 49 48 48 45 44 42 39 35 31 28 26 26 26 26 26 31 33 31 32 29 28 27 26 26 28 28 29 31 32 33 34 33 31 28 26 23 21 20 20
58 60 57 52 50 48 48 46 44 43 41 38 35 33 30 30 30 29 28 30 33 34 34 31 29 28 27 28 28 29 31 34 35 35 37 36 34 31 28 25 23 22 21
60 60 54 54 50 47 46 45 43 40 39 39 38 37 35 34 33 31 31 32 32 31 33 34 35 31 28 30 30 31 33 35 38 39 40 39 35 32 29 27 26 26 24
60 58 58 54 51 49 47 44 42 39 39 39 39 38 38 38 38 35 35 34 36 38 38 39 39 39 37 34 33 33 34 36 37 39 41 41 40 36 33 29 28 28 27
56 52 51 50 48 49 48 47 43 40 38 38 39 39 41 40 39 39 39 38 37 37 40 39 39 41 43 46 41 39 37 38 38 38 41 42 43 42 38 34 32 31 30
62 55 51 48 44 43 42 42 42 42 40 41 41 39 39 40 41 41 41 39 39 39 38 40 40 41 42 45 47 46 43 42 40 41 41 43 44 45 43 39 36 35 34
61 61 55 49 44 41 40 39 38 38 34 35 38 41 46 44 42 41 42 41 38 38 39 41 43 42 45 45 47 50 49 47 46 43 44 45 46 45 46 45 41 39 37
46 48 54 52 46 41 39 39 39 38 35 36 38 42 41 39 38 39 38 37 36 37 40 43 45 46 45 45 46 48 51 52 52 51 50 48 52 52 49 49 48 45 43
37 43 46 50 49 47 46 46 43 41 39 38 37 38 38 39 38 34 34 34 34 35 37 38 39 41 41 42 44 47 49 51 53 54 53 56 57 61 62 58 54 52 52
34 36 44 46 47 51 52 49 48 45 43 42 41 43 40 37 37 35 37 38 38 37 38 40 42 45 45 47 50 52 53 54 55 54 55 56 61 67 73 75 71 66 60
33 35 36 40 44 49 48 50 52 51 51 49 46 43 43 40 39 41 40 39 40 40 40 41 45 48 50 52 57 58 61 65 66 69 68 66 65 69 76 82 83 83 81
31 31 32 34 37 41 48 51 54 51 54 58 54 48 44 43 43 43 42 46 51 52 49 46 47 50 51 57 59 66 72 73 72 75 78 77 77 78 79 83 87 88 88
34 32 31 32 32 32 35 42 44 46 46 47 47 44 42 44 45 48 51 52 51 51 50 53 51 48 47 55 67 76 76 71 71 74 77 78 82 85 87 90 91 91 92
38 35 34 33 32 32 32 31 34 37 38 39 41 44 49 46 42 38 41 46 48 51 52 47 48 44 50 52 60 68 68 64 66 67 73 76 82 87 92 94 95 96 96
41 37 34 34 33 30 28 29 28 27 27 27 27 27 28 31 33 34 36 39 42 40 35 34 37 45 56 55 56 60 62 64 64 67 66 70 79 86 90 91 94 96 97
40 36 35 34 30 29 28 28 27 27 24 24 24 23 22 23 26 30 32 34 32 29 33 37 45 52 51 60 55 59 62 65 60 69 64 67 71 77 83 84 91 93 96

GFSSE_prec_cthk_081.txt.gz
RH
41 39 34 33 30 30 31 34 34 34 34 31 27 25 25 22 21 20 19 17 15 16 16 16 16 18 19 19 19 19 19 19 16 12 10 10 12 18 24 26 23 21 19
37 36 31 30 28 29 30 31 32 33 32 29 28 27 26 24 25 25 26 23 18 17 17 16 15 14 14 16 17 17 14 11 10 9 11 12 13 16 19 18 19 20 22
35 34 33 29 30 31 31 32 30 30 32 30 29 28 27 26 28 27 31 30 23 18 17 15 13 11 11 11 10 10 10 10 12 13 14 16 17 19 24 30 31 30 31
35 33 29 28 30 33 32 29 29 31 31 31 29 28 26 24 23 23 33 32 29 24 20 14 12 12 12 13 13 14 14 16 20 22 26 32 37 39 42 35 35 35 38
34 32 32 29 32 36 37 33 30 29 29 28 28 25 25 22 20 19 27 32 30 29 22 18 14 14 16 17 19 20 24 26 30 31 32 37 40 39 35 32 32 39 41
35 31 35 31 34 39 39 37 33 30 28 28 26 24 21 20 18 16 21 28 28 27 25 22 16 16 17 19 20 21 23 27 30 32 34 36 34 30 31 29 28 29 35
37 34 38 35 35 40 40 40 39 34 31 29 27 22 18 18 15 15 18 25 26 25 25 24 20 20 21 23 24 26 28 29 30 31 33 34 34 32 28 26 24 24 27
38 36 40 38 39 41 42 41 41 38 36 32 27 20 18 16 16 15 17 24 25 26 26 25 22 21 23 25 27 29 31 31 31 32 32 33 31 28 27 26 25 24 24
45 39 41 40 43 44 44 43 41 40 36 33 30 25 21 19 19 18 18 24 26 27 27 25 23 22 24 26 27 29 29 29 29 29 29 28 27 26 26 25 22 21 21
43 42 41 42 45 46 46 45 43 41 39 32 28 27 25 23 22 21 22 27 29 28 28 26 25 24 25 27 30 30 30 30 31 30 30 29 28 26 25 23 21 20 20
47 44 43 43 45 47 49 48 45 43 38 33 31 29 27 27 26 25 25 29 32 33 32 28 27 26 25 28 30 29 30 31 32 33 33 33 32 29 28 25 23 22 21
50 48 45 45 46 48 51 51 48 45 41 36 34 32 30 30 29 29 28 30 33 34 35 34 34 32 28 28 29 29 30 31 33 35 37 37 37 33 30 28 25 24 24
55 59 54 46 47 51 52 50 48 46 42 39 38 36 35 33 33 34 32 32 33 33 33 34 35 35 35 35 35 32 33 34 35 35 37 39 39 38 35 31 29 27 27
58 61 62 61 57 54 53 51 48 47 44 40 39 40 39 37 35 35 34 34 35 35 34 35 37 36 35 36 39 42 40 40 40 39 39 39 40 40 40 37 33 32 31
66 61 60 60 61 57 54 51 48 46 45 42 39 40 40 40 38 38 37 37 37 37 36 36 36 38 37 37 40 41 43 45 45 45 44 43 43 43 41 41 38 36 34
67 63 61 57 57 59 58 53 50 49 45 41 39 39 40 40 38 37 38 39 40 37 35 34 33 35 36 36 37 40 42 43 46 47 49 48 47 48 47 44 42 40 38
68 66 61 59 54 51 51 49 47 43 41 38 38 38 38 39 42 42 41 41 41 40 38 37 36 36 39 41 43 45 45 44 45 47 50 52 53 54 54 54 52 47 43
71 67 64 61 58 53 50 48 44 41 40 36 37 38 40 41 45 44 42 42 39 37 37 36 37 39 39 41 43 45 45 47 48 48 49 51 54 56 59 63 61 60 56
59 61 66 64 62 59 54 50 47 43 40 39 39 38 38 39 39 38 39 39 36 36 37 38 38 40 41 42 43 45 48 50 52 54 55 56 58 56 55 59 67 72 72
44 47 53 60 59 58 56 52 49 47 45 42 41 41 40 39 40 39 36 35 36 41 39 39 41 43 41 42 44 47 51 52 56 59 64 69 71 71 70 69 70 74 80
42 40 40 43 49 54 54 51 49 48 49 49 45 44 44 42 42 42 38 38 40 40 39 43 49 50 47 47 49 47 48 52 57 68 74 74 76 80 81 81 81 82 85
42 39 37 39 44 46 50 52 54 52 52 52 51 52 55 55 50 47 49 55 48 44 50 55 53 50 48 54 53 52 56 60 65 67 71 70 71 78 82 84 86 88 90
40 38 36 36 36 43 48 50 50 50 49 50 50 48 54 63 63 60 57 50 53 56 54 51 51 55 56 56 56 55 62 57 56 62 63 61 65 67 71 73 78 84 86
43 40 37 36 36 36 34 33 37 44 46 47 50 51 52 55 55 54 56 53 46 45 48 48 52 52 51 46 45 52 62 64 69 62 62 62 60 62 68 71 73 77 83
46 44 40 38 37 36 35 35 33 31 31 33 37 39 41 41 40 39 38 38 36 37 38 38 39 39 38 42 53 76 63 61 62 64 56 62 57 52 62 60 65 68 77
49 47 45 40 38 35 33 32 33 32 31 29 29 29 30 31 29 29 30 30 31 32 33 34 35 34 38 43 48 48 46 51 47 60 51 48 54 50 52 73 63 69 72

GFSSE_prec_cthk_084.txt.gz
RH
42 41 42 35 32 31 32 32 33 32 31 29 26 23 23 19 19 18 16 14 14 14 17 22 25 26 25 22 18 18 18 16 12 10 10 12 19 26 24 22 20 19 19
39 39 37 32 29 31 31 31 31 32 32 30 27 26 23 23 22 25 21 18 17 16 15 15 15 14 14 15 15 14 10 9 9 10 11 12 16 18 20 23 25 27 27
39 39 38 33 30 31 32 31 31 32 31 28 27 25 24 25 24 28 26 19 17 16 15 14 13 12 12 12 11 10 10 12 12 14 17 21 26 33 34 32 32 35 35
38 39 34 33 30 32 30 29 30 29 29 27 27 26 24 24 24 28 28 25 20 17 14 12 12 12 13 14 15 17 20 22 24 27 31 36 41 43 32 30 37 40 39
38 40 37 31 31 34 32 28 27 27 27 27 26 24 22 22 21 28 29 27 24 19 15 13 13 14 15 17 18 21 24 27 28 33 35 36 36 35 31 30 31 35 35
37 37 37 32 34 35 35 32 29 27 27 26 25 21 19 18 18 22 27 26 25 22 18 16 16 17 19 21 22 26 28 29 31 34 35 34 32 30 28 26 26 30 33
36 39 38 37 36 38 38 36 34 30 29 26 25 21 19 18 16 17 25 25 24 23 20 18 18 20 22 24 25 28 28 29 32 34 35 36 34 28 25 24 24 24 28
36 38 40 41 38 40 40 39 39 36 34 33 30 21 19 18 16 16 23 24 24 24 22 21 20 21 23 25 26 27 28 28 29 29 30 30 28 26 26 24 23 22 22
40 37 41 42 40 42 42 42 41 39 37 36 33 28 24 21 19 19 23 25 25 25 23 22 21 22 23 25 27 27 28 28 30 29 29 28 27 26 25 23 21 19 19
43 38 40 42 41 43 46 45 44 41 39 36 32 29 27 25 23 22 24 28 29 29 26 24 23 22 24 26 27 28 29 30 31 31 32 31 31 29 27 26 23 21 20
45 39 40 40 42 45 47 48 48 45 42 37 31 30 28 27 26 26 27 32 32 32 31 30 30 28 27 27 28 29 30 31 32 33 35 36 35 33 30 28 26 23 23
43 42 40 41 42 46 48 50 50 48 44 38 33 32 31 30 29 29 29 31 33 33 32 32 33 33 32 33 35 35 32 32 34 35 36 37 38 37 36 34 30 27 25
46 45 42 43 44 46 49 53 52 49 46 42 38 35 33 33 33 33 33 32 34 35 35 36 36 35 33 31 33 36 39 40 38 38 39 40 40 40 40 39 37 32 30
44 46 47 46 46 47 51 53 54 52 48 44 42 40 36 36 36 35 36 36 35 36 37 35 35 36 34 33 32 34 36 38 41 42 42 43 43 44 44 44 42 38 35
58 54 57 57 53 47 52 55 54 53 50 47 45 42 42 40 39 37 37 36 35 36 37 35 34 34 33 33 33 35 36 38 39 41 44 46 48 48 47 48 49 45 41
75 62 59 61 61 61 57 58 54 53 50 50 46 42 40 40 40 38 39 39 40 38 36 35 33 33 34 34 35 37 38 41 42 42 43 45 47 49 50 51 55 55 53
77 74 64 61 64 66 62 58 55 56 54 51 44 41 40 39 39 37 38 42 41 40 39 37 36 36 35 38 39 39 41 43 45 46 47 50 52 53 54 54 55 57 60
81 77 71 67 64 64 64 65 62 58 52 47 40 39 38 39 39 41 43 44 43 41 38 36 35 35 36 37 39 40 40 42 44 48 51 53 56 58 60 62 62 63 66
82 80 77 74 71 66 62 60 57 54 50 46 40 38 41 41 41 41 41 40 40 39 36 35 39 39 39 41 43 43 41 41 44 47 49 52 57 64 69 71 70 69 72
77 78 76 76 73 70 66 62 59 54 49 47 45 43 44 42 41 40 39 41 41 38 38 39 40 41 43 50 52 48 46 47 45 45 51 58 67 71 76 76 75 74 74
66 64 64 68 70 72 66 63 60 57 55 51 50 53 52 47 47 43 42 43 43 41 41 45 43 44 52 53 52 48 52 51 49 52 54 63 64 69 70 69 71 76 77
64 59 57 58 59 62 66 66 64 60 56 53 55 57 58 62 60 53 54 55 54 51 59 54 53 56 55 54 54 57 55 55 50 48 56 56 63 65 63 64 66 68 70
63 59 53 51 51 51 52 54 54 57 55 54 53 53 56 61 63 64 68 70 67 61 56 61 65 57 56 56 56 59 58 48 45 51 56 62 60 58 59 58 56 59 62
58 56 55 47 44 44 43 44 45 47 47 48 51 54 56 55 56 59 58 59 58 57 55 54 52 50 49 46 46 46 42 44 51 64 57 55 57 56 55 55 56 56 62
56 51 49 48 48 44 42 41 40 39 39 40 43 47 47 48 53 55 53 53 54 54 45 40 37 38 39 42 44 39 41 40 50 52 47 48 42 53 47 46 54 48 54
52 52 51 47 47 46 45 41 38 35 34 34 34 34 34 35 38 40 39 37 37 34 32 31 33 34 35 37 43 46 46 46 46 46 44 42 43 43 43 46 44 46 49

GFSSE_prec_cthk_087.txt.gz
RH
47 45 44 37 33 33 33 32 31 30 28 28 25 22 20 18 18 15 14 13 20 33 31 29 29 27 23 18 15 16 14 10 9 10 14 19 22 19 20 21 23 21 18
43 42 42 35 32 32 32 31 30 30 29 28 25 23 21 20 22 18 17 16 16 15 14 14 14 13 13 14 12 9 9 9 10 12 14 18 23 27 28 28 30 30 25
41 42 42 38 33 33 33 32 31 30 29 27 25 23 23 22 25 20 17 17 16 15 14 13 13 12 12 11 11 12 14 16 19 21 26 33 35 29 30 36 38 37 35
40 40 39 35 33 32 32 31 30 29 28 26 25 24 24 23 26 24 20 18 16 13 12 12 12 12 13 14 16 19 20 23 26 32 36 37 38 34 36 41 38 35 35
41 40 37 33 33 32 32 29 28 27 27 28 27 25 25 22 26 26 24 21 18 13 12 12 13 14 15 17 19 24 27 28 34 34 34 32 32 31 29 27 32 34 40
41 40 39 35 34 34 34 31 28 27 27 27 24 23 20 19 24 25 24 23 21 16 15 16 17 18 19 21 25 27 30 32 34 34 33 33 32 27 25 24 26 32 40
42 41 39 36 35 37 37 34 31 30 27 25 22 20 18 17 19 24 24 23 22 19 17 18 19 21 23 24 26 27 29 31 32 32 31 30 26 24 24 23 22 23 25
44 42 40 41 39 39 40 38 37 35 32 29 27 21 20 17 17 24 23 23 23 21 19 19 20 21 22 22 24 25 26 26 26 26 26 25 24 24 22 20 19 18 18
46 44 41 41 43 41 42 41 40 38 37 35 32 25 24 20 19 23 25 24 24 23 21 20 21 21 23 24 24 25 26 27 28 27 28 28 28 26 25 23 21 19 19
48 45 42 42 42 42 45 44 44 41 38 36 32 28 26 25 24 23 27 28 30 29 27 25 23 23 24 25 27 27 27 28 29 30 32 33 33 32 29 27 24 22 20
52 47 42 40 42 43 45 47 47 44 40 38 33 30 27 27 26 26 32 32 33 32 30 29 29 28 30 32 34 34 32 32 32 33 33 34 34 34 34 33 30 27 25
59 49 46 42 42 44 45 47 49 48 44 39 35 32 30 30 29 28 31 34 34 34 33 32 32 32 31 31 33 35 36 37 37 37 37 37 37 37 36 35 35 32 29
68 59 51 46 43 44 45 47 49 49 46 42 38 36 34 33 33 32 32 35 34 35 35 35 34 34 33 33 32 34 35 35 37 38 40 40 41 41 40 40 39 37 34
63 63 56 51 46 47 48 47 49 50 48 45 41 40 38 34 35 35 35 35 36 36 35 36 36 35 34 33 32 33 35 36 38 39 40 42 44 44 44 44 45 45 43
58 57 58 54 50 50 52 51 52 53 52 48 45 44 42 38 36 35 35 35 35 35 36 36 36 35 35 33 32 32 34 36 38 41 43 44 45 47 48 47 48 49 50
65 64 56 55 52 51 53 53 55 55 54 52 49 48 45 43 40 39 35 34 36 37 36 37 35 34 34 34 32 33 36 38 41 43 45 45 46 48 50 50 51 52 54
76 80 66 64 67 60 55 55 57 57 56 56 52 49 45 41 39 39 36 36 38 39 38 38 35 35 34 35 35 35 36 37 39 41 43 47 48 50 51 52 54 57 59
83 85 77 72 66 69 69 62 61 57 56 56 56 51 46 41 39 38 38 39 40 42 40 38 36 34 34 37 37 37 40 43 42 41 44 47 48 49 53 59 63 64 63
80 83 80 82 80 68 69 69 66 62 63 65 60 50 44 41 41 42 42 42 41 40 39 38 34 35 38 39 39 44 47 48 45 45 46 46 50 56 61 67 69 70 66
77 81 81 79 80 84 80 76 73 70 67 63 56 49 44 44 44 44 42 41 40 40 39 39 39 38 41 42 42 48 48 45 45 51 51 52 52 56 63 64 69 69 66
75 78 84 83 80 80 80 73 71 67 67 62 57 53 48 47 47 47 48 47 45 42 43 45 43 46 54 51 52 51 48 50 52 53 54 49 46 57 59 63 63 62 61
79 76 78 82 80 74 77 80 77 75 69 64 63 60 55 53 57 61 61 62 61 60 58 62 63 62 58 61 63 57 51 47 46 48 41 37 42 54 56 60 57 55 55
73 73 68 68 70 72 73 75 77 76 73 70 64 61 58 60 65 66 67 67 69 71 72 77 71 64 64 58 57 56 52 44 42 44 37 42 66 65 56 57 53 53 52
75 71 70 67 65 64 65 65 63 62 65 66 67 64 60 60 58 57 57 60 63 66 64 65 66 61 59 50 46 42 41 44 49 44 42 43 46 48 46 46 45 47 46
71 71 70 68 63 61 60 59 57 52 50 48 49 51 51 50 51 53 55 57 61 62 63 62 57 52 42 38 37 37 37 41 48 49 49 49 47 43 42 41 37 44 42
69 70 68 64 64 61 57 56 54 52 47 41 38 38 39 41 41 41 41 42 44 46 45 42 40 35 33 34 34 36 39 47 50 46 44 44 44 39 38 37 39 43 39

GFSSE_prec_cthk_090.txt.gz
RH
50 45 40 36 34 35 35 33 32 30 28 27 24 22 19 18 15 14 19 37 38 38 36 33 31 25 17 14 14 11 8 8 11 15 21 20 21 23 25 27 26 22 21
52 46 39 36 33 34 34 34 32 30 29 27 24 21 20 19 17 16 15 17 24 25 20 16 14 12 13 10 8 8 9 10 13 17 23 28 29 30 33 33 32 29 26
49 48 41 38 34 34 34 34 32 31 29 26 23 21 21 22 17 17 16 15 15 14 14 13 13 12 11 11 12 14 16 18 22 30 35 32 29 36 39 32 32 31 35
50 47 43 37 37 34 34 34 33 31 28 25 23 22 23 25 18 17 16 14 12 12 11 12 12 12 13 15 16 19 22 25 30 32 34 35 35 34 25 32 30 36 45
51 49 42 36 33 34 32 32 33 30 27 26 24 24 23 26 23 21 18 14 12 11 12 12 13 14 16 19 23 24 27 29 30 28 30 31 31 25 24 27 31 44 42
52 51 44 40 34 33 31 31 34 29 28 27 25 23 21 28 25 23 20 16 14 14 15 16 17 19 22 25 27 28 29 30 32 32 32 30 25 22 22 22 26 31 35
56 52 43 39 37 34 33 30 30 29 28 27 24 21 20 26 26 23 21 19 16 16 17 19 20 22 23 24 25 26 27 27 30 29 29 28 22 20 18 17 17 20 22
59 54 47 43 40 39 37 34 30 31 28 27 26 20 18 22 26 24 23 21 19 18 18 19 20 21 22 24 24 25 25 24 29 29 28 25 23 23 21 20 18 18 17
58 59 54 48 46 43 41 38 36 35 33 30 29 22 21 20 25 26 25 23 22 20 19 20 21 22 23 24 25 26 26 26 31 31 32 32 27 26 26 23 22 20 19
60 60 56 53 50 47 43 41 40 40 40 37 32 29 25 23 25 30 30 30 28 27 24 23 25 27 29 30 30 29 29 29 33 33 35 32 31 30 29 28 27 24 22
58 59 58 56 52 51 48 46 45 44 40 39 35 30 27 26 27 33 35 34 33 30 29 29 29 29 31 32 33 33 34 37 38 37 38 34 33 34 34 34 32 30 28
61 58 57 58 56 53 52 48 50 49 45 41 35 33 30 30 29 32 34 35 36 33 33 32 33 33 31 33 33 34 37 36 36 37 41 38 38 37 37 37 38 37 34
66 58 56 56 58 55 51 53 53 52 50 46 39 35 34 32 31 31 33 37 38 36 36 36 35 36 34 33 31 34 35 36 39 39 40 38 39 40 41 42 42 43 42
72 66 55 54 58 57 55 55 52 52 52 48 42 39 36 36 34 34 37 39 40 39 39 39 41 39 36 34 31 31 33 35 37 38 43 41 40 41 42 43 44 45 46
69 71 68 55 56 58 56 56 54 54 52 52 47 43 41 38 37 37 40 40 41 40 41 39 36 38 36 35 33 31 32 34 36 39 41 41 42 42 43 44 45 45 46
65 70 71 66 56 55 57 59 58 57 56 54 52 49 45 42 40 37 36 35 35 33 35 36 37 35 34 34 34 31 33 35 37 38 40 42 42 43 44 43 46 47 49
59 64 70 65 63 53 59 61 62 60 58 58 56 54 51 47 46 43 38 35 35 36 37 37 37 34 33 32 33 33 32 35 39 43 43 42 43 43 42 44 49 56 57
66 63 66 68 68 61 56 58 62 63 59 59 60 59 53 49 46 42 40 37 37 38 38 39 38 37 36 32 35 36 36 39 44 44 43 45 46 45 47 52 55 63 61
69 69 72 71 71 71 64 65 61 63 63 61 62 60 54 55 50 44 41 40 40 39 40 39 37 38 35 35 38 40 41 46 48 47 46 49 49 50 51 48 55 60 62
73 72 75 78 76 76 69 75 78 64 62 64 65 63 61 61 52 47 44 44 42 40 40 40 39 39 40 40 43 50 48 51 52 49 50 49 50 49 45 43 53 57 60
74 73 79 76 82 78 79 77 79 76 68 71 72 72 68 59 54 50 48 47 45 44 46 45 44 45 50 53 58 58 56 58 53 51 48 44 44 44 40 43 54 55 56
79 78 80 80 81 84 81 82 82 84 82 80 77 72 69 63 59 54 53 53 55 59 62 64 63 62 65 69 68 64 61 56 49 48 44 40 44 38 42 53 58 53 53
82 83 80 77 78 75 76 79 83 86 82 86 83 78 69 69 67 64 67 62 67 69 67 67 68 72 76 74 73 67 62 51 44 41 38 39 44 41 44 51 53 48 49
79 82 74 78 74 74 78 82 84 83 82 84 85 84 79 75 73 72 67 66 66 63 61 62 67 72 69 69 65 60 53 48 44 45 41 51 47 45 47 46 43 45 41
75 75 74 68 72 76 72 80 80 78 79 80 82 84 86 78 71 67 64 63 59 58 55 59 62 63 61 59 53 46 41 41 42 42 44 51 50 43 44 44 40 37 37
70 73 74 74 69 66 68 68 73 73 73 69 67 61 56 54 52 51 50 48 46 46 47 49 50 49 48 45 41 39 40 43 41 42 44 45 49 42 41 37 35 35 37

GFSSE_prec_cthk_093.txt.gz
RH
50 41 39 37 35 35 34 32 30 29 27 25 22 20 19 16 14 31 39 39 41 41 37 32 26 19 14 13 9 8 9 12 18 19 21 25 27 30 29 26 27 23 25
49 42 37 36 35 35 34 33 30 30 28 25 22 21 18 15 14 19 36 38 36 32 24 16 12 12 10 8 8 9 12 16 22 27 27 30 33 31 29 28 27 29 28
48 48 41 38 36 34 34 33 32 30 28 25 22 22 17 16 16 15 15 17 16 14 13 12 12 10 11 12 14 17 19 25 33 34 33 38 37 33 28 28 34 39 38
51 50 45 39 38 35 34 34 32 31 28 24 23 24 18 16 15 15 14 13 13 12 11 11 12 13 15 16 19 22 27 31 30 35 35 32 26 23 28 32 44 45 41
53 47 44 38 37 36 34 33 33 31 28 26 24 27 24 20 18 16 13 12 11 11 12 13 14 16 20 22 24 27 30 29 31 32 28 29 26 22 24 30 35 34 35
57 53 46 42 38 35 34 32 33 31 29 27 27 28 28 24 21 18 14 13 13 14 15 16 18 21 24 25 27 28 29 30 32 32 29 22 19 18 17 18 23 25 26
60 53 47 42 39 34 32 31 32 30 27 26 24 24 34 26 22 20 17 15 15 16 18 19 20 22 22 23 24 25 26 28 30 29 27 22 20 18 17 16 16 16 18
65 57 47 47 43 38 35 32 30 27 26 26 23 21 28 28 25 23 20 17 17 18 18 19 20 21 21 22 23 24 24 28 30 30 28 24 23 23 22 20 18 18 17
68 59 50 50 47 43 42 38 32 28 26 26 20 20 23 27 26 25 22 19 18 18 18 20 20 21 22 23 24 25 25 28 31 32 34 27 26 26 25 25 24 22 21
66 65 57 53 50 48 46 43 41 36 32 30 25 22 21 24 30 28 26 24 22 21 22 23 24 26 28 29 30 31 32 35 37 36 34 31 31 31 30 29 28 26 25
67 72 62 55 54 51 49 46 46 42 40 35 32 28 25 26 31 34 32 31 29 27 26 25 26 28 30 30 30 31 33 38 38 38 38 35 35 34 33 33 34 32 31
67 70 65 60 59 53 51 49 52 48 44 42 37 32 32 33 33 38 35 35 35 31 30 30 30 30 30 34 32 32 36 38 38 39 38 35 34 35 36 37 38 37 37
65 68 67 66 64 56 53 50 53 52 51 49 45 40 38 38 35 39 39 39 39 35 33 33 34 34 37 36 36 34 35 38 39 40 38 37 36 37 38 38 39 38 40
66 68 67 70 66 63 55 54 54 55 55 53 48 45 43 43 40 40 40 41 40 40 40 40 41 41 38 36 36 34 35 35 37 38 39 37 38 39 40 40 39 38 38
71 68 71 65 69 67 59 56 54 56 55 55 50 48 46 46 44 43 43 43 42 42 42 42 41 42 42 40 36 33 32 33 37 38 39 39 39 39 39 40 38 38 40
72 74 69 62 64 69 64 58 55 56 57 57 53 51 50 48 46 46 46 45 43 42 42 42 42 40 41 40 37 35 32 33 32 36 40 42 39 39 39 39 39 43 47
65 73 74 74 65 65 67 63 57 58 56 58 55 55 54 54 50 48 47 46 42 41 40 40 41 39 39 38 36 34 34 35 35 38 42 42 42 42 44 44 45 47 48
68 65 69 74 76 72 69 66 62 58 59 58 59 58 58 59 55 53 51 48 43 42 40 41 40 42 39 40 37 35 35 37 40 45 47 46 46 47 44 46 46 45 45
70 68 67 67 72 75 74 71 69 64 63 61 62 63 62 63 62 57 56 52 44 41 40 40 41 41 41 39 38 39 41 46 50 51 51 50 49 47 45 43 45 45 44
70 71 69 68 66 70 73 77 76 72 69 64 61 63 65 64 64 58 59 57 48 43 42 42 42 41 39 41 42 45 49 57 57 55 53 51 50 48 42 44 44 43 48
70 73 75 76 73 70 72 73 80 84 78 75 65 63 68 67 64 63 66 62 53 46 46 47 47 50 52 55 57 59 64 65 61 59 54 49 52 48 42 43 42 46 51
70 74 78 83 82 77 72 73 76 81 87 86 79 71 66 67 67 69 69 62 57 51 50 54 61 65 65 66 67 73 75 73 68 62 52 47 46 42 40 44 46 50 53
68 74 80 86 85 84 75 74 80 81 82 85 83 84 83 77 74 73 69 67 64 61 62 63 68 67 67 65 69 78 73 70 65 57 49 41 39 39 48 47 48 50 48
69 75 79 82 86 84 84 74 70 76 79 80 79 80 84 81 82 79 82 82 76 73 72 70 70 68 68 66 68 69 65 62 57 49 44 40 38 42 50 48 48 46 47
68 75 77 76 82 79 77 83 79 74 74 82 82 84 83 77 82 90 89 88 85 79 75 73 68 64 59 60 62 57 55 55 48 45 43 45 47 42 43 45 46 46 42
63 68 74 73 75 82 80 79 82 84 84 82 83 87 84 81 79 80 78 77 78 73 65 62 61 55 55 58 58 54 49 44 43 42 50 50 48 45 42 43 42 40 33

GFSSE_prec_cthk_096.txt.gz
RH
46 40 38 36 34 34 34 32 27 26 24 21 19 18 16 21 37 42 44 47 52 48 38 25 16 12 10 7 8 13 18 18 24 27 30 28 28 26 24 23 24 23 23
46 42 39 38 37 35 34 31 29 26 24 21 20 18 16 17 33 37 38 37 34 27 19 12 11 8 8 9 11 16 21 27 27 30 35 34 27 25 28 33 34 26 26
46 43 41 38 38 36 33 32 30 27 24 21 21 16 15 14 20 32 34 28 20 13 12 11 9 10 12 15 17 24 32 32 30 34 34 22 28 26 34 41 42 36 27
44 42 43 41 38 37 34 32 31 27 23 21 21 15 15 15 15 15 15 14 13 12 10 11 12 14 16 19 25 30 30 30 30 30 26 22 25 31 40 41 35 35 32
48 43 43 42 40 37 36 33 31 27 23 21 23 18 16 15 14 13 12 11 11 11 12 13 16 19 21 24 28 27 27 30 29 25 24 19 19 19 23 27 26 28 29
51 45 42 43 39 37 36 33 31 27 24 21 25 23 21 18 14 12 12 12 12 13 15 18 20 22 23 25 26 25 26 26 26 21 18 17 16 16 16 17 19 22 23
57 48 46 45 42 36 35 35 33 28 25 24 28 25 23 21 17 14 14 15 16 17 18 20 20 20 21 22 23 24 27 27 25 21 20 20 20 19 18 17 17 17 17
57 52 46 45 43 37 35 35 34 30 26 23 25 29 24 22 20 17 16 17 18 18 18 19 19 20 20 22 22 23 26 27 27 26 24 23 23 23 23 22 21 20 20
62 54 49 48 46 40 37 34 33 28 27 25 22 27 26 23 22 20 17 17 17 18 18 19 20 21 22 24 26 26 29 29 32 31 28 28 27 27 26 26 25 25 24
69 63 54 51 48 46 42 36 33 29 27 25 20 23 27 25 25 22 20 18 19 20 22 24 25 26 27 27 28 28 32 34 35 34 32 32 31 32 32 32 31 30 29
73 67 58 54 50 48 46 40 37 33 30 26 25 23 23 29 29 28 28 26 25 24 24 25 27 28 28 28 29 30 33 36 36 36 36 34 34 33 32 33 34 35 33
72 67 61 58 55 51 47 44 41 38 35 33 31 28 28 28 33 34 32 32 30 29 29 29 29 29 30 31 31 31 33 36 35 35 35 35 35 36 35 35 35 35 35
68 69 63 61 59 56 49 46 44 42 39 39 36 35 36 36 34 40 36 35 33 32 32 32 32 33 33 36 35 33 35 35 36 36 36 36 37 37 36 35 34 34 33
67 72 71 68 61 58 53 51 46 45 44 44 44 42 43 40 39 39 39 37 35 36 36 35 38 39 36 35 34 33 33 34 33 35 37 37 38 36 35 35 34 33 34
68 70 72 71 68 64 57 52 48 48 52 48 45 45 45 45 40 41 43 42 39 40 39 39 41 41 39 38 36 32 31 30 33 33 35 38 38 37 37 38 39 37 40
69 69 72 75 80 68 67 57 54 56 53 50 47 44 46 48 48 47 46 47 46 43 42 42 41 39 40 39 38 36 30 30 31 33 36 41 42 43 42 41 40 40 42
64 73 71 71 74 78 71 66 64 56 56 54 49 47 45 48 50 51 50 49 47 46 41 39 39 38 37 39 36 36 33 31 36 39 42 45 46 46 43 42 42 41 42
72 65 70 78 73 75 70 70 70 67 63 60 52 50 48 49 50 52 53 53 50 49 42 39 37 35 34 37 36 36 35 36 39 45 51 54 49 45 43 43 43 41 46
64 68 68 69 74 71 69 71 72 73 70 61 58 54 53 52 53 54 56 56 53 51 46 38 36 36 37 37 37 36 38 42 48 55 57 57 53 49 44 42 42 40 41
62 65 65 67 71 77 80 78 78 73 73 70 65 59 58 58 55 57 57 58 57 52 50 41 38 40 40 41 42 45 50 54 60 65 66 64 61 50 45 45 42 40 42
58 59 63 64 68 71 71 72 74 75 78 79 77 72 67 65 63 59 58 60 60 60 60 50 44 43 46 51 59 61 61 64 68 72 70 68 62 50 44 45 44 44 44
55 57 58 64 67 67 68 68 68 71 77 78 82 82 80 74 67 64 62 63 64 69 66 59 52 49 52 58 62 63 61 64 71 71 67 63 54 49 43 44 47 50 50
54 57 54 61 67 69 69 75 76 75 77 81 84 85 86 86 84 80 77 72 74 75 71 66 61 59 60 64 67 67 68 66 68 65 60 58 52 45 45 48 52 52 48
50 58 63 59 66 75 75 77 82 85 84 86 92 94 91 90 91 90 88 88 86 85 83 82 80 80 78 76 77 69 66 66 65 64 60 55 48 43 47 51 50 49 44
44 47 58 65 67 72 79 83 84 85 85 84 87 85 88 85 86 88 89 87 85 83 82 82 87 86 84 78 73 69 61 65 71 63 57 51 46 47 51 50 48 43 42
37 42 46 54 68 75 76 79 81 81 79 88 88 88 88 81 82 83 87 88 87 86 86 84 85 86 80 70 62 57 55 60 54 54 56 50 51 54 50 45 41 42 42

GFSSE_prec_cthk_102.txt.gz
RH
45 43 42 41 37 33 29 25 21 19 16 17 28 25 27 32 38 52 68 68 63 47 17 12 10 11 16 22 19 23 25 23 21 21 24 29 30 25 24 31 34 36 41
43 43 42 42 38 35 30 28 24 19 18 21 31 39 38 42 46 53 60 60 36 15 11 8 9 13 17 21 24 23 26 24 22 22 29 37 43 34 29 26 28 32 36
46 44 44 41 39 33 30 28 24 21 19 20 31 32 37 40 41 44 38 24 13 10 9 10 13 17 22 22 22 24 26 20 22 25 31 33 33 29 27 25 24 26 30
46 46 43 40 37 33 30 26 23 22 19 17 25 30 32 32 30 28 22 12 11 10 12 13 17 23 26 26 23 22 20 19 18 18 20 23 22 23 23 23 24 27 31
47 48 45 41 37 35 32 27 23 22 19 17 15 25 28 28 26 16 12 11 12 13 14 17 23 24 24 23 23 20 18 17 16 16 16 17 19 20 20 19 20 25 28
50 48 48 42 39 37 34 28 24 21 17 16 15 14 15 14 12 12 12 12 13 16 17 21 23 23 23 21 21 21 20 19 19 20 20 21 20 20 20 20 20 21 22
51 51 50 43 40 38 34 28 25 24 20 17 15 12 12 11 11 12 13 15 18 19 19 20 21 20 21 21 22 22 21 22 22 23 24 25 25 24 24 24 23 23 22
54 52 49 47 44 43 38 30 27 26 23 20 16 12 12 12 13 14 16 18 19 18 17 18 19 20 23 25 25 26 28 27 27 28 28 28 28 28 28 28 28 27 26
57 53 51 50 46 42 40 35 29 31 27 22 18 14 14 15 16 17 17 17 17 16 17 20 23 24 25 26 28 27 29 30 30 30 31 31 31 32 32 32 31 30 29
59 56 53 49 45 42 39 36 30 31 32 25 21 17 16 17 18 18 17 18 19 20 21 23 24 24 26 26 27 28 29 31 32 31 32 32 32 33 33 32 33 32 31
61 60 55 51 50 46 41 38 33 28 27 26 24 20 18 18 18 18 20 21 23 24 24 25 26 27 27 28 29 31 30 30 31 31 31 32 32 32 32 32 33 33 32
65 63 59 57 53 50 45 39 33 28 25 25 24 23 21 19 20 22 24 26 27 27 28 28 28 29 29 29 30 32 31 30 30 31 32 32 31 32 35 35 35 35 36
70 68 64 59 57 54 48 40 34 28 26 24 25 26 26 26 27 27 27 28 28 29 29 29 29 29 30 30 30 31 30 29 28 28 29 32 34 35 37 37 36 36 38
77 71 68 64 61 58 52 46 40 31 31 29 29 30 32 33 33 33 32 32 32 31 31 31 31 31 32 32 30 31 29 27 27 27 27 32 37 39 41 40 38 37 38
82 68 67 66 62 58 56 52 47 39 36 33 34 35 37 38 39 39 39 38 37 36 36 35 35 35 34 34 34 32 31 27 26 27 30 35 40 47 45 41 40 38 40
77 72 67 65 65 60 57 53 49 44 41 38 37 38 39 40 42 42 43 44 43 42 41 41 40 38 36 34 34 34 33 30 28 29 32 38 46 51 52 49 45 39 44
72 69 67 67 68 66 62 54 51 51 47 44 43 40 39 40 41 41 44 46 48 50 50 47 44 43 37 35 33 34 34 33 31 34 38 44 53 60 60 58 52 43 41
74 72 70 65 69 67 63 58 53 55 54 52 51 50 46 45 44 44 45 46 49 50 51 52 51 48 45 36 34 35 34 35 35 37 43 52 61 66 65 63 55 45 38
71 76 76 76 73 72 70 70 58 65 61 61 58 58 58 53 50 49 50 49 50 50 52 53 54 53 51 47 38 38 39 41 45 50 55 61 67 69 65 64 54 42 39
73 69 72 72 73 76 77 71 68 73 62 63 65 64 63 62 59 57 55 55 55 54 54 53 52 53 53 56 52 45 43 47 51 54 59 64 70 69 65 61 56 45 43
78 75 72 73 78 77 76 78 71 73 76 77 72 73 74 70 69 67 65 61 59 59 58 57 56 55 55 59 61 59 53 50 55 58 62 64 71 68 68 62 56 50 46
71 75 80 76 75 73 74 84 73 73 75 76 73 68 71 72 72 74 73 72 71 70 71 74 73 70 62 64 63 62 64 61 60 62 65 66 67 67 70 63 61 53 49
59 67 74 72 72 72 74 76 83 83 81 80 79 79 79 79 79 76 77 78 80 80 80 85 87 86 83 83 85 79 75 72 73 73 74 74 72 73 66 65 61 56 51
55 59 67 67 68 67 68 68 79 74 78 85 82 82 84 83 86 87 87 91 91 91 88 88 88 87 89 91 94 94 93 92 89 91 87 80 75 71 77 72 67 56 54
55 54 60 61 62 61 64 68 71 73 75 81 78 80 80 82 81 89 90 94 98 95 96 97 96 95 94 92 89 92 92 96 94 94 97 81 73 86 73 71 63 56 56
52 53 53 56 60 58 58 66 68 68 69 71 73 78 83 88 89 88 88 90 89 96 97 92 96 94 96 94 93 93 94 96 91 91 92 85 88 78 71 70 59 59 54

GFSSE_prec_cthk_105.txt.gz
RH
46 43 44 41 38 34 27 22 19 16 15 15 14 20 24 28 34 48 68 66 62 38 14 19 18 19 21 20 22 22 20 20 24 29 32 28 26 31 31 33 36 37 37
42 44 44 43 38 32 27 24 21 17 23 26 18 23 30 35 42 61 65 61 39 12 10 18 19 18 20 21 24 23 21 23 30 33 34 36 25 23 26 28 32 33 39
42 43 43 42 37 33 29 25 22 22 28 32 39 39 43 46 50 56 54 29 11 9 10 14 16 20 21 22 24 19 20 23 28 29 25 26 27 24 26 25 27 33 37
44 45 44 45 40 32 30 25 22 23 29 32 38 41 42 43 44 39 22 11 10 11 13 14 19 21 22 21 18 18 17 17 18 21 21 22 23 23 25 27 30 30 29
46 45 46 44 38 34 29 24 22 22 27 31 33 36 37 33 28 21 12 11 12 12 15 20 22 21 21 18 17 16 17 17 17 18 19 19 20 19 19 21 25 28 28
52 46 46 43 37 35 29 26 23 20 22 25 28 30 30 28 20 12 12 12 13 16 20 21 20 18 19 18 18 18 18 19 19 20 21 21 22 22 22 22 22 22 22
55 50 48 44 39 36 30 27 23 20 18 18 22 24 23 16 12 12 13 15 17 19 20 19 18 18 19 19 20 21 22 23 24 25 26 26 26 26 27 27 26 26 25
56 53 50 46 41 37 29 28 23 20 18 16 15 14 12 12 12 14 16 18 19 18 18 17 18 21 24 24 25 24 25 26 27 28 29 29 29 29 29 29 28 28 27
60 56 52 49 45 39 32 30 26 23 20 15 14 12 12 13 15 17 18 17 17 17 20 22 23 23 24 24 26 26 27 28 28 29 29 29 29 30 30 30 30 30 29
65 60 56 52 48 42 37 34 31 25 22 17 14 14 14 16 17 17 16 17 19 21 22 23 24 24 25 26 26 27 27 28 27 28 28 29 29 29 30 30 31 31 31
72 65 59 54 47 42 38 35 34 28 23 19 16 16 17 18 17 17 19 21 22 24 25 25 26 26 27 28 29 29 27 26 27 28 29 30 30 30 32 33 32 31 34
72 66 64 57 50 46 42 35 34 31 27 21 18 17 18 18 19 21 24 25 26 27 27 28 27 28 29 29 30 31 31 28 28 27 29 30 33 34 35 35 35 34 34
78 71 67 63 56 51 44 39 32 31 30 26 21 19 18 19 22 25 27 28 29 30 30 30 29 29 28 30 31 31 30 29 29 28 28 30 34 37 39 38 37 37 36
81 77 71 67 62 55 50 44 38 31 30 29 25 23 24 25 27 28 29 30 30 30 30 30 30 30 30 31 31 31 32 29 28 28 30 33 37 42 46 45 41 39 38
76 74 68 69 65 60 55 50 42 36 31 30 32 33 34 34 35 36 36 37 37 36 36 36 35 34 32 31 30 32 33 32 28 28 31 35 40 45 51 54 53 48 42
75 71 68 69 66 64 60 51 45 41 38 35 33 34 37 38 39 40 42 43 44 44 44 43 43 43 42 36 34 33 33 33 30 31 34 37 42 50 59 61 59 58 50
70 74 79 74 64 68 63 56 49 42 41 38 37 36 38 39 40 41 43 44 46 47 48 49 50 49 47 45 40 36 35 35 32 32 35 39 45 55 65 68 65 65 49
85 84 72 71 70 64 63 58 54 48 46 45 43 43 44 46 46 45 45 46 48 49 50 51 52 52 52 51 50 45 39 39 38 37 40 46 52 60 68 70 65 57 48
87 83 83 74 63 73 69 60 56 52 52 50 51 51 51 51 52 52 52 53 54 55 53 53 53 53 52 54 54 54 50 46 44 45 49 52 56 62 70 71 66 59 47
91 89 83 74 70 67 71 62 58 55 53 55 58 58 58 59 60 59 59 58 58 57 57 57 57 56 56 56 54 54 56 56 55 55 55 58 60 63 67 70 67 63 52
93 96 83 89 76 76 75 73 67 63 64 64 72 62 64 63 63 65 65 65 65 66 65 64 64 64 64 65 67 62 59 59 59 62 64 65 65 66 66 65 67 66 62
87 92 90 86 85 92 93 88 81 81 76 77 76 81 76 76 71 69 69 69 69 72 73 72 71 73 76 80 81 81 72 65 64 67 71 74 75 71 75 73 69 69 67
87 87 87 83 83 85 80 88 86 86 85 81 78 76 77 81 75 71 72 75 79 79 75 73 80 88 87 89 89 93 90 89 85 85 86 85 86 86 90 76 76 69 80
86 90 92 88 86 84 89 84 85 88 87 76 80 84 83 83 81 80 82 83 85 88 85 84 91 95 91 90 93 95 94 95 91 93 90 91 94 92 82 74 88 82 73
68 76 84 83 82 80 83 79 86 83 84 87 90 84 82 79 81 84 83 85 89 91 92 95 93 98 98 97 95 97 97 96 97 97 95 94 96 94 90 91 94 82 73
65 63 65 71 78 82 78 73 78 72 79 80 80 78 77 82 91 92 96 89 87 89 88 87 89 85 89 91 96 98 98 97 96 97 96 92 91 91 91 92 87 76 68

GFSSE_prec_cthk_108.txt.gz
RH
46 44 45 39 36 34 28 24 22 18 16 16 17 20 29 36 32 48 62 63 59 25 21 19 22 22 20 20 19 20 26 32 33 26 27 29 29 31 33 36 36 37 36
45 45 46 43 38 35 27 22 19 16 15 15 18 23 27 30 38 56 64 59 29 19 20 22 22 23 21 22 19 24 30 29 29 27 25 22 22 24 26 32 40 36 34
45 44 45 42 38 32 26 24 21 25 24 20 24 27 31 39 47 59 57 35 12 17 21 21 19 20 22 18 18 21 24 24 22 21 24 25 29 28 30 39 33 30 28
45 44 45 41 37 31 27 24 27 33 35 36 37 39 44 46 52 52 29 11 10 14 16 21 21 20 19 17 16 15 17 18 20 20 20 22 23 25 26 27 25 24 23
45 46 45 41 36 31 27 24 28 35 39 42 45 43 40 41 41 24 11 11 12 14 18 22 21 18 16 15 15 16 16 17 18 19 19 19 19 20 21 22 21 21 20
49 49 47 43 37 31 28 24 27 34 36 43 41 39 35 31 22 12 11 12 14 18 23 20 17 15 16 16 17 18 19 20 22 23 23 24 24 24 24 24 24 23 23
53 52 49 43 36 32 28 25 24 29 35 36 35 32 27 23 14 12 12 14 18 20 18 17 16 16 18 20 22 21 22 23 24 25 25 26 26 27 27 27 27 26 26
59 57 51 45 38 34 28 25 23 26 29 30 30 26 23 14 12 13 15 17 19 18 16 16 19 21 22 23 23 23 25 26 26 27 27 27 28 29 28 28 28 27 27
63 58 55 48 41 36 29 24 21 21 22 24 24 19 14 12 13 15 17 17 17 17 19 21 22 22 23 25 25 25 26 27 27 27 28 28 27 28 29 29 29 28 29
65 57 56 51 43 37 31 25 22 20 18 16 15 14 13 14 17 17 17 17 20 22 22 23 24 25 25 26 27 27 26 26 28 28 29 29 29 30 30 30 30 31 31
66 62 56 52 48 39 34 31 27 23 17 16 15 15 15 16 17 17 18 21 23 25 26 26 26 27 27 27 28 28 26 27 27 28 29 30 31 32 33 33 32 32 31
67 65 60 56 50 42 36 35 31 25 19 17 17 17 17 17 17 19 21 24 25 26 27 27 26 27 29 29 29 29 29 28 27 27 28 30 33 35 36 35 36 34 33
75 63 64 56 52 47 40 39 35 29 22 19 18 18 18 17 20 22 24 26 27 28 28 28 28 28 28 30 31 31 31 28 28 28 29 31 34 39 42 43 45 42 40
72 69 67 60 56 50 42 40 37 34 27 23 20 19 18 20 23 26 27 29 30 31 31 31 31 30 29 30 30 31 32 31 28 27 28 32 35 40 44 49 52 52 48
72 70 71 65 59 53 47 42 42 38 31 26 24 23 23 26 28 31 33 34 36 36 36 36 35 36 36 35 32 31 32 33 30 29 31 33 36 40 46 55 58 59 56
69 72 73 68 61 57 53 51 45 42 39 35 31 31 33 34 35 37 37 38 39 40 42 42 42 42 43 42 40 37 34 33 32 30 31 34 38 41 48 58 63 67 62
67 75 71 75 65 59 57 56 50 45 43 42 40 39 37 38 38 39 39 40 41 42 44 45 47 48 50 49 47 46 45 42 39 35 35 39 44 48 54 61 67 69 63
69 71 70 70 62 61 59 59 52 45 42 41 41 40 41 41 41 42 44 45 46 46 46 47 49 49 49 49 49 49 49 49 48 46 41 43 49 54 58 64 68 70 61
66 71 69 68 68 64 66 58 58 49 47 45 45 43 45 47 49 50 49 49 51 51 51 52 53 52 52 53 52 52 51 49 52 53 53 54 53 58 61 66 69 68 62
76 72 70 71 73 74 68 64 63 58 51 48 48 50 51 52 53 53 54 55 56 56 57 58 59 59 58 58 59 60 61 64 64 59 57 60 63 66 66 66 66 67 65
95 91 78 76 72 76 68 68 72 66 57 54 56 59 63 63 60 60 59 60 61 63 62 62 65 66 67 68 69 71 73 75 77 75 66 60 64 69 75 76 74 72 71
94 98 95 95 80 76 74 84 77 67 62 66 67 66 66 69 64 65 71 69 69 67 67 70 75 76 74 72 79 86 88 86 83 82 77 76 78 83 84 89 92 90 81
87 91 91 95 94 84 90 87 76 76 74 75 74 73 77 80 81 77 76 79 74 73 77 82 84 84 84 87 93 96 94 94 92 90 90 88 88 87 91 91 90 87 92
85 88 89 85 94 90 91 92 93 95 88 88 88 84 83 85 84 84 82 82 83 81 83 88 93 94 93 90 96 96 96 95 97 96 93 93 93 93 93 92 94 95 95
84 85 90 87 90 99 98 93 84 83 86 92 89 85 83 85 79 80 83 85 89 93 95 95 93 90 86 86 85 82 85 92 98 98 98 97 93 95 95 94 95 96 97
79 81 84 92 91 90 93 97 98 95 92 96 90 86 80 75 80 88 92 89 87 88 84 79 81 81 81 80 78 83 88 88 94 96 96 97 94 94 93 93 93 95 95

GFSSE_prec_cthk_111.txt.gz
RH
50 47 45 36 32 30 30 27 24 22 21 23 24 25 42 44 39 50 60 61 44 22 19 23 18 22 18 20 27 31 30 23 24 28 27 28 30 31 37 36 35 32 26
49 49 47 37 33 31 28 25 23 19 18 19 21 22 36 38 37 52 60 54 28 21 22 21 19 21 21 25 28 27 25 22 19 19 19 20 22 25 34 40 30 27 21
51 46 50 40 36 34 27 24 21 18 18 18 21 25 34 32 46 57 55 31 22 21 22 25 22 18 18 22 22 20 19 18 18 20 23 27 36 32 30 27 25 21 18
54 49 49 42 38 34 26 23 21 21 21 21 28 31 34 39 51 55 32 18 20 23 20 19 20 17 16 16 16 17 18 17 17 18 17 20 24 24 25 22 20 19 18
59 49 47 43 39 31 27 24 28 29 25 34 42 48 41 47 52 35 13 16 19 20 19 18 16 14 14 14 15 16 16 17 18 20 20 20 20 21 21 21 21 20 21
60 52 48 44 38 31 26 28 34 36 38 44 52 51 45 44 31 12 11 13 20 20 19 16 14 14 14 16 18 19 20 21 22 23 23 23 24 24 24 24 24 23 24
58 53 51 45 38 32 28 31 36 37 41 43 45 43 40 30 16 12 13 15 20 19 16 15 15 16 18 20 21 21 22 24 25 26 26 26 26 26 26 25 25 25 25
61 56 53 47 40 32 28 31 36 37 40 40 38 36 29 21 13 12 14 19 19 17 16 17 18 20 21 21 22 23 25 26 26 26 26 26 27 26 26 26 24 25 26
65 62 57 49 39 33 29 29 33 37 35 33 34 27 23 15 13 14 17 18 18 18 19 21 21 22 22 23 24 25 25 25 26 26 26 27 28 28 27 26 26 26 27
72 66 62 50 41 35 31 28 30 32 33 30 29 24 16 14 15 17 17 17 20 21 21 22 22 23 23 24 25 25 25 25 26 26 27 28 29 29 29 28 27 27 27
77 72 66 52 44 36 30 26 25 28 29 25 24 18 15 16 17 16 17 19 22 23 24 25 24 24 24 26 26 25 25 24 25 26 27 29 30 31 31 31 30 29 30
80 74 66 56 47 38 31 27 23 22 22 20 17 16 17 18 17 17 20 22 24 26 27 27 27 26 27 27 28 27 25 25 24 25 26 28 30 34 36 38 39 39 38
83 76 69 58 50 40 34 30 25 21 19 18 18 19 19 18 19 20 22 24 24 27 28 28 28 28 28 28 29 29 28 26 24 25 27 29 32 35 39 43 46 46 45
91 79 71 61 54 43 40 32 27 22 21 20 19 20 20 20 21 24 25 27 27 28 29 30 30 30 30 30 29 29 30 29 27 27 28 30 32 35 39 44 50 52 53
89 81 70 64 57 45 42 37 31 25 22 22 21 21 20 22 25 27 29 31 31 32 34 34 35 35 36 36 36 34 32 32 30 28 29 32 34 37 41 46 52 55 56
93 84 75 67 58 51 43 42 36 29 25 24 24 23 24 28 30 33 35 36 36 37 38 38 39 40 42 43 42 42 41 40 38 34 32 34 37 41 45 52 60 64 63
81 81 81 67 60 57 48 43 42 37 31 27 25 26 31 34 37 39 39 39 38 38 39 40 41 43 46 48 48 47 48 48 49 48 42 42 41 45 51 55 60 63 65
88 78 83 69 59 60 55 47 45 43 38 36 34 35 37 37 38 39 40 41 42 43 44 44 46 48 50 50 50 50 50 49 48 50 49 47 49 53 55 58 60 62 61
86 86 81 67 62 67 61 56 49 45 43 42 43 43 42 43 43 44 46 48 48 48 50 51 52 54 55 56 56 55 55 56 57 59 64 66 60 58 60 66 68 66 62
91 80 74 72 62 62 65 61 54 47 43 44 45 45 47 47 48 51 52 54 53 54 56 58 60 61 61 63 63 64 63 64 68 70 73 74 73 68 63 67 72 71 69
88 82 74 71 74 71 66 61 58 52 45 46 46 45 47 49 51 53 55 56 59 62 63 66 67 66 67 70 72 72 70 75 79 82 83 80 80 76 74 77 81 86 88
84 82 77 71 73 75 71 70 65 57 51 52 49 51 54 54 54 56 58 61 63 64 69 71 70 73 76 81 80 79 80 84 91 89 87 88 88 88 87 87 89 91 95
91 82 79 77 81 82 81 76 67 67 66 60 58 59 60 62 64 66 71 73 78 81 85 81 81 87 91 87 88 88 86 84 85 90 91 90 89 89 92 92 91 91 91
91 95 98 97 89 83 87 81 72 70 71 67 64 61 65 69 75 76 83 85 86 88 89 93 96 95 90 84 82 83 83 79 84 85 88 92 93 96 96 94 92 93 93
90 91 98 98 91 97 90 92 84 85 85 76 79 80 82 84 85 88 88 91 91 95 92 95 90 82 84 79 78 76 67 67 70 79 84 94 95 96 95 94 89 90 93
85 91 93 95 93 89 91 95 93 94 92 85 87 85 83 85 87 89 88 94 94 89 82 76 83 82 72 67 65 62 63 65 69 69 74 83 89 89 91 87 87 88 90

GFSSE_prec_cthk_117.txt.gz
RH
58 57 44 32 31 31 30 32 39 38 34 34 43 57 51 51 58 58 57 45 38 24 24 17 19 22 17 21 26 27 28 31 31 33 35 36 36 35 26 19 16 15 14
54 52 46 35 32 31 30 32 37 37 32 31 42 52 51 50 52 51 56 38 33 24 21 21 28 35 26 20 21 22 23 23 21 23 25 29 34 24 20 16 15 15 16
57 56 49 42 36 32 29 30 33 32 27 28 34 50 50 45 49 48 48 34 27 19 18 26 32 28 22 17 16 16 17 20 26 35 37 30 23 19 17 16 17 17 18
64 61 56 47 37 33 30 29 30 28 24 23 26 44 44 42 47 51 38 30 23 21 21 27 24 23 18 15 15 18 20 22 25 31 32 26 20 18 18 18 21 21 21
67 66 63 50 41 34 29 26 25 25 24 22 24 29 44 40 51 51 30 35 28 20 17 21 19 17 16 15 15 15 16 18 22 26 27 26 22 21 21 21 21 21 23
66 69 67 57 44 38 30 26 26 24 26 23 28 29 52 39 52 38 32 31 26 20 16 16 16 15 14 16 17 18 20 24 28 28 25 24 22 22 22 22 22 22 23
70 70 70 62 48 42 32 27 26 25 25 28 34 41 53 48 48 29 30 23 22 20 15 14 15 15 17 18 19 19 22 27 29 29 28 23 23 22 22 22 23 23 23
74 74 74 68 53 44 33 27 25 29 28 38 47 56 54 51 38 26 24 23 20 16 15 15 16 19 19 19 20 21 23 27 28 28 24 24 23 22 22 22 22 22 23
77 84 80 74 59 48 34 28 32 32 38 53 59 63 54 47 21 23 25 23 19 16 15 17 20 21 20 21 21 21 23 26 29 29 27 24 24 23 23 23 24 25 24
78 90 89 78 66 50 37 34 40 41 48 62 64 56 53 25 18 27 24 24 18 17 18 21 21 21 22 21 21 22 23 28 30 30 26 26 26 28 29 30 32 32 31
82 85 97 79 70 55 42 43 50 48 52 58 57 52 39 16 24 29 27 21 19 21 22 23 23 22 22 21 21 21 24 28 28 29 25 27 28 29 32 34 34 36 37
72 81 99 82 71 61 49 50 54 55 57 57 51 46 27 23 29 31 26 22 22 24 25 26 26 26 25 24 23 24 26 27 27 28 25 26 27 29 31 34 35 36 38
64 83 95 85 72 66 53 55 61 60 56 53 49 39 26 26 35 35 27 25 25 26 27 28 28 29 33 33 30 32 33 29 28 28 25 27 28 31 33 36 38 40 41
74 74 89 94 73 68 54 59 63 65 57 48 49 34 33 32 35 35 29 28 28 30 31 31 32 34 33 33 35 35 35 32 31 31 28 29 30 33 36 41 44 44 45
76 76 81 98 79 71 61 58 61 60 53 47 46 33 34 37 37 29 31 33 35 36 35 36 37 38 38 38 39 39 40 41 40 39 37 34 36 37 40 43 46 46 46
94 86 84 98 93 77 59 59 59 53 50 46 42 33 32 37 37 31 34 39 38 43 40 39 40 41 42 42 42 42 42 43 45 47 47 43 43 42 43 44 49 53 55
91 94 88 96 94 80 59 55 58 54 55 41 37 30 33 36 37 37 40 44 45 43 42 43 43 43 44 46 46 46 47 48 47 47 49 50 47 47 49 54 58 62 64
91 99 81 98 95 76 60 55 51 47 44 39 33 32 34 37 39 43 45 45 45 46 46 46 45 46 49 51 53 51 50 49 49 49 47 48 52 56 59 63 65 68 72
89 99 93 95 95 76 63 57 50 44 43 36 33 37 35 35 37 40 44 45 47 47 47 47 49 51 53 54 52 51 49 49 51 55 57 58 60 63 69 70 70 70 75
86 96 95 85 94 84 67 55 48 43 39 37 36 35 34 35 39 42 46 49 49 49 50 50 55 54 57 58 53 52 53 57 61 66 68 70 71 71 74 76 74 74 76
85 89 99 97 96 78 70 59 52 45 39 35 35 35 33 37 40 45 49 51 51 51 54 53 54 56 57 58 57 60 62 66 67 70 68 71 74 72 73 75 81 82 80
78 87 99 92 90 82 69 61 62 51 42 36 34 34 31 37 41 45 50 52 54 56 58 58 59 60 61 63 68 69 72 74 69 69 64 62 66 72 73 75 77 77 79
78 83 90 97 95 85 79 72 65 60 51 44 40 39 38 43 47 48 54 56 57 57 60 60 61 61 66 74 75 77 80 75 72 66 58 54 55 57 61 65 67 72 80
73 75 94 92 98 88 86 78 72 61 54 46 41 40 43 51 55 53 56 55 57 58 61 61 67 76 85 87 80 74 74 62 58 56 52 51 52 56 60 65 64 69 74
74 80 91 98 97 89 82 79 75 70 59 50 46 45 51 56 56 54 56 58 62 63 66 75 82 88 87 88 77 63 67 63 58 55 51 49 52 56 56 61 64 67 70
79 79 98 98 99 95 87 79 78 64 61 56 52 56 59 59 56 60 61 63 69 75 82 84 90 91 83 78 66 57 56 57 57 51 46 47 51 53 52 52 53 53 55

GFSSE_prec_cthk_120.txt.gz
RH
52 57 53 49 31 30 29 32 36 35 33 34 47 46 48 50 54 57 50 36 29 20 15 15 14 17 26 30 31 31 31 33 35 35 36 34 27 19 15 14 14 15 15
52 56 52 50 36 28 29 33 37 37 33 36 45 52 48 52 53 52 44 36 35 18 22 28 30 22 24 27 27 28 29 25 26 26 28 27 20 16 15 15 16 17 19
56 60 54 50 44 31 31 32 36 39 33 33 43 49 49 50 50 46 37 35 32 20 29 36 41 19 19 20 20 20 21 24 30 33 22 17 16 16 16 17 18 19 20
67 62 55 53 49 37 32 32 35 37 30 31 39 48 51 46 47 47 32 32 26 24 32 32 26 18 15 15 17 21 25 28 30 26 21 18 18 18 20 21 24 22 22
55 62 57 57 52 43 35 33 34 33 29 29 34 46 47 44 45 42 33 29 23 25 27 23 20 14 14 17 19 20 23 25 26 25 22 21 21 21 20 20 21 22 23
56 59 63 59 57 49 39 34 31 30 28 26 29 40 41 46 46 36 35 30 21 21 21 17 14 14 15 16 16 18 23 26 24 23 22 22 21 20 19 20 21 21 23
58 59 65 62 60 53 44 34 29 25 27 27 30 29 43 48 47 30 37 33 19 17 17 15 14 14 17 19 19 22 26 27 26 23 22 22 20 19 19 19 20 21 22
52 60 64 68 63 59 47 37 30 26 27 29 34 36 52 51 48 32 36 26 19 16 14 14 15 17 19 20 21 23 26 26 24 22 22 21 20 20 19 21 21 22 22
47 60 67 68 69 63 53 40 32 28 28 28 41 48 61 62 41 34 29 22 19 15 15 15 18 20 20 21 21 22 26 27 25 23 23 23 22 24 26 27 27 28 28
42 54 67 74 74 68 58 42 32 31 30 31 49 61 66 57 36 34 27 22 18 16 16 18 20 21 21 21 22 23 25 28 28 25 25 26 27 28 30 31 31 33 34
46 50 63 73 79 72 61 42 35 39 37 45 59 65 66 49 31 29 27 23 18 17 19 21 21 22 22 21 22 25 26 28 26 24 25 26 27 29 30 30 32 32 34
62 55 55 71 82 77 66 45 41 46 46 57 62 67 62 38 26 28 28 24 20 20 22 22 22 23 22 22 23 26 25 26 26 24 24 25 27 29 31 33 34 35 38
76 62 57 73 86 87 74 50 47 55 56 61 64 66 49 26 30 29 28 27 22 24 24 25 25 26 25 25 28 28 30 27 25 25 25 26 28 31 34 37 38 38 40
89 74 64 74 81 95 84 62 54 61 61 62 64 64 41 26 36 30 27 23 23 25 27 27 28 31 32 33 33 32 33 32 31 30 29 30 32 34 37 40 43 43 42
86 86 72 73 79 97 90 68 64 66 68 68 66 55 36 27 37 30 27 25 26 27 29 30 31 34 34 36 38 38 39 39 40 37 38 37 38 40 43 46 48 48 47
74 97 80 77 77 87 97 75 68 75 77 76 65 52 33 29 36 32 29 28 30 33 32 34 37 38 39 40 40 41 40 43 43 44 44 44 43 45 46 48 50 57 61
66 93 92 84 90 83 98 79 70 75 80 80 62 50 37 34 35 32 29 30 34 42 37 39 40 40 41 43 44 45 44 43 44 44 47 47 46 46 49 52 58 66 67
68 85 96 86 87 83 99 83 70 81 84 75 55 45 38 39 39 35 34 38 41 41 42 40 41 42 44 45 48 49 48 48 49 50 50 51 53 54 56 59 63 70 73
69 80 90 93 87 87 96 91 74 76 82 60 50 45 39 38 41 33 36 44 43 43 43 42 42 43 46 48 50 50 50 50 51 55 59 60 62 63 63 67 70 69 72
61 68 84 86 94 90 96 92 77 74 74 56 50 40 35 42 41 41 42 42 43 42 42 42 41 47 51 52 51 50 52 56 58 60 66 67 68 68 65 66 70 70 69
56 70 83 93 98 92 86 84 69 62 60 59 52 41 37 43 37 39 40 40 42 40 42 42 46 51 54 55 53 55 61 61 63 64 64 64 61 62 61 64 59 62 68
52 70 77 89 99 96 92 84 64 53 50 46 42 42 40 39 36 37 38 41 42 44 46 48 52 53 55 55 56 64 68 72 75 71 66 62 54 52 52 56 58 58 65
57 68 76 88 99 99 95 88 65 54 49 46 44 41 43 41 35 38 39 43 46 49 50 52 56 57 57 58 64 68 71 75 77 73 65 59 52 50 53 54 57 59 63
67 69 75 87 96 98 94 89 67 53 48 42 40 40 45 41 38 40 42 48 50 53 54 58 61 60 59 67 76 80 73 74 68 66 56 52 48 46 49 52 53 59 63
72 76 79 83 97 99 95 88 82 65 59 45 42 46 44 41 38 38 46 55 52 57 59 61 62 62 68 75 81 83 75 68 61 61 57 51 43 44 47 50 49 49 54
73 74 79 76 89 92 98 90 80 70 71 66 55 52 49 46 41 45 51 55 58 63 64 64 67 75 80 79 81 79 67 55 55 58 57 49 43 42 41 43 41 41 43

GFSSE_prec_cthk_123.txt.gz
RH
60 60 60 59 54 36 28 28 31 34 35 32 36 42 43 45 48 51 33 25 22 21 17 12 21 29 30 32 35 40 38 38 36 35 29 21 15 14 14 15 15 16 16
61 61 57 59 55 42 31 31 34 33 34 34 42 45 46 50 50 47 35 26 23 17 13 16 24 27 29 29 29 31 29 29 29 27 22 16 14 15 15 16 17 19 20
60 61 53 58 54 47 36 34 35 34 33 34 43 49 50 50 49 40 35 28 29 28 35 26 23 23 24 25 25 26 24 24 24 20 16 16 16 16 17 18 19 22 26
57 61 54 55 57 49 43 37 38 38 34 34 43 45 52 50 47 34 31 31 31 32 37 27 18 18 18 17 20 22 25 27 19 18 18 18 19 19 21 20 20 23 23
49 56 58 54 57 54 49 41 39 39 35 30 38 44 52 51 45 33 28 27 32 30 33 21 15 14 15 19 20 21 23 23 22 21 21 20 19 19 19 20 22 25 26
43 47 57 56 54 57 51 46 43 41 35 32 36 44 48 50 44 38 26 27 31 26 23 16 14 14 17 19 19 22 24 24 23 21 21 20 19 19 19 19 23 25 26
46 49 54 54 54 57 53 48 44 40 35 33 31 41 43 46 47 38 27 27 26 21 16 14 14 14 15 17 20 21 22 22 21 21 21 19 19 19 19 20 20 21 24
43 43 57 59 57 59 57 53 46 43 37 33 33 35 39 44 48 38 34 27 21 19 15 14 15 16 18 20 22 23 22 23 22 21 20 20 20 22 23 24 25 25 27
54 43 45 51 61 59 60 57 50 42 35 33 37 34 38 50 46 43 39 28 19 18 15 15 17 18 19 21 22 23 23 22 22 22 21 23 25 27 28 28 29 30 31
63 64 43 49 60 62 60 58 52 41 34 35 41 42 45 55 52 44 40 27 20 18 16 17 20 20 20 20 21 22 24 24 23 24 24 25 27 28 27 28 28 30 31
60 72 68 41 54 64 66 61 55 47 40 38 39 46 54 62 55 42 36 25 20 19 19 21 22 21 21 21 23 25 25 25 24 24 24 25 27 28 29 29 31 33 34
69 67 68 63 59 70 74 69 60 51 43 41 42 50 60 66 53 37 31 24 20 20 22 23 23 22 22 23 24 25 24 23 23 23 24 26 27 30 32 33 33 34 34
52 64 66 69 67 71 73 77 63 54 49 46 47 55 63 64 50 36 28 23 20 21 23 24 23 22 22 24 25 25 24 24 23 24 26 28 30 32 35 37 38 39 40
39 54 65 66 73 77 71 84 72 58 58 51 57 62 66 62 46 33 27 22 20 23 25 25 25 25 25 27 28 28 27 28 30 30 31 32 34 37 39 42 44 46 45
39 39 58 70 74 77 78 85 83 66 59 53 64 66 68 62 42 30 28 23 22 25 26 27 28 29 30 30 32 35 38 37 38 38 38 38 40 42 43 45 47 49 51
42 39 45 67 72 89 82 84 90 80 63 66 70 68 72 57 35 30 29 24 25 27 27 29 29 30 31 34 37 40 41 41 42 41 43 45 45 44 45 46 49 54 60
38 39 40 60 75 80 90 85 95 90 70 72 76 74 69 53 32 31 29 26 26 28 29 31 31 32 35 37 39 40 41 42 43 44 44 45 46 47 49 52 55 61 67
37 39 40 52 76 88 81 77 91 95 79 74 78 80 69 46 33 33 29 28 30 31 32 32 34 36 37 40 43 43 45 45 47 48 49 50 50 52 56 56 60 64 65
41 41 39 51 72 85 83 84 91 99 81 82 85 83 74 44 34 34 31 30 32 33 35 34 36 37 40 43 46 47 48 50 51 51 52 56 60 61 63 61 59 66 70
43 41 40 47 65 82 89 87 91 99 93 85 87 83 76 46 33 38 35 33 33 35 37 37 38 41 43 46 48 50 53 52 52 54 59 59 61 59 61 60 59 58 59
46 40 42 50 75 87 94 91 90 97 97 86 88 86 74 47 39 42 39 34 33 38 39 39 41 43 47 48 50 53 55 55 58 60 61 62 59 56 52 48 49 53 57
37 37 48 56 72 82 92 92 95 89 97 88 89 83 62 49 41 41 35 31 36 40 41 40 43 47 51 51 54 55 57 66 66 67 70 66 58 55 50 53 54 52 55
37 37 47 58 66 71 96 97 95 97 96 88 87 83 60 50 42 44 39 34 39 41 39 43 45 49 52 54 55 55 64 66 70 69 74 66 59 50 46 49 51 51 53
48 51 50 57 64 80 97 99 95 93 91 81 77 70 57 47 44 45 41 38 44 41 43 46 48 53 56 55 57 61 68 70 68 71 64 62 51 46 44 47 50 50 52
58 60 47 51 73 80 93 99 95 97 89 70 66 65 56 48 48 47 40 41 42 42 48 50 52 59 57 59 62 68 75 75 74 64 58 56 51 43 39 43 47 45 44
69 67 57 76 82 87 87 98 96 94 87 69 60 59 55 51 50 47 42 43 42 48 52 53 61 61 61 65 69 72 74 77 76 69 57 55 52 41 37 38 36 36 39

GFSSE_prec_cthk_126.txt.gz
RH
60 56 54 55 54 52 39 30 31 32 35 33 34 39 39 43 41 38 28 26 29 22 14 20 23 27 28 31 41 38 45 40 33 24 18 14 14 14 14 15 15 16 17
61 60 58 54 54 52 42 31 32 34 35 32 36 41 43 44 48 36 28 27 27 16 20 25 30 29 30 30 32 30 30 29 26 19 15 15 15 15 16 17 17 23 25
59 67 60 58 54 52 43 35 33 36 36 37 41 44 46 48 46 35 27 26 23 18 25 28 28 26 24 24 26 23 22 19 18 15 16 16 19 21 23 24 26 27 26
49 58 61 58 55 55 48 39 36 34 34 38 42 46 50 51 45 37 25 31 38 30 28 25 24 23 21 21 19 19 24 18 16 17 19 20 26 26 25 26 25 24 28
51 53 55 59 55 53 54 48 40 36 34 38 44 47 49 57 47 43 31 35 42 35 26 19 18 18 16 15 17 19 19 19 19 20 20 19 20 22 22 23 24 26 28
44 50 51 59 61 54 54 54 48 42 36 36 41 47 51 57 51 35 30 34 40 33 21 16 15 16 17 17 16 19 21 21 20 20 19 18 18 21 23 22 22 25 27
42 46 46 50 59 59 55 57 53 48 41 35 38 46 49 55 52 37 29 33 37 26 17 15 16 18 19 19 18 19 20 20 20 19 19 17 18 22 21 20 21 25 25
44 47 47 48 52 60 60 57 57 54 44 38 38 46 47 50 50 41 29 32 32 20 15 15 16 17 19 20 20 20 20 20 20 19 18 21 23 24 26 26 27 28 27
46 52 55 50 53 57 62 61 56 58 50 42 39 43 47 46 45 43 32 29 28 18 16 15 16 18 22 22 21 20 20 20 21 21 23 26 26 27 27 26 27 27 27
57 56 60 58 51 56 62 68 62 57 58 46 40 43 44 45 44 46 38 25 25 18 17 18 19 20 22 21 21 21 21 21 22 24 26 27 26 26 26 28 29 30 31
62 64 63 66 68 50 60 66 69 61 54 53 44 45 44 47 45 49 47 25 22 19 18 20 22 21 22 21 21 22 22 22 23 24 24 25 27 28 28 30 31 31 31
62 65 68 69 80 69 56 56 63 66 56 49 50 48 48 50 48 54 50 30 22 19 19 21 23 22 22 23 23 23 23 22 22 23 24 25 28 30 31 32 34 35 37
43 59 69 68 75 84 73 54 58 66 61 52 50 53 53 53 53 56 51 33 23 20 20 22 23 22 23 24 24 22 22 22 23 24 26 29 31 33 34 37 39 40 41
31 49 52 66 71 79 83 77 62 66 68 60 49 52 58 57 58 54 47 32 23 21 23 23 22 22 23 24 24 23 23 24 26 28 30 32 34 36 38 40 41 41 43
31 34 45 55 62 75 79 82 79 74 69 67 60 45 60 63 62 54 45 32 23 22 24 24 22 22 24 25 26 27 28 32 34 33 35 36 38 40 41 43 44 46 49
33 32 37 46 52 68 78 79 83 79 76 70 65 54 59 67 64 59 45 30 25 23 24 25 24 25 27 29 31 35 38 39 38 39 40 41 41 42 45 46 48 52 57
31 35 33 38 48 56 70 79 78 76 78 76 74 64 62 70 67 61 44 29 26 26 25 26 28 30 31 33 37 39 40 40 40 42 42 43 44 46 47 52 53 54 59
33 34 37 34 36 51 59 77 98 83 80 88 84 73 66 72 70 65 41 29 28 27 26 26 29 32 34 38 40 40 40 41 43 45 45 48 50 51 55 57 59 57 62
30 36 36 35 31 39 57 62 88 87 94 86 94 84 76 77 71 67 39 30 29 28 26 28 30 33 38 40 41 43 44 46 46 47 50 52 55 57 60 59 60 58 60
26 32 37 36 32 33 48 58 84 87 88 88 90 90 85 85 79 69 38 32 30 29 28 31 33 38 39 42 43 47 49 49 50 51 52 56 58 57 56 54 55 51 50
26 26 33 38 39 34 37 43 68 80 81 90 92 90 91 86 77 74 38 35 31 29 29 33 36 39 40 43 47 50 51 51 54 54 55 60 62 58 55 51 50 52 50
28 28 30 33 39 36 35 41 52 65 79 85 88 97 96 89 90 77 41 36 32 31 34 39 39 40 41 45 47 51 53 55 57 60 64 65 67 64 56 49 51 51 49
31 28 31 35 33 37 38 41 51 63 78 87 86 85 98 93 93 80 42 38 33 33 38 39 40 40 41 47 49 50 56 56 61 67 69 66 70 66 57 47 45 46 46
30 29 32 30 26 30 35 39 46 60 66 84 84 91 90 94 96 82 45 39 33 33 39 41 41 42 44 47 51 51 60 58 63 69 67 64 71 69 56 45 42 43 43
37 34 35 32 37 36 33 38 52 55 72 85 89 91 96 93 98 78 47 40 40 35 41 43 43 43 48 52 52 54 65 64 65 68 68 72 70 61 47 44 41 40 37
42 41 45 48 44 41 44 51 64 71 81 96 97 89 97 97 96 72 54 44 44 41 50 46 46 55 57 54 56 59 71 71 70 71 76 78 76 59 46 41 37 34 30

GFSSE_prec_cthk_129.txt.gz
RH
52 55 51 51 54 55 49 37 30 33 36 37 37 41 40 39 39 35 28 26 21 18 20 25 32 40 35 44 46 45 44 31 21 17 14 14 15 15 16 17 17 22 25
58 56 54 52 55 55 52 42 32 32 34 35 35 39 42 41 40 34 33 30 24 23 23 25 29 32 31 36 32 35 31 24 18 15 14 15 19 21 19 23 24 25 26
56 63 58 53 55 57 53 43 36 32 33 33 36 39 43 45 41 32 33 29 25 27 27 30 32 31 29 29 25 23 19 15 16 15 16 18 25 26 26 27 25 27 27
52 58 63 58 56 57 56 51 42 35 34 35 38 41 44 47 41 31 28 22 31 33 30 28 26 24 25 27 20 18 17 16 16 18 18 20 23 27 25 25 26 27 28
48 50 53 61 61 59 55 54 52 42 36 36 38 43 48 47 41 34 32 31 33 32 27 22 21 20 19 17 18 20 16 17 19 19 18 18 20 25 23 24 26 26 27
45 48 52 57 62 60 54 54 54 52 42 41 42 45 51 53 53 43 38 37 38 33 20 18 16 15 14 17 17 17 19 19 19 19 18 17 21 23 22 25 25 27 27
43 44 50 54 58 58 57 55 57 55 51 45 45 47 50 54 56 45 37 36 36 29 17 16 14 15 16 17 18 19 19 19 18 17 16 18 25 28 29 30 30 29 28
48 45 46 49 52 58 60 60 59 58 57 51 47 48 52 55 55 42 37 37 32 25 15 14 16 15 17 18 19 19 18 19 17 17 20 22 26 27 27 30 29 26 31
66 60 49 48 48 49 57 61 63 59 57 56 50 50 55 55 55 41 34 38 30 22 14 15 16 16 18 19 19 19 19 18 18 21 24 25 26 25 25 27 27 27 30
60 66 72 62 55 52 52 57 63 66 60 54 53 54 52 52 52 44 34 37 28 21 15 14 15 18 20 20 19 19 19 20 22 24 25 25 24 25 26 27 28 28 27
61 66 68 75 70 62 58 63 65 67 68 61 55 53 55 53 52 43 38 35 28 22 17 15 18 20 20 20 20 21 21 22 23 24 24 25 26 27 28 29 31 31 32
53 64 66 68 74 75 65 59 66 69 71 68 61 53 53 54 52 46 47 35 32 24 19 18 19 21 20 21 21 22 23 22 22 23 23 26 27 30 31 33 35 37 38
40 51 63 67 69 72 78 74 70 68 71 72 65 60 50 49 55 48 50 39 34 27 21 19 20 21 21 22 23 23 23 22 22 23 25 27 30 32 34 37 38 38 40
33 36 46 63 70 72 75 82 78 71 62 60 61 62 59 52 52 53 52 44 36 30 23 22 22 21 21 22 23 23 23 23 23 25 28 30 32 34 37 39 40 41 42
31 32 34 49 62 71 74 78 81 77 73 67 58 59 60 56 55 52 55 51 39 34 25 23 23 23 23 23 23 24 25 26 28 30 32 34 35 38 40 42 44 46 49
32 30 32 35 52 62 71 73 77 80 75 72 67 62 61 59 57 56 56 52 40 36 27 25 24 24 24 25 25 26 29 33 35 36 37 39 40 40 41 44 48 50 51
30 30 29 31 35 50 60 69 78 79 81 73 73 71 68 65 58 62 58 52 41 36 29 28 26 26 26 27 30 32 36 38 38 40 39 41 43 44 45 48 51 54 55
30 29 29 30 31 36 49 61 68 78 82 81 80 77 74 72 67 68 65 55 43 37 30 29 27 27 29 30 32 36 38 38 40 40 43 45 46 47 50 53 55 58 65
23 28 29 30 31 31 38 49 57 72 80 77 89 79 77 78 74 75 69 61 46 37 32 30 29 30 31 32 35 39 39 39 41 44 47 49 51 53 53 56 53 52 55
22 22 27 28 30 33 30 41 52 54 71 91 94 83 85 87 80 83 80 70 48 38 35 32 30 31 33 36 40 42 42 43 46 48 49 51 54 56 56 54 50 49 46
23 25 23 27 30 33 32 35 48 50 59 76 95 91 91 89 90 90 84 77 54 39 34 33 32 34 35 38 41 43 45 48 48 50 52 55 57 60 59 56 54 51 47
23 26 26 26 27 32 32 32 39 47 53 71 80 90 83 88 82 88 91 82 64 41 36 35 34 35 38 40 41 46 50 51 51 53 55 59 62 63 62 61 55 49 45
18 22 25 28 27 28 33 35 36 36 48 66 73 72 82 81 84 89 94 91 74 47 36 35 35 36 37 40 42 47 50 49 53 55 62 65 66 63 64 63 57 47 43
17 20 25 26 27 26 28 40 36 34 40 54 55 71 75 79 92 93 92 91 85 54 39 37 36 38 40 41 45 49 50 51 55 59 68 70 64 65 68 65 55 47 41
33 35 30 29 21 23 26 34 36 33 37 46 54 66 68 71 79 83 95 98 90 61 41 40 38 40 43 43 44 51 53 56 58 62 71 71 68 70 70 64 59 46 38
42 45 37 31 29 33 35 30 27 33 34 43 45 60 66 73 76 82 89 96 90 61 47 44 41 44 45 47 47 53 55 58 65 71 72 76 73 75 74 67 63 51 36

GFSSE_prec_cthk_132.txt.gz
RH
55 52 51 49 49 52 51 44 37 35 37 38 36 40 41 38 38 31 25 20 19 27 26 30 43 45 54 55 48 42 29 22 17 14 14 14 15 16 16 18 21 23 25
61 60 53 52 51 52 52 46 38 36 38 38 35 40 41 40 36 30 30 23 25 26 25 28 34 31 43 41 37 33 26 18 16 14 15 16 20 21 23 25 26 27 27
61 62 61 56 54 53 52 50 42 37 36 38 36 39 41 40 40 35 30 24 27 30 25 28 28 27 28 30 27 23 16 16 15 16 17 23 24 26 26 26 26 28 28
59 62 66 63 57 55 55 52 49 43 37 37 36 40 42 44 39 33 28 24 28 32 27 30 27 24 25 24 19 14 15 16 17 18 18 24 26 26 25 26 26 26 28
53 54 60 64 64 60 58 55 52 49 44 38 38 40 43 45 39 37 29 30 31 34 28 23 22 22 22 19 16 16 15 18 18 17 18 23 24 25 25 25 26 27 28
50 49 51 60 63 66 63 56 53 52 50 44 42 43 46 45 43 41 37 35 32 31 20 17 18 17 14 16 15 15 17 18 18 17 16 20 24 25 26 28 29 29 29
48 49 50 54 58 63 66 61 57 53 52 51 50 50 51 49 48 48 46 39 34 28 18 14 13 13 15 15 16 16 17 18 17 16 17 24 30 31 31 31 30 29 31
47 49 48 49 52 60 66 63 62 59 54 54 57 57 54 56 53 49 44 42 38 25 19 12 12 14 16 16 17 17 17 17 16 19 22 27 31 32 31 29 28 31 30
56 63 59 52 52 51 58 61 61 61 60 59 57 60 60 58 56 47 42 40 37 23 19 14 13 14 17 18 17 17 17 16 19 23 24 26 27 27 27 26 26 28 26
52 59 69 75 66 60 61 54 57 61 63 61 61 57 62 62 57 48 42 40 36 25 20 16 14 15 18 19 17 17 18 18 22 25 25 24 25 26 26 26 26 27 30
43 52 62 69 76 77 69 65 61 61 67 64 62 62 59 56 59 50 40 38 34 27 22 16 16 17 19 19 18 18 19 21 23 25 24 25 26 27 28 29 31 33 35
41 47 54 63 68 75 83 82 72 73 74 68 66 65 62 58 56 53 44 39 35 28 26 19 17 19 20 19 20 19 21 22 23 23 24 26 28 29 31 33 36 38 38
32 40 52 62 66 69 74 83 84 76 75 75 70 67 67 63 60 54 46 42 37 32 29 22 19 21 21 20 22 21 22 22 21 22 25 27 29 32 33 35 38 39 41
33 33 46 56 65 68 72 75 82 81 79 78 79 73 67 66 62 57 50 45 38 34 33 26 22 22 23 22 23 23 22 21 22 23 26 28 31 34 36 39 42 42 44
33 33 35 40 52 63 69 72 74 80 81 80 76 73 66 64 63 60 56 54 40 36 35 32 24 24 24 24 23 22 22 22 23 25 28 31 34 36 39 42 43 46 48
32 34 33 34 40 49 63 72 74 76 84 84 79 71 70 60 58 60 60 58 47 39 36 34 28 25 25 24 23 23 23 24 26 30 33 35 37 39 41 43 45 50 53
30 32 33 32 33 36 45 64 75 75 79 84 82 76 76 69 60 60 62 62 57 45 40 36 33 27 26 25 25 24 25 28 33 35 36 37 39 42 45 46 49 52 55
25 28 32 33 31 32 35 47 64 76 76 80 83 78 75 72 63 64 63 65 63 52 43 40 36 30 27 26 26 28 30 34 36 36 37 39 43 45 48 49 52 53 54
24 24 26 30 32 32 32 35 47 62 74 70 82 88 83 78 77 72 68 71 70 58 47 45 39 33 31 29 30 31 34 36 37 38 40 42 45 50 51 52 52 50 48
24 23 23 24 28 30 33 33 36 50 62 71 75 82 86 83 83 80 72 75 78 66 52 47 43 37 34 36 35 36 37 37 38 40 43 45 49 52 54 55 54 54 52
25 23 23 23 23 27 29 33 35 36 43 68 70 77 79 81 83 81 82 76 84 67 60 52 48 41 38 40 40 38 39 40 41 43 45 48 51 56 57 56 56 57 53
23 23 21 22 24 23 27 31 36 34 35 48 60 58 91 93 90 91 86 85 90 79 68 53 49 45 42 42 40 39 43 43 43 46 47 50 52 59 61 57 58 58 56
27 22 21 21 25 26 23 28 35 38 37 35 49 56 60 84 84 87 92 92 94 93 75 61 54 49 42 41 41 42 43 42 46 48 48 51 55 63 62 61 61 61 55
23 23 19 18 22 27 26 24 30 36 38 36 33 47 55 64 77 87 92 91 91 95 86 70 60 51 45 43 45 44 42 42 47 48 50 52 59 64 62 65 63 60 58
22 20 19 15 18 23 26 26 26 33 38 38 36 39 53 66 72 74 80 83 81 91 92 84 71 51 48 45 44 44 45 47 48 50 52 56 62 64 66 68 68 62 63
24 22 22 22 20 22 23 23 25 27 34 42 37 38 49 55 64 76 77 75 77 91 95 90 80 58 50 48 48 48 46 49 51 54 54 57 65 68 71 71 73 66 60